[[{"header":{"parameterUnit":"m.s-1","parameterCategory":1,"la1":30.6,"la2":28.766,"lo1":-90.7593,"lo2":-88.6598,"dy":0.0162,"dx":0.0183,"nx":116,"ny":114,"refTime":"2024-06-01T12:00:00:Z","depth":0,"parameterNumber":2,"parameterNumberName":"U-component_of_WINDS"},"data":[0.0,0.0,0.0,0.0,0.0,0.0,0.0,0.0,0.0,0.0,0.0,0.0,0.0,0.0,0.0,0.0,0.0,0.0,0.0,0.0,0.0,0.0,0.0,0.0,0.0,0.0,0.0,0.0,0.0,0.0,0.0,0.0,0.0,0.0,0.0,0.0,0.0,0.0,0.0,0.0,0.0,0.0,0.0,0.0,0.0,0.0,0.0,0.0,0.0,0.0,0.0,0.0,0.0,0.0,0.0,0.0,0.0,0.0,0.0,0.0,0.0,0.0,0.0,0.0,0.0,0.0,0.0,0.0,0.0,0.0,0.0,0.0,0.0,0.0,0.0,0.0,0.0,0.0,0.0,0.0,0.0,0.0,0.0,0.0,0.0,0.0,0.0,0.0,0.0,0.0,0.0,0.0,0.0,0.0,0.0,0.0,0.0,0.0,0.0,0.0,0.0,0.0,0.0,0.0,0.0,0.0,0.0,0.0,0.0,0.0,0.0,0.0,0.0,0.0,0.0,0.0,0.0,0.0,0.0,0.0,0.0,0.0,0.0,0.0,0.0,0.0,0.0,0.0,0.0,0.0,0.0,0.0,0.0,0.0,0.0,0.0,0.0,0.0,0.0,0.0,0.0,0.0,0.0,0.0,0.0,0.0,0.0,0.0,0.0,0.0,0.0,0.0,0.0,0.0,0.0,0.0,0.0,0.0,0.0,0.0,0.0,0.0,0.0,0.0,0.0,0.0,0.0,0.0,0.0,0.0,0.0,0.0,0.0,0.0,0.0,0.0,0.0,0.0,0.0,0.0,0.0,0.0,0.0,0.0,0.0,0.0,0.0,0.0,0.0,0.0,0.0,0.0,0.0,0.0,0.0,0.0,0.0,0.0,0.0,0.0,0.0,0.0,0.0,0.0,0.0,0.0,0.0,0.0,0.0,0.0,0.0,0.0,0.0,0.0,0.0,0.0,0.0,0.0,0.0,0.0,0.0,0.0,0.0,0.0,0.0,0.0,0.0,0.0,0.0,0.0,0.0,0.0,0.0,0.0,0.0,0.0,0.0,0.0,0.0,0.0,0.0,0.0,0.0,0.0,0.0,0.0,0.0,0.0,0.0,0.0,0.0,0.0,0.0,0.0,0.0,0.0,0.0,0.0,0.0,0.0,0.0,0.0,0.0,0.0,0.0,0.0,0.0,0.0,0.0,0.0,0.0,0.0,0.0,0.0,0.0,0.0,0.0,0.0,0.0,0.0,0.0,0.0,0.0,0.0,0.0,0.0,0.0,0.0,0.0,0.0,0.0,0.0,0.0,0.0,0.0,0.0,0.0,0.0,0.0,0.0,0.0,0.0,0.0,0.0,0.0,0.0,0.0,0.0,0.0,0.0,0.0,0.0,0.0,0.0,0.0,0.0,0.0,0.0,0.0,0.0,0.0,0.0,0.0,0.0,0.0,0.0,0.0,0.0,0.0,0.0,0.0,0.0,0.0,0.0,0.0,0.0,0.0,0.0,0.0,0.0,0.0,0.0,0.0,0.0,0.0,0.0,0.0,0.0,0.0,0.0,0.0,0.0,0.0,0.0,0.0,0.0,0.0,0.0,0.0,0.0,0.0,0.0,0.0,0.0,0.0,0.0,0.0,0.0,0.0,0.0,0.0,0.0,0.0,0.0,0.0,0.0,0.0,0.0,0.0,0.0,0.0,0.0,0.0,0.0,0.0,0.0,0.0,0.0,0.0,0.0,0.0,0.0,0.0,0.0,0.0,0.0,0.0,0.0,0.0,0.0,0.0,0.0,0.0,0.0,0.0,0.0,0.0,0.0,0.0,0.0,0.0,0.0,0.0,0.0,0.0,0.0,0.0,0.0,0.0,0.0,0.0,0.0,0.0,0.0,0.0,0.0,0.0,0.0,0.0,0.0,0.0,0.0,0.0,0.0,0.0,0.0,0.0,0.0,0.0,0.0,0.0,0.0,0.0,0.0,0.0,0.0,0.0,0.0,0.0,0.0,0.0,0.0,0.0,0.0,0.0,0.0,0.0,0.0,0.0,0.0,0.0,0.0,0.0,0.0,0.0,0.0,0.0,0.0,0.0,0.0,0.0,0.0,0.0,0.0,0.0,0.0,0.0,0.0,0.0,0.0,0.0,0.0,0.0,0.0,0.0,0.0,0.0,0.0,0.0,0.0,0.0,0.0,0.0,0.0,0.0,0.0,0.0,0.0,0.0,0.0,0.0,0.0,0.0,0.0,0.0,0.0,0.0,0.0,0.0,0.0,0.0,0.0,0.0,0.0,0.0,0.0,0.0,0.0,0.0,0.0,0.0,0.0,0.0,0.0,0.0,0.0,0.0,0.0,0.0,0.0,0.0,0.0,0.0,0.0,0.0,0.0,0.0,0.0,0.0,0.0,0.0,0.0,0.0,0.0,0.0,0.0,0.0,0.0,0.0,0.0,0.0,0.0,0.0,0.0,0.0,0.0,0.0,0.0,0.0,0.0,0.0,0.0,0.0,0.0,0.0,0.0,0.0,0.0,0.0,0.0,0.0,0.0,0.0,0.0,0.0,0.0,0.0,0.0,0.0,0.0,0.0,0.0,0.0,0.0,0.0,0.0,0.0,0.0,0.0,0.0,0.0,0.0,0.0,0.0,0.0,0.0,0.0,0.0,0.0,0.0,0.0,0.0,0.0,0.0,0.0,0.0,0.0,0.0,0.0,0.0,0.0,0.0,0.0,0.0,0.0,0.0,0.0,0.0,0.0,0.0,0.0,0.0,0.0,0.0,0.0,0.0,0.0,0.0,0.0,0.0,0.0,0.0,0.0,0.0,0.0,0.0,0.0,0.0,0.0,0.0,0.0,0.0,0.0,0.0,0.0,0.0,0.0,0.0,0.0,0.0,0.0,0.0,0.0,0.0,0.0,0.0,0.0,0.0,0.0,0.0,0.0,0.0,0.0,0.0,0.0,0.0,0.0,0.0,0.0,0.0,0.0,0.0,0.0,0.0,0.0,0.0,0.0,0.0,0.0,0.0,0.0,0.0,0.0,0.0,0.0,0.0,0.0,0.0,0.0,0.0,0.0,0.0,0.0,0.0,0.0,0.0,0.0,0.0,0.0,0.0,0.0,0.0,0.0,0.0,0.0,0.0,0.0,0.0,0.0,0.0,0.0,0.0,0.0,0.0,0.0,0.0,0.0,0.0,0.0,0.0,0.0,0.0,0.0,0.0,0.0,0.0,0.0,0.0,0.0,0.0,0.0,0.0,0.0,0.0,0.0,0.0,0.0,0.0,0.0,0.0,0.0,0.0,0.0,0.0,0.0,0.0,0.0,0.0,0.0,0.0,0.0,0.0,0.0,0.0,0.0,0.0,0.0,0.0,0.0,0.0,0.0,0.0,0.0,0.0,0.0,0.0,0.0,0.0,0.0,0.0,0.0,0.0,0.0,0.0,0.0,0.0,0.0,0.0,0.0,0.0,0.0,0.0,0.0,0.0,0.0,0.0,0.0,0.0,0.0,0.0,0.0,0.0,0.0,0.0,0.0,0.0,0.0,0.0,0.0,0.0,0.0,0.0,0.0,0.0,0.0,0.0,0.0,0.0,0.0,0.0,0.0,0.0,0.0,0.0,0.0,0.0,0.0,0.0,0.0,0.0,0.0,0.0,0.0,0.0,0.0,0.0,0.0,0.0,0.0,0.0,0.0,0.0,0.0,0.0,0.0,0.0,0.0,0.0,0.0,0.0,0.0,0.0,0.0,0.0,0.0,0.0,0.0,0.0,0.0,0.0,0.0,0.0,0.0,0.0,0.0,0.0,0.0,0.0,0.0,0.0,0.0,0.0,0.0,0.0,0.0,0.0,0.0,0.0,0.0,0.0,0.0,0.0,0.0,0.0,0.0,0.0,0.0,0.0,0.0,0.0,0.0,0.0,0.0,0.0,0.0,0.0,0.0,0.0,0.0,0.0,0.0,0.0,0.0,0.0,0.0,0.0,0.0,0.0,0.0,0.0,0.0,0.0,0.0,0.0,0.0,0.0,0.0,0.0,0.0,0.0,0.0,0.0,0.0,0.0,0.0,0.0,0.0,0.0,0.0,0.0,0.0,0.0,0.0,0.0,0.0,0.0,0.0,0.0,0.0,0.0,0.0,0.0,0.0,0.0,0.0,0.0,0.0,0.0,0.0,0.0,0.0,0.0,0.0,0.0,0.0,0.0,0.0,0.0,0.0,0.0,0.0,0.0,0.0,0.0,0.0,0.0,0.0,0.0,0.0,0.0,0.0,0.0,0.0,0.0,0.0,0.0,0.0,0.0,0.0,0.0,0.0,0.0,0.0,0.0,0.0,0.0,0.0,0.0,0.0,0.0,0.0,0.0,0.0,0.0,0.0,0.0,0.0,0.0,0.0,0.0,0.0,0.0,0.0,0.0,0.0,0.0,0.0,0.0,0.0,0.0,0.0,0.0,0.0,0.0,0.0,0.0,0.0,0.0,0.0,0.0,0.0,0.0,0.0,0.0,0.0,0.0,0.0,0.0,0.0,0.0,0.0,0.0,0.0,0.0,0.0,0.0,0.0,0.0,0.0,0.0,0.0,0.0,0.0,0.0,0.0,0.0,0.0,0.0,0.0,0.0,0.0,0.0,0.0,0.0,0.0,0.0,0.0,0.0,0.0,0.0,0.0,0.0,0.0,0.0,0.0,0.0,0.0,0.0,0.0,0.0,0.0,0.0,0.0,0.0,0.0,0.0,0.0,0.0,0.0,0.0,0.0,0.0,0.0,0.0,0.0,0.0,0.0,0.0,0.0,0.0,0.0,0.0,0.0,0.0,0.0,0.0,0.0,0.0,0.0,0.0,0.0,0.0,0.0,0.0,0.0,0.0,0.0,0.0,0.0,0.0,0.0,0.0,0.0,0.0,0.0,0.0,0.0,0.0,0.0,0.0,0.0,0.0,0.0,0.0,0.0,0.0,0.0,0.0,0.0,0.0,0.0,0.0,0.0,0.0,0.0,0.0,0.0,0.0,0.0,0.0,0.0,0.0,0.0,0.0,0.0,0.0,0.0,0.0,0.0,0.0,0.0,0.0,0.0,0.0,0.0,0.0,0.0,0.0,0.0,0.0,0.0,0.0,0.0,0.0,0.0,0.0,0.0,0.0,0.0,0.0,0.0,0.0,0.0,0.0,0.0,0.0,0.0,0.0,0.0,0.0,0.0,0.0,0.0,0.0,0.0,0.0,0.0,0.0,0.0,0.0,0.0,0.0,0.0,0.0,0.0,0.0,0.0,0.0,0.0,0.0,0.0,0.0,0.0,0.0,0.0,0.0,0.0,0.0,0.0,0.0,0.0,0.0,0.0,0.0,0.0,0.0,0.0,0.0,0.0,0.0,0.0,0.0,0.0,0.0,0.0,0.0,0.0,0.0,0.0,0.0,0.0,0.0,0.0,0.0,0.0,0.0,0.0,0.0,0.0,0.0,0.0,0.0,0.0,0.0,0.0,0.0,0.0,0.0,0.0,0.0,0.0,0.0,0.0,0.0,0.0,0.0,0.0,0.0,0.0,0.0,0.0,0.0,0.0,0.0,0.0,0.0,0.0,0.0,0.0,0.0,0.0,0.0,0.0,0.0,0.0,0.0,0.0,0.0,0.0,0.0,0.0,0.0,0.0,0.0,0.0,0.0,0.0,0.0,0.0,0.0,0.0,0.0,0.0,0.0,0.0,0.0,0.0,0.0,0.0,0.0,0.0,0.0,0.0,0.0,0.0,0.0,0.0,0.0,0.0,0.0,0.0,0.0,0.0,0.0,0.0,0.0,0.0,0.0,0.0,0.0,0.0,0.0,0.0,0.0,0.0,0.0,0.0,0.0,0.0,0.0,0.0,0.0,0.0,0.0,0.0,0.0,0.0,0.0,0.0,0.0,0.0,0.0,0.0,0.0,0.0,0.0,0.0,0.0,0.0,0.0,0.0,0.0,0.0,0.0,0.0,0.0,0.0,0.0,0.0,0.0,0.0,0.0,0.0,0.0,0.0,0.0,0.0,0.0,0.0,0.0,0.0,0.0,0.0,0.0,0.0,0.0,0.0,0.0,0.0,0.0,0.0,0.0,0.0,0.0,0.0,0.0,0.0,0.0,0.0,0.0,-4.7278,0.0,0.0,0.0,0.0,0.0,0.0,0.0,0.0,0.0,0.0,0.0,0.0,0.0,0.0,0.0,0.0,0.0,0.0,0.0,0.0,0.0,0.0,0.0,0.0,-3.0873,-3.1342,-3.1903,-3.2357,-3.2647,-3.2673,0.0,0.0,0.0,0.0,0.0,-3.0898,-3.0898,-3.0898,-3.0898,-3.0877,-3.1046,-3.1425,-3.1741,-3.1433,-3.0606,0.0,0.0,0.0,0.0,0.0,0.0,0.0,0.0,0.0,0.0,0.0,0.0,0.0,0.0,0.0,0.0,0.0,0.0,0.0,0.0,0.0,0.0,0.0,0.0,0.0,0.0,0.0,0.0,0.0,0.0,0.0,0.0,0.0,0.0,0.0,0.0,0.0,0.0,0.0,0.0,0.0,0.0,0.0,0.0,0.0,0.0,0.0,0.0,0.0,0.0,0.0,0.0,0.0,0.0,0.0,0.0,0.0,0.0,0.0,0.0,0.0,0.0,0.0,0.0,0.0,0.0,0.0,0.0,0.0,0.0,0.0,-4.724,0.0,0.0,0.0,0.0,0.0,0.0,0.0,0.0,0.0,0.0,0.0,0.0,0.0,0.0,0.0,0.0,0.0,0.0,0.0,0.0,0.0,-2.9413,-3.0414,-3.117,-3.1712,-3.198,-3.2673,-3.3183,-3.339,-3.2572,0.0,0.0,0.0,-3.1055,-3.0898,-3.1055,-3.1055,-3.0898,-3.1055,-3.1541,-3.2331,-3.3007,-3.2521,-3.108,-3.0909,0.0,0.0,0.0,0.0,0.0,0.0,0.0,0.0,0.0,0.0,0.0,0.0,0.0,0.0,0.0,0.0,0.0,0.0,0.0,0.0,0.0,0.0,0.0,0.0,0.0,0.0,0.0,0.0,0.0,0.0,0.0,0.0,0.0,0.0,0.0,0.0,0.0,0.0,0.0,0.0,0.0,0.0,0.0,0.0,0.0,0.0,0.0,0.0,0.0,0.0,0.0,0.0,0.0,0.0,0.0,0.0,0.0,0.0,0.0,0.0,0.0,0.0,0.0,-5.0067,-5.0067,-5.0067,-5.0067,-4.9663,-4.899,-4.8836,-4.8777,-4.8651,0.0,0.0,0.0,0.0,0.0,0.0,0.0,0.0,0.0,0.0,0.0,0.0,0.0,0.0,0.0,0.0,0.0,0.0,0.0,0.0,-2.9529,-3.0471,-3.0733,-3.1181,-3.2004,-3.2183,-3.2578,-3.3348,-3.257,0.0,0.0,-3.2051,-3.168,-3.0918,-3.1641,-3.166,-3.0898,-3.166,-3.2441,-3.3222,-3.3348,-3.3257,-3.2996,-3.2129,-3.1732,-3.1674,0.0,0.0,0.0,0.0,0.0,0.0,0.0,0.0,0.0,0.0,0.0,0.0,0.0,0.0,0.0,0.0,0.0,0.0,0.0,0.0,0.0,0.0,0.0,0.0,0.0,0.0,0.0,0.0,0.0,0.0,0.0,0.0,0.0,0.0,0.0,0.0,0.0,0.0,0.0,0.0,0.0,-4.6152,-4.7148,0.0,0.0,0.0,0.0,0.0,0.0,0.0,0.0,0.0,0.0,0.0,0.0,0.0,0.0,-5.2683,-5.2702,-5.2702,-5.2702,-5.2702,-5.2702,-5.2702,-5.2702,-5.2645,-5.2491,-5.1731,0.0,-4.7848,-4.7608,0.0,0.0,0.0,0.0,0.0,0.0,0.0,0.0,0.0,0.0,0.0,0.0,0.0,0.0,0.0,0.0,0.0,0.0,0.0,0.0,0.0,-3.1535,-3.2348,-3.279,-3.3729,-3.4243,-3.4137,-3.332,-3.2832,-3.2832,-3.1911,-3.1482,-3.1621,-3.1992,-3.2226,-3.2305,-3.3184,-3.3789,-3.4141,-3.4627,-3.4606,-3.4117,-3.3636,-3.2856,-3.1875,-3.1452,0.0,0.0,0.0,0.0,0.0,0.0,0.0,0.0,0.0,0.0,0.0,0.0,0.0,0.0,0.0,0.0,0.0,0.0,0.0,0.0,0.0,0.0,0.0,0.0,0.0,0.0,0.0,0.0,0.0,0.0,0.0,0.0,0.0,0.0,0.0,0.0,0.0,0.0,0.0,-4.4961,-4.6445,-4.6816,-4.7304,-4.7401,0.0,0.0,0.0,0.0,0.0,0.0,0.0,0.0,0.0,-5.1521,-5.1526,-5.2038,-5.3183,-5.3203,-5.3203,-5.3203,-5.3203,-5.3203,-5.3203,-5.3203,-5.3203,-5.3145,-5.2269,-5.12,-4.9984,-4.9035,-4.7925,-4.6739,0.0,0.0,0.0,0.0,0.0,-4.2304,0.0,0.0,0.0,0.0,0.0,0.0,0.0,0.0,0.0,0.0,0.0,0.0,-3.0819,-3.2174,-3.3099,-3.3375,-3.4377,-3.4913,-3.4706,-3.3475,-3.2923,-3.3351,-3.1914,-3.1328,-3.1811,-3.2026,-3.2652,-3.3709,-3.4354,-3.4804,-3.5059,-3.5703,-3.5644,-3.5039,-3.4952,-3.4051,-3.2532,-3.2038,-3.1511,-3.0962,0.0,0.0,0.0,0.0,0.0,0.0,0.0,0.0,0.0,0.0,0.0,0.0,0.0,0.0,0.0,0.0,0.0,0.0,0.0,0.0,0.0,0.0,0.0,0.0,0.0,0.0,0.0,0.0,0.0,0.0,0.0,0.0,0.0,0.0,0.0,0.0,0.0,-4.6055,-4.7226,-4.6992,-4.7929,-4.824,0.0,0.0,0.0,0.0,0.0,0.0,-5.1515,-5.1107,-5.1458,-5.2827,-5.2806,-5.3129,-5.388,-5.3868,-5.3837,-5.3837,-5.3837,-5.3837,-5.3837,-5.3837,-5.3837,-5.378,-5.2692,-5.2231,-5.2077,-5.0183,-4.8988,-4.8231,-4.6827,-4.5698,-4.4767,-4.4214,-4.3418,-4.269,0.0,0.0,0.0,0.0,0.0,0.0,0.0,0.0,0.0,0.0,0.0,-3.0781,-3.172,-3.2026,-3.2498,-3.3338,-3.2727,-3.2987,-3.4588,-3.2337,-3.1634,-3.3235,-3.243,-3.1575,-3.0795,-3.159,-3.2838,-3.4548,-3.4587,-3.5069,-3.5937,-3.5976,-3.5976,-3.5937,-3.5868,-3.5287,-3.4258,-3.259,-3.2313,-3.2801,-3.102,0.0,0.0,0.0,0.0,0.0,0.0,0.0,0.0,0.0,0.0,0.0,0.0,0.0,0.0,0.0,0.0,0.0,0.0,0.0,0.0,0.0,0.0,0.0,0.0,0.0,0.0,0.0,0.0,0.0,0.0,0.0,0.0,0.0,0.0,0.0,0.0,0.0,0.0,-4.8867,-5.0214,0.0,0.0,0.0,0.0,-5.1192,-5.2023,-5.2544,-5.2622,-5.3231,-5.4004,-5.4927,-5.4691,-5.4948,-5.5763,-5.5633,-5.5568,-5.5568,-5.5568,-5.5568,-5.5568,-5.5568,-5.5568,-5.5472,-5.3837,-5.3126,-5.2953,-5.0433,-4.9708,-4.9916,-4.7315,-4.6411,-4.6382,-4.4639,-4.377,-4.346,0.0,0.0,0.0,0.0,0.0,-2.5818,-2.7008,-2.7641,-2.8555,-3.0142,-3.0926,-3.1511,-3.1918,-3.3041,-3.389,-3.4213,-3.447,-3.4648,-3.4698,-3.3261,-3.2924,-3.4099,-3.2728,-3.2324,-3.3139,-3.3448,-3.4199,-3.5368,-3.5368,-3.5568,-3.5948,-3.5948,-3.5953,-3.5996,-3.5975,-3.5722,-3.526,-3.4072,-3.3074,-3.2193,-3.1525,-3.0969,0.0,0.0,0.0,0.0,0.0,0.0,0.0,0.0,0.0,0.0,0.0,0.0,0.0,0.0,0.0,0.0,0.0,0.0,0.0,0.0,0.0,0.0,0.0,0.0,0.0,0.0,0.0,0.0,0.0,0.0,0.0,0.0,0.0,0.0,0.0,0.0,0.0,-5.0546,-5.1522,0.0,-5.1024,-5.145,-5.2127,-5.302,-5.3368,-5.4029,-5.5142,-5.4931,-5.5116,-5.5844,-5.5695,-5.5699,-5.5887,-5.5778,-5.5703,-5.5703,-5.5703,-5.5703,-5.5703,-5.5703,-5.5703,-5.5645,-5.4511,-5.3722,-5.3087,-5.1606,-5.0815,-5.0404,-4.9444,-4.8173,-4.674,-4.5533,-4.442,-4.3515,0.0,0.0,0.0,0.0,-2.5061,-2.5818,-2.7008,-2.7886,-2.8885,-3.0229,-3.1226,-3.1965,-3.2383,-3.3785,-3.4811,-3.5115,-3.539,-3.5329,-3.4736,-3.3553,-3.3111,-3.3693,-3.2571,-3.2748,-3.4451,-3.4494,-3.4928,-3.5778,-3.5778,-3.5791,-3.5878,-3.589,-3.5924,-3.5974,-3.5996,-3.5925,-3.575,-3.5181,-3.405,-3.2648,-3.2353,-3.1927,-3.1352,0.0,0.0,0.0,0.0,0.0,0.0,0.0,0.0,0.0,0.0,0.0,0.0,0.0,0.0,0.0,0.0,0.0,0.0,0.0,0.0,0.0,0.0,0.0,0.0,0.0,0.0,0.0,0.0,0.0,0.0,0.0,0.0,0.0,0.0,0.0,-5.1836,-5.1835,-5.2868,-5.3236,-5.2369,-5.3066,-5.394,-5.481,-5.4888,-5.5376,-5.6547,-5.6059,-5.5948,-5.6393,-5.6242,-5.6097,-5.5967,-5.5836,-5.5738,-5.5703,-5.5703,-5.5703,-5.5703,-5.5703,-5.5703,-5.5665,-5.4857,-5.401,-5.3164,-5.2577,-5.1797,-5.0987,-5.0718,-4.9327,-4.7363,-4.6473,-4.5012,-4.3515,0.0,0.0,0.0,-2.4103,-2.4897,-2.5836,-2.7008,-2.7905,-2.8917,-3.0227,-3.1246,-3.221,-3.32,-3.417,-3.5085,-3.5936,-3.5195,-3.4717,-3.4734,-3.302,-3.2013,-3.2042,-3.2094,-3.287,-3.4516,-3.453,-3.4921,-3.5693,-3.5693,-3.5741,-3.5811,-3.5877,-3.5893,-3.5896,-3.5974,-3.5926,-3.5794,-3.5791,-3.5266,-3.436,-3.3499,-3.3126,-3.301,0.0,0.0,0.0,0.0,0.0,0.0,0.0,0.0,0.0,0.0,0.0,0.0,0.0,0.0,0.0,0.0,0.0,0.0,0.0,0.0,0.0,0.0,0.0,0.0,0.0,0.0,0.0,0.0,0.0,0.0,0.0,0.0,0.0,-5.0175,-5.1738,-5.2793,-5.2812,-5.4314,-5.5011,-5.4151,-5.4841,-5.5689,-5.6547,-5.6606,-5.6606,-5.6606,-5.6606,-5.6606,-5.6606,-5.639,-5.6242,-5.6097,-5.5959,-5.5836,-5.5703,-5.5703,-5.5703,-5.5703,-5.5703,-5.5703,-5.5665,-5.4876,-5.403,-5.3203,-5.3203,-5.2633,-5.1698,-5.0929,-4.9732,-4.8309,-4.7349,-4.5513,-4.3515,0.0,0.0,-2.3566,-2.4103,-2.5346,-2.6482,-2.7102,-2.8376,-2.9558,-3.0362,-3.18,-3.2896,-3.3329,-3.4731,-3.5733,-3.5975,-3.5192,-3.4947,-3.5522,-3.3331,-3.226,-3.2842,-3.4074,-3.4975,-3.5428,-3.5448,-3.5536,-3.5708,-3.5708,-3.572,-3.5733,-3.5805,-3.5851,-3.5896,-3.5974,-3.5952,-3.5878,-3.5827,-3.5626,-3.5266,-3.4386,-3.3654,-3.3078,0.0,0.0,0.0,0.0,0.0,0.0,0.0,0.0,0.0,0.0,0.0,0.0,0.0,0.0,0.0,0.0,0.0,0.0,0.0,0.0,0.0,0.0,0.0,0.0,0.0,0.0,0.0,0.0,0.0,0.0,0.0,-4.8599,-5.1096,-5.2651,-5.3864,-5.4824,-5.5448,-5.5952,-5.6141,-5.5902,-5.6107,-5.6333,-5.6586,-5.6606,-5.6606,-5.6606,-5.6606,-5.6606,-5.6606,-5.639,-5.6242,-5.6097,-5.5959,-5.5836,-5.5703,-5.5703,-5.5703,-5.5703,-5.5703,-5.5703,-5.5684,-5.5472,-5.4549,-5.3203,-5.3203,-5.2307,-5.0957,-5.1329,-5.0538,-4.9003,-4.7489,-4.5466,-4.3515,0.0,-2.3612,-2.3782,-2.5,-2.5988,-2.6841,-2.7581,-2.8781,-2.9807,-3.0378,-3.199,-3.3168,-3.3339,-3.461,-3.5458,-3.5468,-3.4997,-3.4595,-3.4337,-3.2883,-3.2558,-3.3747,-3.4752,-3.5472,-3.5827,-3.5846,-3.5803,-3.5736,-3.5736,-3.573,-3.5736,-3.582,-3.5856,-3.589,-3.5972,-3.5955,-3.5907,-3.5831,-3.5752,-3.565,-3.5151,-3.4647,-3.4168,-3.386,-3.3767,-3.3743,-3.3485,-3.3698,-3.402,-3.3563,0.0,0.0,0.0,0.0,0.0,0.0,0.0,0.0,0.0,0.0,0.0,0.0,0.0,0.0,0.0,0.0,0.0,0.0,0.0,0.0,0.0,0.0,0.0,0.0,-5.0363,-5.2441,-5.4562,-5.5099,-5.5584,-5.6483,-5.6596,-5.6591,-5.6602,-5.6593,-5.6606,-5.6606,-5.6606,-5.6606,-5.6606,-5.6606,-5.6606,-5.6606,-5.6497,-5.6323,-5.6097,-5.6027,-5.5898,-5.5703,-5.5703,-5.5703,-5.5703,-5.5703,-5.5703,0.0,-5.5703,-5.4741,-5.3203,-5.3203,-5.2172,0.0,0.0,0.0,0.0,0.0,-4.4936,-4.3515,0.0,-2.4171,-2.4296,-2.6263,-2.6686,-2.711,-2.8229,-2.9081,-2.9792,-3.0336,-3.1894,-3.2994,-3.3138,-3.3992,-3.4596,-3.4686,-3.4608,-3.3894,-3.2349,-3.2422,-3.3153,-3.4546,-3.4687,-3.5118,-3.5889,-3.5908,-3.5864,-3.5795,-3.5795,-3.581,-3.5782,-3.5846,-3.5883,-3.588,-3.5964,-3.5957,-3.5907,-3.5836,-3.5762,-3.5706,-3.5704,-3.5713,-3.562,-3.4917,-3.4748,-3.4781,-3.3988,-3.3824,-3.3964,-3.3867,0.0,0.0,0.0,0.0,0.0,0.0,0.0,0.0,0.0,0.0,0.0,0.0,0.0,0.0,0.0,0.0,0.0,0.0,0.0,0.0,0.0,0.0,0.0,0.0,-5.2406,-5.3469,-5.5747,-5.5642,-5.5642,-5.6484,-5.6597,-5.6591,-5.6602,-5.6593,-5.6606,-5.6606,-5.6606,-5.6606,-5.6606,0.0,0.0,0.0,0.0,-5.6448,-5.6097,-5.6097,-5.5967,-5.5703,-5.5703,-5.5703,-5.5703,-5.5703,-5.5703,-5.5703,-5.5703,-5.4741,-5.3203,-5.3203,-5.2162,-5.0659,-5.1212,-5.0044,-4.7788,-4.5629,-4.4268,0.0,0.0,-2.5406,-2.5602,-2.6454,-2.7145,-2.7756,-2.8304,-2.9081,-2.9792,-3.0336,-3.1362,-3.2093,-3.2243,-3.3095,-3.3932,-3.4647,-3.4061,-3.3518,-3.3178,-3.4413,-3.4993,-3.4617,-3.5263,-3.573,-3.59,-3.59,-3.5869,-3.5795,-3.5795,-3.578,-3.5722,-3.5724,-3.5772,-3.5821,-3.5897,-3.5936,-3.5972,-3.591,-3.5834,-3.5771,-3.5778,-3.5744,-3.5686,-3.5597,-3.6031,-3.6582,-3.5798,-3.6406,-3.748,-3.6651,-3.6384,-3.6478,-3.7051,-3.6856,0.0,0.0,0.0,0.0,0.0,0.0,0.0,0.0,0.0,0.0,0.0,0.0,0.0,0.0,0.0,0.0,0.0,0.0,0.0,-5.1014,-5.2941,-5.4553,-5.5147,-5.5727,-5.6173,-5.6411,-5.6523,-5.6591,-5.6602,-5.6593,-5.6606,-5.6606,-5.6606,-5.6606,-5.6606,-5.6606,0.0,-5.6606,-5.6606,-5.6448,-5.6097,-5.6097,-5.5967,-5.5703,0.0,0.0,-5.5703,-5.5703,-5.5703,-5.5703,-5.5703,-5.4741,-5.3203,-5.3203,-5.2141,-5.0478,-5.0016,-4.8735,-4.702,-4.6037,-4.4745,-4.3515,-2.6699,-2.631,-2.6175,-2.7391,-2.7709,-2.8046,-2.8735,-2.9289,-2.9741,-3.0161,-3.1108,-3.1799,-3.1939,-3.2404,-3.2898,-3.3351,-3.3007,-3.3119,-3.3992,-3.4827,-3.5288,-3.5249,-3.5675,-3.5908,-3.5908,-3.5908,-3.5875,-3.5859,-3.5859,-3.5838,-3.5803,-3.5802,-3.5827,-3.5853,-3.5914,-3.5951,-3.5957,-3.5917,-3.5886,-3.5848,-3.5808,-3.58,-3.58,-3.5836,-3.6438,-3.7143,-3.6308,-3.6836,-3.7792,-3.6781,-3.6743,-3.7229,-3.798,-3.8199,-3.8295,0.0,0.0,0.0,0.0,0.0,0.0,0.0,0.0,0.0,0.0,0.0,0.0,0.0,0.0,-4.9126,-4.9571,0.0,-5.197,-5.3238,-5.4213,-5.4979,-5.5528,-5.5998,-5.6355,-5.6482,-5.656,-5.6609,-5.6595,-5.6608,-5.6606,-5.6606,-5.6606,-5.6606,-5.6606,-5.6606,-5.6606,-5.6606,-5.6606,-5.6448,-5.6097,-5.6097,-5.5967,-5.5703,-5.5703,-5.5703,-5.5703,-5.5703,-5.5703,-5.5703,-5.5703,-5.4741,-5.3135,-5.2268,-5.1341,-5.041,-4.9441,-4.8169,-4.6817,-4.6167,-4.4874,-4.3515,-2.777,-2.7063,-2.6759,-2.8396,-2.8321,-2.8316,-2.9169,-2.9484,-2.9706,-2.9969,-3.0867,-3.1507,-3.1635,-3.1707,-3.1841,-3.2074,-3.2417,-3.3203,-3.4602,-3.4856,-3.5238,-3.5895,-3.5904,-3.5902,-3.5902,-3.5894,-3.5906,-3.59,-3.59,-3.5897,-3.5872,-3.588,-3.5899,-3.5901,-3.5958,-3.5952,-3.5917,-3.5919,-3.5914,-3.5906,-3.5868,-3.5955,-3.6136,-3.5973,-3.6498,-3.7207,-3.6504,-3.6699,-3.7167,-3.6333,-3.6529,-3.7222,-3.7991,-3.881,-3.9507,-3.9493,-3.9629,0.0,0.0,0.0,0.0,0.0,0.0,0.0,0.0,-4.6515,-4.7695,-4.8024,-4.9861,-5.1621,-5.2318,-5.2724,-5.3556,-5.547,-5.5354,-5.5304,-5.6097,-5.6266,-5.635,-5.6543,-5.6576,-5.6607,-5.6608,-5.6608,-5.6608,-5.6606,-5.6606,-5.6606,-5.6606,-5.6606,-5.6606,-5.6606,-5.6606,-5.6455,-5.6141,-5.611,-5.5982,-5.5728,-5.5705,-5.5703,-5.5703,-5.5703,-5.5703,-5.5684,-5.5357,-5.4453,-5.3058,-5.1325,-5.0563,-5.0383,-4.9167,-4.7961,-4.6813,-4.6032,-4.4798,-4.3515,0.0,-2.7798,-2.8079,-2.8833,-2.892,-2.8956,-2.9262,-2.9523,-2.9769,-2.9969,-3.0374,-3.066,-3.0741,-3.0812,-3.1188,-3.2028,-3.3514,-3.4492,-3.4699,-3.5422,-3.5891,-3.5987,-3.5931,-3.5898,-3.5898,-3.5907,-3.5897,-3.5908,-3.5908,-3.5868,-3.5811,-3.5807,-3.5846,-3.5892,-3.5912,-3.5937,-3.5988,-3.5984,-3.595,-3.589,-3.5958,-3.6404,-3.6989,-3.6256,-3.6521,-3.7285,-3.7187,-3.7226,-3.7264,-3.7032,-3.7013,-3.7248,-3.8035,-3.8844,-3.9493,-3.95,-4.0039,-4.0623,-4.0545,-4.0584,-4.1067,-4.2744,-4.3808,-4.5058,0.0,-4.872,-4.9823,-5.1312,-5.2472,-5.3246,-5.3343,-5.4561,-5.5432,-5.5006,-5.547,-5.5935,-5.6175,-5.6266,-5.6335,-5.6408,-5.6523,-5.6607,-5.6608,-5.6595,-5.6596,-5.6606,-5.6606,-5.6606,-5.6606,-5.6606,-5.6606,-5.6606,-5.6606,-5.6497,-5.6275,-5.6158,-5.6035,-5.588,-5.5758,-5.5703,-5.5703,-5.5703,-5.5703,-5.5607,-5.4126,-5.3376,-5.3068,-5.1375,-5.0623,-5.0383,-4.9165,-4.7964,-4.6768,-4.568,-4.4522,-4.3515,0.0,-2.7897,-2.8237,-2.8688,-2.8893,-2.904,-2.9104,-2.9445,-2.9734,-2.9807,-3.0157,-3.0416,-3.0527,-3.0633,-3.087,-3.1317,-3.294,-3.3941,-3.3945,-3.5234,-3.5995,-3.5991,-3.5966,-3.5962,-3.5962,-3.5919,-3.5897,-3.5907,-3.5907,-3.5883,-3.5869,-3.589,-3.6183,-3.666,-3.6698,-3.6992,-3.7459,-3.7411,-3.7435,-3.7468,-3.7423,-3.7643,-3.7985,-3.7647,-3.7417,-3.7224,-3.6737,-3.6836,0.0,-3.6594,-3.6693,-3.7199,-3.8034,-3.8504,-3.8946,-3.9971,-4.051,-4.0919,-4.142,-4.2303,-4.3129,-4.3352,-4.5186,-4.7333,-4.887,-5.0257,-5.1392,-5.2063,-5.3672,-5.4658,-5.3672,-5.4871,-5.607,-5.6225,-5.6109,-5.6241,-5.6925,-5.6597,-5.6338,-5.6454,-5.6542,-5.6609,-5.6596,-5.6595,-5.6591,-5.6606,-5.6606,-5.6606,-5.6606,-5.6606,-5.6606,-5.6606,-5.6606,-5.6503,-5.6292,-5.6164,-5.6022,-5.5907,-5.5749,-5.5703,-5.5703,-5.5703,-5.5703,-5.5607,-5.3933,-5.3203,-5.3068,-5.1395,-5.0623,-5.0355,-4.8879,-4.7707,-4.6768,-4.5634,-4.4482,-4.3515,0.0,-2.801,-2.8334,-2.8669,-2.887,-2.9005,-2.9005,-2.9395,-2.9697,-2.9696,-3.0073,-3.0375,-3.0487,-3.0617,-3.0722,-3.0768,-3.2163,-3.315,-3.3375,-3.4801,-3.574,-3.5996,-3.5995,-3.5994,-3.5994,-3.6178,-3.6265,-3.6265,-3.65,-3.6618,-3.6618,-3.6674,-3.7008,-3.7551,-3.7636,-3.7985,-3.8514,-3.8441,-3.8471,-3.8588,-3.8451,-3.8484,-3.8579,-3.8329,-3.7705,-3.6886,-3.65,-3.6562,-3.6705,-3.5839,-3.6024,-3.6708,-3.7122,-3.752,-3.8185,-3.9926,-4.0773,-4.1298,-4.1939,-4.3208,-4.4342,-4.4224,-4.641,-4.8866,-4.9912,-5.1283,-5.2459,-5.2887,-5.4247,-5.5079,-5.4092,-5.4881,-5.5988,-5.6831,-5.6433,-5.6381,-5.7399,-5.6849,-5.6352,-5.6469,-5.6543,-5.6609,-5.6605,-5.6598,-5.6593,-5.6606,-5.6606,-5.6606,-5.6606,-5.6606,-5.6606,-5.6606,-5.6606,-5.6528,-5.6383,-5.62,-5.6044,-5.5943,-5.5779,-5.5703,-5.5703,-5.5703,-5.5703,-5.5607,-5.3933,-5.3203,-5.3068,-5.1365,-5.0594,-5.0327,-4.863,-4.7538,-4.6745,-4.5447,-4.436,-4.3515,0.0,0.0,-2.8682,-2.894,-2.8994,-2.9005,-2.9005,-2.9397,-2.9705,-2.9705,-3.0107,-3.0411,-3.0487,-3.0617,-3.0691,-3.0691,-3.1586,-3.25,-3.3339,-3.4238,-3.5117,-3.5955,-3.5991,-3.5995,-3.5995,-3.6756,-3.7162,-3.7162,-3.8003,-3.8414,-3.8415,-3.8418,-3.8436,-3.8455,-3.8522,-3.8573,-3.8591,-3.8463,-3.8471,-3.8588,-3.8441,-3.8473,-3.8513,-3.7654,-3.6794,-3.6151,-3.6965,-3.6699,-3.5806,-3.4936,-3.5123,-3.5612,-3.4854,-3.5674,-3.7282,-3.9021,-4.0743,-4.2061,-4.2092,-4.2795,-4.3923,-4.5521,-4.727,-4.9032,-5.0672,-5.174,-5.2886,-5.4576,-5.4304,-5.4013,-5.4809,-5.4943,-5.5195,-5.6009,-5.6114,-5.6412,-5.7285,-5.6821,-5.6403,-5.6391,-5.6522,-5.6605,0.0,-5.6592,-5.6606,-5.6606,-5.6606,-5.6606,-5.6606,-5.6606,-5.6606,-5.6606,-5.6606,-5.6604,-5.6584,-5.6256,-5.6097,-5.6084,-5.5827,-5.5703,-5.5703,-5.5703,-5.5703,-5.5607,-5.3933,-5.3203,-5.3058,-5.1315,-5.0553,-5.0327,-4.8588,-4.749,-4.6703,-4.504,-4.4026,-4.3515,0.0,0.0,0.0,-2.8718,-2.8881,-2.9005,-2.9005,-2.9304,-2.9542,-2.9687,-3.0114,0.0,0.0,0.0,0.0,0.0,-3.1486,-3.2155,-3.2446,-3.3875,-3.4822,-3.5115,-3.6254,-3.6862,-3.6862,-3.7654,-3.8066,-3.8066,-3.8359,-3.8496,-3.8496,-3.8452,-3.8773,-3.9359,-3.9252,-3.9562,-4.0179,-3.9989,-4.0305,-4.0813,-3.9618,-3.9558,-4.0048,-3.8678,-3.7614,-3.6891,0.0,-3.6327,-3.4989,-3.4693,-3.5096,-3.5663,-3.5488,-3.573,-3.6677,-3.9583,-4.1252,-4.2427,-4.3569,-4.4977,-4.6089,-4.6134,-4.828,-5.0529,-5.1049,-5.1389,-5.1767,-5.2309,-5.2634,-5.2738,-5.2414,-5.3301,-5.4737,-5.6652,-5.6514,-5.6699,-5.8182,-5.8242,-5.7714,-5.6604,-5.7012,0.0,0.0,0.0,0.0,-5.6606,-5.6606,-5.6606,-5.6606,-5.6606,-5.6606,-5.6606,-5.6606,-5.6606,-5.6606,-5.6276,-5.6097,-5.6091,-5.5836,-5.5703,-5.5703,-5.5703,-5.5415,-5.4838,-5.3703,-5.2876,-5.225,-5.1084,-5.0572,-5.0287,-4.8346,-4.7283,-4.6688,-4.4823,-4.3876,-4.3515,0.0,0.0,0.0,0.0,0.0,0.0,0.0,0.0,0.0,0.0,0.0,0.0,0.0,0.0,0.0,0.0,0.0,-3.1635,-3.1946,-3.3052,-3.3986,-3.461,-3.5392,-3.6111,-3.6711,-3.7225,-3.7798,-3.844,-3.8733,-3.9043,-3.9314,-3.9273,-3.9572,-4.0157,-4.0027,-4.0317,-4.0926,-4.0762,-4.1056,-4.15,-4.0048,-3.9688,-3.9889,-3.8571,-3.7342,0.0,-3.636,-3.5619,-3.4628,-3.4618,-3.5112,-3.5756,-3.5846,-3.6853,-3.8404,-4.0339,-4.1956,-4.3374,-4.4494,-4.5857,-4.7007,-4.7108,-4.9001,-5.0903,-5.1161,-5.123,-5.122,-5.1185,-5.1627,-5.1825,-5.1198,-5.229,-5.398,-5.6156,-5.6343,-5.686,-5.8622,-5.8695,-5.8168,-5.7086,-5.7187,-5.7135,0.0,0.0,0.0,-5.6606,-5.6606,-5.6606,-5.6606,-5.6606,-5.6606,-5.6606,-5.6606,-5.6606,-5.6606,-5.6276,-5.6044,-5.5951,-5.5779,-5.5703,-5.5703,-5.5703,-5.5261,-5.4453,-5.3587,-5.2712,-5.1827,-5.0929,-5.0532,-5.0287,-4.821,-4.7197,-4.6655,-4.4721,-4.3798,-4.3515,0.0,0.0,0.0,0.0,0.0,0.0,0.0,0.0,0.0,0.0,0.0,0.0,0.0,0.0,0.0,0.0,0.0,0.0,-3.1778,-3.1879,-3.264,-3.4295,-3.3697,-3.4062,-3.5678,-3.5788,-3.6646,-3.8309,-3.9125,-3.9921,-4.0674,-4.067,-4.067,-4.0674,-4.0665,-4.068,-4.0718,-4.0607,-4.0657,-4.0709,-3.9677,-3.8891,-3.8212,-3.7439,-3.6159,-3.4742,-3.4908,-3.4925,-3.4874,-3.4726,-3.5231,-3.5953,-3.6033,-3.8855,-4.1995,-4.1256,-4.2819,-4.4813,-4.4852,-4.5585,-4.6725,-4.8397,-4.943,-5.0287,-5.1106,-5.1222,-5.1164,-5.1164,-5.1164,-5.1148,-5.1084,-5.1809,-5.2997,-5.4696,-5.5728,-5.6914,-5.8623,-5.8334,-5.7902,-5.7809,-5.7069,-5.6577,-5.6602,-5.6593,0.0,-5.6606,0.0,-5.6606,-5.6606,-5.6606,-5.6606,-5.6606,-5.6606,-5.6606,-5.6606,-5.6276,-5.5967,-5.5703,-5.5703,-5.5703,-5.5703,-5.5665,-5.5203,-5.4376,-5.351,-5.2635,-5.1759,-5.0869,-5.0462,-5.0219,-4.818,-4.7143,-4.6617,-4.4687,-4.3781,-4.3515,0.0,0.0,0.0,0.0,0.0,0.0,0.0,0.0,0.0,0.0,0.0,0.0,0.0,0.0,0.0,0.0,0.0,0.0,-3.0847,-3.1515,-3.2096,-3.2543,-3.4159,-3.5271,-3.5694,-3.6961,-3.7859,-3.8302,-3.8516,-3.873,-3.8939,-3.884,-3.8845,-3.8935,-3.8779,-3.909,-3.9716,-3.8981,-3.9422,-4.0409,-3.8368,-3.7785,-3.8139,-3.8084,-3.7392,-3.6635,-3.8011,-3.8103,-3.7407,-3.6035,-3.6572,-3.8028,-3.9273,-4.0454,-4.158,-4.2613,-4.3837,-4.5016,-4.5678,-4.6968,-4.8241,-4.869,-4.9898,-5.1028,-5.1242,-5.0326,-4.943,-4.943,-4.943,-4.9418,-4.9347,-5.0577,-5.2567,-5.5542,-5.6251,-5.7264,-5.9581,-5.9763,-5.9195,-5.7953,-5.7597,-5.7239,-5.6651,-5.6606,0.0,0.0,-5.6606,-5.6606,-5.6606,-5.6606,-5.6606,-5.6606,-5.6606,-5.6606,-5.6606,-5.6276,-5.5967,-5.5703,-5.5703,-5.5703,-5.5684,-5.5068,-5.4337,-5.3491,-5.2596,-5.1779,-5.0981,-5.0649,-5.0127,-4.9365,-4.7693,-4.6605,-4.5819,-4.4214,-4.3565,-4.3515,0.0,0.0,0.0,0.0,0.0,0.0,0.0,0.0,0.0,0.0,0.0,0.0,0.0,0.0,0.0,0.0,0.0,0.0,0.0,-3.184,-3.2339,-3.2339,-3.3703,-3.4831,-3.56,-3.6922,-3.76,-3.76,-3.8355,-3.8548,-3.8181,-3.8099,-3.8105,-3.8156,-3.8053,-3.8289,-3.8749,-3.8217,-3.8546,0.0,0.0,-3.743,-3.7546,-3.8069,-3.7763,-3.7242,-3.8663,-3.9162,-3.9023,-3.8393,-3.8828,-3.9819,-4.0759,-4.183,-4.2942,-4.3882,-4.4788,-4.5585,-4.607,-4.7189,-4.8319,-4.869,-4.9761,-5.0735,-5.0735,-4.9722,-4.869,-4.83,-4.8534,-4.8776,-4.8705,-5.0123,-5.2156,-5.4794,-5.5935,-5.7258,-5.9397,-5.97,-5.9381,-5.8447,-5.7689,-5.705,-5.6607,-5.6575,-5.6606,0.0,-5.6606,-5.6606,-5.6606,-5.6606,-5.6606,-5.6606,-5.6606,-5.6525,-5.6383,-5.6189,-5.5967,-5.5703,-5.5703,-5.5511,-5.5164,-5.4703,-5.3818,-5.2596,0.0,-5.1432,-5.0643,-5.0542,-4.9972,-4.9015,-4.7486,-4.6402,-4.5523,-4.4042,-4.3515,-4.3515,0.0,0.0,0.0,0.0,0.0,0.0,0.0,0.0,0.0,0.0,0.0,0.0,0.0,0.0,0.0,0.0,0.0,0.0,0.0,0.0,-3.2891,-3.2891,-3.3006,-3.3776,-3.5288,-3.6115,-3.6538,-3.6538,-3.8065,-3.8411,-3.7661,-3.7661,-3.7661,-3.7661,-3.7661,-3.7738,-3.7815,-3.7719,-3.7796,-3.7988,-3.7873,-3.745,-3.6964,0.0,-3.7898,-3.7471,-3.8426,-3.928,-4.0093,-4.0855,-4.1178,-4.1307,-4.1542,-4.3122,-4.4935,-4.5033,-4.5687,-4.6362,-4.6378,-4.7086,-4.8018,-4.8771,-4.9488,-4.9995,-4.9995,-4.9294,-4.8417,-4.7657,-4.8183,-4.8776,-4.8714,-5.0127,-5.1841,-5.3464,-5.5088,-5.6762,-5.849,-5.87,-5.871,-5.8825,-5.7457,-5.65,-5.6502,-5.6564,-5.6606,-5.6606,-5.6606,-5.6606,-5.6606,-5.6606,-5.6606,-5.6606,-5.658,-5.6418,-5.6097,-5.6078,-5.5962,-5.5703,-5.5588,-5.5184,-5.4491,-5.426,-5.3337,-5.1885,0.0,0.0,-5.0603,-5.0532,-4.9893,-4.8829,-4.7494,-4.6389,-4.5373,-4.4054,-4.3549,-4.3478,0.0,0.0,0.0,0.0,0.0,0.0,0.0,0.0,0.0,0.0,-3.3013,-3.2699,0.0,0.0,0.0,0.0,0.0,0.0,0.0,0.0,0.0,-3.2891,-3.3583,-3.4129,-3.441,-3.5276,-3.5712,-3.5712,-3.6,-3.6077,-3.5923,-3.5923,-3.5923,-3.5923,-3.5923,-3.6308,-3.6885,-3.6212,-3.6738,-3.793,-3.7219,-3.7276,-3.7868,-3.8827,0.0,0.0,-4.027,-4.0732,-4.0894,-4.1051,-4.1579,-4.2424,-4.3864,-4.4628,-4.5117,-4.5775,-4.659,-4.727,-4.7279,-4.844,-4.9661,-4.9772,-4.9898,-4.9995,-4.9995,-4.8826,-4.7676,-4.7521,-4.8183,-4.8806,-4.8779,-5.0166,-5.1857,-5.3598,-5.4132,-5.5173,-5.7565,-5.7355,-5.719,-5.7924,-5.7124,-5.65,-5.6502,-5.6564,0.0,0.0,0.0,-5.6606,-5.6606,-5.6606,-5.6606,-5.6606,-5.6443,-5.6281,-5.6097,-5.599,-5.5854,-5.5684,-5.503,-5.4645,-5.4453,-5.301,-5.2192,-5.1865,0.0,0.0,-5.0663,-5.0542,-4.9599,-4.8139,-4.7542,-4.621,-4.458,-4.4085,-4.3732,-4.3387,0.0,0.0,0.0,0.0,0.0,0.0,0.0,-3.2522,-3.391,-3.5909,-3.6199,-3.5892,-3.4988,-3.4507,-3.443,0.0,0.0,0.0,0.0,0.0,0.0,0.0,-3.441,-3.4872,-3.4872,-3.6142,-3.6365,-3.55,0.0,-3.6346,-3.55,-3.55,-3.55,-3.55,-3.55,-3.5712,-3.6058,-3.5654,-3.6212,-3.7334,-3.7353,-3.7623,-3.813,0.0,0.0,0.0,-4.085,-4.1072,-4.1109,-4.1109,-4.1674,-4.2554,-4.3385,-4.4266,-4.5167,-4.6015,-4.6836,-4.7596,-4.8052,-4.9121,-5.0088,-5.0068,-5.0056,-4.9933,-4.9476,-4.8397,-4.7365,-4.692,-4.7521,-4.8261,-4.8729,-4.98,-5.1183,-5.2937,-5.3599,-5.4632,-5.678,-5.6741,-5.6807,-5.7654,-5.7019,-5.6507,-5.6503,-5.6539,-5.6564,-5.6606,0.0,-5.6606,-5.6606,-5.6606,-5.6606,-5.6606,-5.639,-5.6242,-5.6097,-5.5959,-5.5624,-5.5068,-5.4684,-5.403,-5.3126,-5.2269,-5.1673,-5.1241,-5.0856,0.0,-5.0633,-5.0542,-4.9493,-4.7907,-4.754,-4.6253,-4.4559,-4.4151,-4.3894,-4.3621,0.0,0.0,0.0,0.0,0.0,0.0,0.0,-3.3489,-3.5239,-3.8146,-3.913,-3.9104,-3.7923,-3.6904,-3.6423,0.0,0.0,0.0,0.0,0.0,0.0,0.0,0.0,-3.55,-3.55,0.0,0.0,-3.575,-3.7257,0.0,0.0,0.0,0.0,0.0,-3.6038,-3.6038,-3.6038,-3.6038,-3.65,0.0,0.0,-3.8373,0.0,0.0,0.0,0.0,0.0,-4.1014,-4.1078,-4.1078,-4.153,-4.2123,-4.2123,-4.3313,-4.4898,-4.5773,-4.6733,-4.7712,-4.8573,-4.9568,-5.0385,-5.0381,-5.01,-4.9642,-4.8967,-4.7983,-4.7028,-4.6333,-4.6898,-4.7768,-4.8635,-4.9469,-5.0502,-5.208,-5.2898,-5.3896,-5.5451,-5.5833,-5.6258,-5.7069,-5.6767,-5.6493,-5.6494,-5.6504,0.0,-5.6608,0.0,0.0,-5.6606,-5.6606,-5.6606,-5.6606,-5.62,-5.6027,-5.6097,-5.5578,-5.5046,-5.4491,-5.4126,-5.3241,-5.1885,-5.1712,-5.1298,-5.0712,-5.0712,0.0,0.0,-5.035,-4.933,-4.7907,-4.7422,-4.6251,-4.4751,-4.4265,-4.4048,-4.3809,0.0,0.0,0.0,0.0,0.0,0.0,0.0,-3.4393,-3.6339,-3.9808,-4.0342,-4.0623,-4.125,-3.9912,-3.8334,0.0,0.0,0.0,0.0,0.0,0.0,0.0,0.0,0.0,0.0,0.0,0.0,-3.6596,-3.7546,0.0,0.0,0.0,0.0,0.0,0.0,-3.7777,-3.7777,-3.7777,0.0,0.0,0.0,0.0,0.0,0.0,0.0,0.0,0.0,-4.0898,-4.1,-4.1,-4.1096,-4.1226,-4.1226,-4.2417,-4.3998,-4.4857,-4.6284,-4.7772,-4.8571,-5.0019,-5.1289,-5.1283,-5.0087,-4.8896,-4.8815,-4.7507,-4.6293,-4.6228,-4.6884,-4.7769,-4.8642,-4.9469,-5.0307,-5.1261,-5.1495,-5.1865,-5.283,-5.3634,-5.4457,-5.5324,-5.6066,-5.6493,-5.6495,-5.6558,-5.6589,-5.6606,0.0,0.0,-5.6606,-5.6606,-5.6606,-5.6606,-5.5575,-5.5378,-5.6097,-5.4338,-5.38,-5.4472,-5.2895,-5.2058,-5.1885,-5.1144,-5.077,-5.0712,0.0,0.0,0.0,-4.9768,-4.8893,-4.7991,-4.7035,-4.5935,-4.4849,-4.4493,-4.4206,-4.3735,0.0,0.0,0.0,0.0,0.0,0.0,-3.3437,-3.4691,-3.6795,-4.075,-4.1277,-4.1797,-4.3162,-4.2277,-4.0681,-3.845,0.0,0.0,0.0,0.0,0.0,0.0,0.0,0.0,0.0,0.0,-3.7738,-3.8257,-3.8084,0.0,0.0,0.0,0.0,0.0,0.0,-3.8007,-3.8007,-3.8007,0.0,0.0,0.0,0.0,0.0,0.0,0.0,0.0,0.0,0.0,-4.089,-4.0977,-4.1028,-4.1054,-4.1083,-4.1578,-4.2417,-4.3801,-4.5812,-4.7785,-4.8577,-5.0064,-5.1396,-5.1406,-5.0097,-4.8808,-4.8803,-4.7454,-4.6202,-4.6195,-4.6882,-4.776,-4.8641,-4.9452,-5.0287,-5.1164,-5.13,-5.16,-5.248,-5.2894,-5.3646,-5.5034,-5.5511,-5.5913,-5.6455,0.0,-5.6566,0.0,0.0,0.0,-5.6606,-5.6606,-5.6606,-5.6606,-5.556,-5.5144,-5.5385,-5.4017,-5.3186,-5.2933,-5.2231,-5.1654,-5.1164,-5.0846,-5.0712,-5.0712,0.0,0.0,0.0,-4.9701,-4.8826,-4.8001,-4.6989,-4.6035,-4.5154,-4.4782,-4.4271,-4.3533,0.0,0.0,0.0,0.0,0.0,-3.1718,-3.3616,-3.4801,-3.6923,-4.0893,-4.1412,-4.2066,-4.3758,-4.3201,-4.2104,-4.0566,-3.8604,0.0,0.0,0.0,0.0,0.0,0.0,0.0,0.0,0.0,-3.9046,-3.965,-3.9565,-3.9815,0.0,0.0,-3.9123,-3.9104,0.0,0.0,0.0,0.0,0.0,0.0,0.0,0.0,0.0,0.0,0.0,0.0,0.0,0.0,0.0,0.0,0.0,-4.0954,-4.1037,-4.1072,-4.1367,-4.2861,-4.4797,-4.6749,-4.8076,-4.9501,-5.0697,-5.0947,-4.9896,-4.8745,-4.8496,-4.7304,-4.623,-4.6229,-4.6905,-4.7769,-4.8647,-4.9477,-5.0306,-5.1168,-5.13,-5.1499,-5.2122,-5.2442,-5.3058,-5.4286,-5.4655,-5.5159,-5.6025,-5.6367,-5.6549,0.0,0.0,0.0,0.0,-5.6352,-5.6216,-5.6216,-5.4986,-5.4392,-5.4511,-5.3274,-5.2391,-5.1904,-5.1654,-5.1241,-5.0712,-5.0712,-5.0712,-5.0693,0.0,0.0,0.0,-4.9058,-4.8251,-4.7617,-4.6626,-4.5897,-4.5348,-4.4957,-4.4277,-4.3414,0.0,0.0,0.0,0.0,0.0,0.0,-3.3632,-3.4801,-3.6719,-4.0073,-4.0516,-4.1189,-4.2912,-4.2335,-4.2162,-4.2989,-4.0739,0.0,0.0,0.0,0.0,0.0,0.0,0.0,0.0,0.0,-4.0477,-4.0496,-4.22,-4.3047,-4.3047,-4.2181,-4.175,-4.1712,0.0,0.0,0.0,0.0,0.0,0.0,0.0,0.0,0.0,0.0,0.0,0.0,0.0,0.0,0.0,0.0,0.0,0.0,0.0,-4.0994,-4.1181,-4.213,-4.304,-4.4309,-4.6903,-4.8213,-4.9032,-4.9889,-4.9442,-4.8584,-4.7783,-4.6924,-4.6308,-4.6305,-4.6932,-4.7773,-4.8636,-4.9501,-5.0366,-5.1172,-5.13,-5.1303,-5.1313,-5.2058,-5.2609,-5.262,-5.3387,-5.4262,-5.5128,-5.6048,0.0,0.0,0.0,0.0,0.0,-5.5786,-5.532,-5.532,-5.3511,-5.2879,-5.3617,-5.1828,-5.1241,-5.1885,-5.1087,-5.0712,-5.0712,-5.0712,-5.0712,0.0,0.0,0.0,0.0,-4.7605,-4.6876,-4.6714,-4.5784,-4.5409,-4.5348,-4.4957,-4.4277,-4.3426,0.0,0.0,0.0,0.0,0.0,0.0,0.0,-3.4903,-3.65,-3.9304,-3.9688,-4.0554,-4.2854,-4.2854,-4.2797,-4.3085,-4.1258,0.0,0.0,0.0,0.0,0.0,0.0,0.0,0.0,-4.0816,-4.1681,-4.2277,-4.2835,-4.3374,-4.3893,-4.3066,-4.2701,-4.2643,-4.1777,-4.1393,0.0,0.0,0.0,0.0,0.0,0.0,0.0,0.0,0.0,0.0,0.0,0.0,0.0,0.0,0.0,0.0,0.0,0.0,0.0,-4.1368,-4.2512,-4.3879,-4.4719,-4.6436,-4.8055,-4.8328,-4.8172,-4.7918,-4.7664,-4.6924,-4.6303,-4.6291,-4.7415,-4.8476,-4.8755,-4.9965,-5.0993,-5.125,-5.13,-5.1308,-5.1307,-5.2048,-5.2815,-5.3416,-5.4779,-5.5796,0.0,0.0,0.0,0.0,0.0,0.0,0.0,-5.4888,-5.4674,-5.5281,-5.3567,-5.2664,-5.271,-5.1554,-5.1014,-5.1087,-5.0827,-5.0712,-5.0712,-5.0712,0.0,0.0,0.0,0.0,0.0,-4.7299,-4.6829,-4.6714,-4.5764,-4.5399,-4.5369,-4.5205,-4.4255,-4.2984,0.0,0.0,0.0,0.0,0.0,0.0,0.0,-3.4949,-3.6288,-3.8527,-3.8815,-3.9777,-4.2335,-4.2604,-4.2854,-4.3508,-4.2566,0.0,0.0,0.0,0.0,0.0,0.0,0.0,-4.0969,-4.1835,-4.272,-4.3547,-4.3874,-4.4297,-4.4759,-4.3932,-4.3547,-4.3508,-4.2316,-4.1788,0.0,0.0,0.0,0.0,0.0,0.0,0.0,0.0,0.0,0.0,0.0,0.0,0.0,0.0,0.0,0.0,0.0,0.0,0.0,0.0,-4.1763,-4.2904,-4.3915,-4.5382,-4.6786,-4.743,-4.7606,-4.7508,-4.7178,-4.669,-4.63,-4.63,-4.7386,-4.8337,-4.8315,-4.9708,-5.0835,-5.0805,-5.1086,-5.13,-5.13,-5.1762,-5.2435,-5.3311,-5.496,0.0,0.0,0.0,0.0,0.0,0.0,0.0,0.0,-5.4166,-5.3756,-5.4305,-5.2956,-5.2084,-5.181,-5.128,-5.0903,-5.0712,-5.0712,-5.0539,-5.0212,-5.0212,0.0,0.0,0.0,0.0,0.0,-4.6703,-4.633,-4.6206,-4.563,-4.537,-4.531,-4.4944,-4.3959,-4.2736,0.0,0.0,0.0,0.0,0.0,0.0,0.0,-3.4988,-3.6096,-3.7777,-3.8007,-3.895,-4.145,-4.1808,-4.2527,-4.4085,0.0,0.0,0.0,0.0,0.0,0.0,0.0,0.0,-4.1865,-4.2739,-4.3547,-4.4297,-4.5171,-4.5594,-4.5575,-4.4759,-4.4393,-4.4316,-4.2643,-4.1865,0.0,0.0,0.0,0.0,0.0,0.0,0.0,0.0,0.0,0.0,0.0,0.0,0.0,0.0,0.0,0.0,0.0,0.0,0.0,0.0,0.0,0.0,0.0,-4.4891,-4.5303,-4.7001,-4.745,-4.7295,-4.6475,-4.63,0.0,-4.63,-4.6983,-4.7602,-4.7595,-4.8977,-5.0095,-5.0098,-5.0778,-5.13,-5.13,-5.1417,-5.1811,-5.2676,-5.4279,0.0,-5.5286,0.0,0.0,0.0,0.0,0.0,0.0,0.0,-5.2665,-5.2607,-5.1824,-5.1284,-5.102,-5.1008,-5.0891,-5.0712,-5.0635,-5.0183,-4.9394,-4.9336,0.0,0.0,0.0,0.0,0.0,-4.5932,-4.5513,-4.54,-4.54,-4.5322,-4.5105,-4.4293,-4.3452,-4.2584,0.0,0.0,0.0,0.0,0.0,0.0,0.0,0.0,0.0,0.0,-3.8007,-3.8719,-4.0612,-4.2008,-4.2951,0.0,0.0,0.0,0.0,0.0,0.0,0.0,0.0,0.0,-4.2777,-4.3605,-4.4105,-4.4297,-4.5171,-4.5594,-4.5594,-4.5402,-4.5287,-4.5229,-4.3547,-4.2431,0.0,0.0,0.0,0.0,0.0,0.0,0.0,0.0,0.0,0.0,-4.0496,-4.0496,0.0,0.0,0.0,0.0,0.0,0.0,0.0,0.0,-4.0858,-4.1425,-4.3392,0.0,-4.425,-4.5343,-4.6105,-4.6554,0.0,-4.63,-4.63,-4.63,-4.6983,-4.7774,-4.8378,-4.9373,-5.0297,-5.0903,-5.1174,-5.13,-5.13,-5.245,-5.3614,-5.4484,-5.5535,-5.619,-5.6191,0.0,0.0,0.0,0.0,0.0,0.0,0.0,-5.2392,-5.1726,-5.1511,-5.1325,-5.115,-5.1053,-5.0946,-5.083,-5.0065,-4.9606,-4.9375,-4.8702,0.0,0.0,0.0,0.0,-4.5893,-4.5627,-4.5466,-4.54,-4.54,-4.4957,-4.4274,-4.4083,-4.308,-4.1781,0.0,0.0,0.0,0.0,0.0,0.0,0.0,0.0,0.0,0.0,0.0,0.0,0.0,0.0,0.0,0.0,0.0,0.0,0.0,0.0,0.0,0.0,0.0,-4.2797,-4.3624,-4.4085,-4.4489,-4.4893,-4.5364,-4.5594,-4.5594,-4.5594,-4.5594,-4.5537,-4.422,-4.3181,0.0,0.0,0.0,0.0,0.0,0.0,0.0,0.0,0.0,0.0,-4.0496,-4.0496,0.0,-4.0496,-4.0496,-4.0496,0.0,0.0,0.0,0.0,-4.0729,-4.1163,-4.2533,-4.3596,-4.4602,-4.5888,-4.6554,-4.6905,-4.6905,-4.6593,-4.63,-4.63,-4.6671,-4.7147,-4.7575,-4.8672,-4.9643,-5.0078,-5.0792,-5.1447,-5.185,-5.3054,-5.4071,-5.4557,-5.5374,-5.5744,0.0,0.0,0.0,0.0,0.0,0.0,0.0,0.0,-5.1882,-5.1414,-5.1004,-5.092,-5.1203,-5.1063,-5.0765,-5.0295,-4.9688,-4.899,-4.824,-4.7759,0.0,0.0,0.0,0.0,-4.5594,-4.5568,-4.5293,-4.4892,-4.4863,-4.4269,-4.3397,-4.2995,-4.2278,-4.1437,0.0,0.0,0.0,0.0,0.0,0.0,0.0,0.0,0.0,0.0,0.0,0.0,0.0,0.0,0.0,0.0,0.0,0.0,0.0,0.0,0.0,0.0,-4.372,-4.3662,-4.447,-4.4489,-4.4855,-4.5594,-4.5729,-4.5729,-4.5594,-4.5748,-4.5671,-4.5364,-4.4624,-4.3912,0.0,0.0,0.0,0.0,0.0,0.0,0.0,0.0,0.0,0.0,0.0,0.0,0.0,-4.0496,-4.0496,-4.0496,-4.0496,0.0,0.0,0.0,0.0,0.0,-4.1974,-4.3692,-4.5492,-4.6864,-4.7391,-4.7567,-4.743,-4.6827,-4.63,-4.63,-4.63,-4.6384,-4.6635,-4.7849,-4.8886,-4.915,-5.0379,-5.1609,-5.2477,-5.3346,-5.395,-5.4079,-5.4877,0.0,0.0,0.0,0.0,0.0,0.0,0.0,0.0,0.0,0.0,-5.1004,-5.028,-5.0201,-5.0832,-5.0719,-5.0234,-4.9442,-4.9164,-4.8287,-4.6904,-4.6759,0.0,0.0,0.0,0.0,-4.5402,-4.5402,-4.4886,-4.4112,-4.4048,-4.3445,-4.2537,-4.1791,-4.1437,-4.1218,0.0,0.0,0.0,0.0,0.0,0.0,0.0,0.0,0.0,0.0,0.0,0.0,0.0,0.0,0.0,0.0,0.0,0.0,0.0,0.0,0.0,-4.5402,-4.4586,-4.4509,-4.5383,-4.5402,-4.5479,-4.5594,-4.6336,-4.6317,-4.5614,-4.6355,-4.5913,-4.4489,-4.4355,-4.422,-4.4124,-4.4239,0.0,0.0,0.0,0.0,0.0,0.0,0.0,0.0,0.0,0.0,0.0,-4.0496,-4.0496,-4.0496,-4.0496,0.0,0.0,0.0,0.0,0.0,-4.2602,-4.4443,-4.5844,-4.5492,-4.6513,-4.7411,-4.6671,-4.6397,-4.63,-4.63,-4.63,-4.6731,-4.814,-4.8624,-4.9277,-5.0753,-5.1174,-5.1604,-5.2489,0.0,-5.4165,-5.4914,0.0,0.0,0.0,0.0,0.0,0.0,0.0,0.0,0.0,0.0,0.0,-4.9228,-4.9072,-4.9048,-4.9179,-4.9097,-4.891,-4.8668,-4.7782,-4.7204,-4.6865,-4.6144,-4.5729,0.0,0.0,-4.519,-4.4489,-4.4489,-4.3983,-4.3201,-4.3201,-4.2647,-4.1855,-4.1647,-4.1112,-4.0461,0.0,0.0,0.0,0.0,0.0,0.0,0.0,0.0,0.0,0.0,0.0,0.0,0.0,0.0,0.0,0.0,0.0,0.0,0.0,0.0,-4.5594,-4.5594,-4.5229,-4.519,-4.5594,-4.5594,-4.5825,-4.6297,-4.6701,-4.6701,-4.6297,-4.622,-4.5759,-4.4998,-4.4998,-4.4998,-4.4998,-4.4998,-4.5229,0.0,0.0,0.0,0.0,0.0,0.0,0.0,0.0,0.0,0.0,0.0,-4.0496,-4.0496,-4.0496,0.0,0.0,0.0,0.0,0.0,-4.1629,-4.3513,-4.5074,-4.4409,-4.6616,-4.8601,-4.7295,-4.7002,-4.6866,-4.6397,-4.63,-4.6513,-4.7262,-4.8159,-4.9368,-5.1113,-5.1761,-5.2352,-5.3175,-5.3648,-5.4055,0.0,0.0,0.0,0.0,0.0,0.0,0.0,0.0,0.0,0.0,0.0,0.0,0.0,-4.8383,-4.8154,-4.8154,-4.7643,-4.754,-4.7784,-4.7255,-4.6715,-4.6182,-4.5787,-4.5344,-4.4893,0.0,-4.4412,-4.3643,-4.3643,-4.3145,-4.2351,-4.2315,-4.1799,-4.1036,-4.0946,-4.0633,-4.03,0.0,0.0,0.0,0.0,0.0,0.0,0.0,0.0,0.0,0.0,0.0,0.0,0.0,0.0,0.0,0.0,0.0,0.0,0.0,-4.5498,-4.5594,-4.5594,-4.5594,-4.5594,-4.5594,-4.5594,-4.5932,-4.6605,-4.6797,-4.6904,-4.6885,-4.6009,-4.5594,-4.5594,-4.5594,-4.5594,-4.5594,-4.5594,-4.5594,0.0,0.0,0.0,0.0,0.0,0.0,0.0,0.0,0.0,0.0,0.0,0.0,0.0,0.0,0.0,0.0,-4.0496,-4.0496,-4.0558,-4.0866,-4.2544,-4.411,-4.3661,-4.6384,-4.8884,-4.7838,-4.7426,-4.7131,-4.6683,-4.6561,-4.6555,-4.6501,-4.7756,-4.9242,-5.0562,-5.1347,-5.2044,-5.2875,-5.2986,-5.3066,0.0,0.0,0.0,0.0,0.0,0.0,0.0,0.0,0.0,0.0,0.0,0.0,0.0,-4.7615,-4.7295,-4.7295,-4.6632,-4.651,-4.6931,-4.6803,-4.637,-4.5635,-4.54,-4.494,-4.4297,-4.4105,-4.3547,-4.2797,-4.2797,-4.2277,-4.1481,-4.1437,-4.1037,-4.0493,-4.037,-4.0308,-4.0301,0.0,0.0,0.0,0.0,0.0,0.0,0.0,0.0,0.0,0.0,0.0,0.0,0.0,0.0,0.0,0.0,0.0,0.0,0.0,-4.5152,-4.5594,-4.5594,-4.5594,-4.5594,-4.5594,-4.5594,-4.5633,-4.5691,-4.6509,-4.6904,-4.6885,-4.6009,-4.5594,-4.5594,-4.5594,-4.5594,-4.5594,-4.5594,-4.5594,-4.5594,-4.5594,0.0,0.0,0.0,0.0,0.0,0.0,0.0,0.0,0.0,0.0,0.0,0.0,0.0,-4.0496,-4.0496,-4.0496,-4.0689,-4.1505,-4.2546,-4.3388,-4.3417,-4.4919,-4.6593,-4.7403,-4.6926,-4.6518,-4.7262,-4.7353,-4.734,-4.739,-4.8163,-4.8843,-4.8973,-4.8983,-4.9297,-5.0155,0.0,0.0,0.0,0.0,0.0,0.0,0.0,0.0,0.0,0.0,0.0,0.0,0.0,0.0,0.0,0.0,-4.6397,-4.6397,-4.6339,-4.6258,-4.6189,-4.6037,-4.5904,-4.5747,-4.4823,-4.4355,-4.4259,-4.3508,-4.2701,-4.1885,-4.1885,-4.1373,-4.0593,-4.0585,-4.0542,-4.0493,-4.0424,-4.0353,-4.0298,0.0,0.0,0.0,0.0,0.0,0.0,0.0,0.0,0.0,0.0,0.0,0.0,0.0,0.0,0.0,0.0,0.0,0.0,0.0,-4.4605,-4.5037,-4.5575,-4.5594,-4.5594,-4.5594,-4.5594,-4.5594,-4.5594,-4.6471,-4.7154,-4.7625,-4.6797,-4.6413,-4.6413,-4.6413,-4.6105,-4.5594,-4.5594,-4.5594,-4.5594,-4.5594,0.0,0.0,0.0,0.0,0.0,0.0,0.0,0.0,0.0,-4.0496,-4.0496,-4.0496,-4.0496,-4.0496,-4.0496,-4.0496,-4.0573,-4.0893,-4.2063,-4.3195,-4.3259,-4.4228,-4.5445,-4.6496,-4.7284,-4.7894,-4.8185,-4.7797,-4.7404,-4.7421,-4.771,-4.8284,-4.9363,-4.9984,-5.0428,-5.077,0.0,0.0,0.0,0.0,0.0,0.0,0.0,0.0,0.0,0.0,0.0,0.0,0.0,0.0,0.0,0.0,-4.6269,-4.63,-4.63,-4.6,-4.5414,-4.5747,-4.5592,-4.4987,-4.4514,-4.3739,-4.2739,-4.2431,-4.1797,-4.0989,-4.0989,-4.0804,-4.0496,-4.0496,-4.0468,-4.0432,-4.0415,-4.0363,-4.0291,0.0,0.0,0.0,0.0,0.0,0.0,0.0,0.0,0.0,0.0,0.0,0.0,0.0,0.0,0.0,0.0,0.0,0.0,-4.3431,-4.3778,-4.4297,-4.5152,-4.519,-4.519,-4.519,-4.519,-4.5325,-4.5594,-4.6201,-4.6778,-4.7298,-4.6759,-4.649,-4.649,-4.649,-4.6163,-4.5594,-4.5594,-4.5594,-4.5594,-4.5594,-4.4782,0.0,0.0,0.0,0.0,0.0,0.0,0.0,0.0,-4.0496,-4.0496,-4.0496,-4.0496,-4.0496,-4.0496,-4.0689,-4.0912,-4.0912,-4.1777,-4.276,-4.3116,-4.3672,-4.4514,-4.5839,-4.7285,-4.8418,-4.8655,-4.8004,-4.74,-4.7404,-4.7392,-4.7793,0.0,-4.9917,-5.0474,0.0,0.0,0.0,0.0,0.0,0.0,0.0,0.0,0.0,0.0,0.0,0.0,0.0,0.0,0.0,0.0,0.0,-4.5421,-4.548,-4.548,-4.5187,-4.458,-4.497,-4.4787,-4.4143,-4.3723,-4.2903,-4.1769,-4.1508,-4.1046,-4.0496,-4.0496,-4.0496,-4.0496,-4.0496,-4.0476,-4.043,-4.0415,-4.0363,-4.0328,0.0,0.0,0.0,0.0,0.0,0.0,0.0,0.0,0.0,0.0,0.0,0.0,0.0,0.0,0.0,0.0,0.0,0.0,-4.1788,-4.2604,-4.3451,-4.4239,-4.4297,-4.4297,-4.4297,-4.4316,-4.472,-4.5594,-4.5594,-4.5594,-4.5614,-4.5614,-4.5614,-4.5614,-4.5614,-4.5614,-4.5594,-4.5594,-4.5594,-4.5594,-4.5594,-4.5144,-4.4381,0.0,0.0,0.0,0.0,0.0,0.0,0.0,-4.0496,-4.0496,-4.0496,-4.0496,-4.0496,-4.0496,-4.1123,-4.1788,-4.1788,-4.1788,-4.2021,-4.296,-4.3213,-4.3692,-4.557,-4.6726,-4.7634,-4.8515,-4.8,-4.7392,-4.7392,-4.7388,-4.7385,-4.7401,-4.8112,0.0,0.0,0.0,0.0,0.0,0.0,0.0,0.0,0.0,0.0,0.0,0.0,0.0,0.0,0.0,0.0,0.0,0.0,0.0,-4.3704,-4.3705,-4.3705,-4.3684,-4.3557,-4.3444,-4.3369,-4.2361,-4.1851,-4.1739,-4.0881,-4.0496,-4.0496,-4.0496,-4.0496,-4.0496,-4.0496,-4.0496,-4.0481,-4.0422,-4.0407,-4.0389,0.0,0.0,0.0,0.0,0.0,0.0,0.0,0.0,0.0,0.0,0.0,0.0,0.0,0.0,0.0,0.0,0.0,0.0,-4.1788,-4.2038,-4.2566,-4.3412,-4.3989,-4.4297,-4.4297,-4.4893,-4.5037,-4.4682,-4.4682,-4.5316,-4.6509,-4.6509,-4.6509,-4.6509,-4.6509,-4.6163,-4.5556,-4.496,-4.5084,-4.5696,-4.5058,-4.4369,-4.3704,0.0,0.0,0.0,0.0,0.0,0.0,0.0,0.0,0.0,-4.0323,-4.0496,-4.0496,-4.0496,-4.1123,-4.1681,-4.1046,-4.1335,-4.2016,-4.2911,-4.3627,-4.4394,-4.5467,-4.6519,-4.7353,-4.765,-4.7514,-4.7144,-4.6528,-4.6426,-4.6431,-4.6416,-4.6625,0.0,0.0,0.0,0.0,0.0,0.0,0.0,0.0,0.0,0.0,0.0,0.0,0.0,0.0,0.0,0.0,0.0,0.0,0.0,-4.3704,-4.3705,-4.3391,-4.2786,-4.2754,-4.2682,-4.2615,-4.2131,-4.1577,-4.1015,-4.0657,-4.0496,-4.0496,-4.0496,-4.0496,-4.0496,-4.0496,-4.0476,-4.043,-4.0415,-4.0363,-4.0319,0.0,0.0,0.0,0.0,0.0,0.0,0.0,0.0,0.0,0.0,-4.135,-4.187,0.0,0.0,0.0,0.0,0.0,0.0,0.0,-4.1277,-4.1835,-4.3047,-4.3566,-4.397,-4.4297,-4.4797,-4.4662,-4.3816,-4.4489,-4.5355,-4.6374,-4.6374,-4.6374,-4.6374,-4.6374,-4.5893,-4.5056,-4.4575,-4.4527,-4.4736,-4.4253,-4.3804,-4.3368,0.0,0.0,0.0,0.0,0.0,0.0,0.0,0.0,0.0,-3.9361,-3.9515,-3.965,-4.0304,-4.0873,-4.1393,-4.1881,-4.2162,-4.2604,-4.3797,-4.4256,-4.4631,-4.5415,-4.6416,-4.719,-4.7287,-4.7026,-4.6521,-4.5686,-4.5511,0.0,-4.5511,0.0,0.0,0.0,0.0,0.0,0.0,0.0,0.0,0.0,0.0,0.0,0.0,0.0,0.0,0.0,0.0,0.0,0.0,0.0,0.0,-4.2678,-4.2666,-4.2396,-4.1888,-4.1888,-4.1858,-4.1827,-4.1628,-4.1233,-4.0687,-4.0564,-4.0496,-4.0496,-4.0496,-4.0496,-4.0496,-4.0496,-4.0476,-4.0447,-4.0405,-4.0372,-4.0337,0.0,0.0,0.0,0.0,0.0,0.0,0.0,0.0,0.0,0.0,-4.0712,-4.1016,0.0,0.0,0.0,0.0,0.0,0.0,0.0,-4.0439,-4.117,-4.2912,-4.3124,-4.3585,-4.4393,-4.4335,-4.3932,-4.3201,-4.4748,-4.5479,-4.5479,-4.5479,-4.5479,-4.5479,-4.5402,-4.4883,-4.408,-4.4136,-4.3704,-4.3008,-4.3042,-4.3104,-4.2978,-4.1341,0.0,0.0,0.0,0.0,0.0,0.0,0.0,0.0,-3.7969,-3.8007,-3.8296,-3.9823,-4.0381,-4.1016,-4.3316,-4.347,-4.3374,-4.5056,-4.4944,-4.4591,-4.5325,-4.6194,-4.6887,-4.7031,-4.6355,-4.5525,-4.4812,-4.4676,-4.4656,0.0,0.0,0.0,0.0,0.0,0.0,0.0,0.0,0.0,0.0,0.0,0.0,0.0,0.0,0.0,0.0,0.0,0.0,0.0,0.0,0.0,-4.1093,-4.1099,-4.1109,0.0,-4.1109,-4.1109,-4.1108,-4.1022,-4.0885,-4.0687,-4.0579,-4.0512,-4.0496,-4.0496,-4.0496,-4.0496,-4.0496,-4.0496,-4.05,-4.043,-4.0407,-4.0398,0.0,0.0,0.0,0.0,0.0,0.0,0.0,0.0,0.0,0.0,0.0,0.0,0.0,0.0,0.0,0.0,0.0,0.0,0.0,-3.9919,-4.0315,-4.2008,-4.3335,-4.4432,-4.5306,-4.4643,-4.422,-4.4047,-4.4393,-4.4586,-4.4586,-4.4586,-4.4586,-4.4547,-4.3912,-4.3188,-4.2386,-4.1776,-4.1505,-4.142,-4.0762,-4.0541,-4.0547,-4.0166,-3.9098,0.0,0.0,0.0,0.0,0.0,0.0,0.0,-3.7777,-3.8007,-3.8065,-3.843,-3.9477,-4.0612,-4.117,-4.1681,-4.2489,-4.4162,-4.4916,-4.5147,-4.4746,-4.4773,-4.4967,-4.5138,-4.4497,-4.3868,-4.3791,-4.3782,-4.3569,0.0,0.0,0.0,0.0,0.0,0.0,0.0,0.0,0.0,0.0,0.0,0.0,0.0,0.0,0.0,0.0,0.0,0.0,0.0,0.0,-4.1025,-4.1093,-4.1099,-4.1109,0.0,-4.1109,-4.1109,-4.1108,-4.1022,-4.0885,-4.0694,-4.0668,-4.0607,-4.0496,-4.0496,-4.0496,-4.0496,-4.0496,-4.0492,-4.0499,-4.0474,-4.0441,-4.0398,0.0,0.0,0.0,0.0,0.0,0.0,0.0,0.0,0.0,0.0,0.0,0.0,0.0,0.0,0.0,0.0,0.0,0.0,0.0,-3.9534,-4.0219,-4.2335,-4.3624,-4.4701,-4.5575,-4.4374,-4.372,-4.372,-4.4105,-4.4297,-4.4316,-4.472,-4.4913,-4.4902,-4.4047,-4.3011,-4.1847,-4.1079,-4.0354,-3.9721,-3.9326,-3.9197,-3.9175,-3.8765,-3.7934,-3.6992,-3.7042,0.0,0.0,0.0,0.0,0.0,0.0,0.0,-3.6969,-3.7757,-3.8315,-3.9046,-4.0681,-4.145,-4.2297,-4.4393,-4.4916,-4.483,-4.4438,-4.3673,-4.3088,-4.3238,-4.2916,-4.2518,-4.2175,-4.211,0.0,0.0,0.0,0.0,0.0,0.0,0.0,0.0,0.0,0.0,0.0,0.0,0.0,0.0,0.0,0.0,0.0,0.0,0.0,0.0,-4.0983,-4.1019,-4.1053,-4.1074,-4.1109,-4.1109,-4.1109,-4.1109,-4.1108,-4.1022,-4.0929,-4.0835,-4.0748,-4.0655,-4.0581,-4.0527,-4.0496,-4.0496,-4.0496,-4.05,-4.0495,-4.0491,-4.0485,-4.0432,0.0,0.0,0.0,0.0,0.0,0.0,0.0,0.0,0.0,0.0,0.0,0.0,0.0,0.0,0.0,0.0,0.0,0.0,0.0,-3.9361,-4.0458,-4.2566,-4.3585,-4.4355,-4.494,-4.3431,-4.272,-4.2874,-4.3239,-4.3816,-4.4528,-4.5114,-4.5383,-4.5325,-4.4316,-4.2988,-4.1441,-4.0692,-3.9455,-3.8007,-3.811,-3.8142,-3.8064,-3.734,-3.6962,-3.6721,-3.5978,-3.562,-3.5515,-3.5507,0.0,0.0,0.0,0.0,-3.5769,-3.7161,-3.7065,-3.7115,-3.9942,-4.1135,-4.2143,-4.4575,-4.4636,-4.4044,-4.389,-4.2741,-4.1677,-4.1591,-4.162,-4.1449,-4.0723,-4.0595,0.0,0.0,0.0,0.0,0.0,0.0,0.0,0.0,0.0,0.0,0.0,0.0,0.0,0.0,0.0,0.0,0.0,0.0,-4.0907,-4.0907,-4.0972,-4.099,-4.099,-4.107,-4.1109,-4.1109,-4.1109,-4.1109,-4.1108,-4.1033,-4.1003,-4.0984,-4.082,-4.0736,-4.0687,-4.0574,-4.0519,-4.0496,-4.0496,-4.0496,-4.0489,-4.0487,-4.0499,-4.0482,0.0,0.0,0.0,0.0,0.0,0.0,0.0,0.0,0.0,0.0,-4.2389,-4.2356,-4.2308,-4.0863,0.0,0.0,0.0,0.0,-3.818,0.0,0.0,-4.0823,-4.2393,-4.297,-4.2316,-4.1354,-4.1219,-4.1962,-4.0623,-4.1843,-4.5421,-4.4759,-4.447,-4.4412,-4.2835,-4.1265,-3.9772,-3.8976,-3.7737,-3.6316,-3.6342,-3.6344,-3.6324,-3.6226,-3.6124,-3.6027,-3.5784,-3.565,-3.5587,-3.5521,-3.55,0.0,0.0,0.0,-3.5538,-3.5769,-3.575,-3.5769,-3.6212,-3.8469,-4.1131,-4.297,-4.3355,-4.3058,-4.2299,-4.1909,-4.15,-4.0817,-4.0684,-4.0669,-4.0619,0.0,0.0,0.0,0.0,0.0,0.0,0.0,0.0,0.0,0.0,0.0,0.0,0.0,0.0,0.0,0.0,0.0,0.0,-4.0907,-4.0907,-4.0907,-4.0972,-4.099,-4.099,-4.107,-4.1109,-4.1109,-4.1109,-4.1109,-4.1109,-4.1085,-4.1042,-4.099,-4.097,-4.0858,-4.0694,-4.0675,-4.0595,-4.0496,-4.0496,-4.0496,-4.0496,-4.0508,-4.0508,-4.05,0.0,0.0,0.0,0.0,0.0,0.0,0.0,0.0,0.0,0.0,0.0,-4.1669,-4.1632,-4.082,0.0,0.0,0.0,0.0,-3.7296,-3.8873,0.0,-3.9823,-4.0573,-4.0989,-4.1066,-3.9777,-3.9527,-4.0392,-3.9662,-4.0977,-4.4201,-4.4259,-4.5066,-4.6355,-4.4682,-4.2816,-4.0868,-3.9539,-3.7819,-3.5992,-3.5992,-3.6597,-3.734,-3.6363,-3.6536,-3.7175,-3.6168,-3.5724,-3.5602,-3.5564,-3.5528,-3.5558,-3.5923,0.0,0.0,0.0,-3.443,-3.4468,-3.6392,-3.8334,-4.0362,-4.2547,-4.2739,-4.2277,-4.1885,-4.1399,-4.0916,-4.0526,-4.0402,-4.0392,0.0,0.0,0.0,0.0,0.0,0.0,0.0,0.0,0.0,0.0,0.0,0.0,0.0,0.0,0.0,0.0,0.0,0.0,-4.0907,-4.0907,-4.0921,-4.0948,-4.0983,-4.1019,-4.1056,-4.1095,-4.1109,-4.1109,-4.1109,-4.1109,-4.1109,-4.1109,-4.108,-4.104,-4.1028,-4.0956,-4.0858,-4.0754,-4.0662,-4.0595,-4.0534,-4.0496,-4.0496,-4.0496,-4.0208,-3.9815,0.0,0.0,0.0,0.0,0.0,0.0,0.0,0.0,0.0,0.0,0.0,-4.0777,-4.0777,0.0,0.0,0.0,0.0,0.0,-3.6757,0.0,0.0,0.0,-3.8854,-3.915,-3.9534,-3.8315,-3.8104,-3.8977,-3.8738,-4.0277,-4.3412,-4.3816,-4.5451,-4.8029,-4.6355,-4.4418,-4.2304,-4.0335,-3.852,-3.6949,-3.6734,-3.7438,-3.8494,-3.7633,-3.8046,-3.8856,-3.7144,-3.6437,-3.6216,-3.5753,-3.5411,-3.5212,-3.5423,-3.4757,0.0,0.0,0.0,-3.291,-3.5892,-3.7334,-3.863,-4.1162,-4.1489,-4.1219,-4.1431,-4.0976,-4.0417,0.0,-4.0045,0.0,0.0,0.0,0.0,0.0,0.0,0.0,0.0,0.0,0.0,0.0,0.0,0.0,0.0,0.0,0.0,0.0,0.0,0.0,-4.0907,-4.0921,-4.0943,-4.0992,-4.102,-4.1053,-4.1093,-4.1099,-4.1109,-4.1109,-4.0875,-4.0777,-4.0758,-4.0563,-4.0465,-4.0464,-4.0625,-4.0694,-4.0633,-4.0272,-4.0089,-4.0024,-3.9937,-3.9872,-3.9861,-3.9861,-3.9477,-3.8969,0.0,0.0,0.0,0.0,0.0,0.0,0.0,0.0,0.0,0.0,0.0,-3.9878,-3.9878,-3.906,-3.8105,-3.7097,-3.767,0.0,0.0,0.0,0.0,0.0,0.0,0.0,-3.6904,-3.6808,-3.7199,-3.8065,-3.7238,-3.9373,-4.422,-4.3508,-4.4932,-4.8029,-4.6355,-4.4769,-4.3156,-4.0597,-3.9535,-3.9546,-3.8767,-3.8513,-3.8767,-4.027,-4.0893,-4.0712,-3.8914,-3.8212,-3.7897,-3.6177,-3.5005,-3.441,-3.5231,-3.4327,-3.2968,0.0,0.0,0.0,-3.2699,-3.3795,-3.509,-3.7623,-3.8854,-3.9631,-4.04,-4.0534,-4.0252,-3.9434,-3.9216,0.0,0.0,0.0,0.0,0.0,0.0,0.0,0.0,0.0,0.0,0.0,0.0,0.0,0.0,0.0,0.0,0.0,0.0,0.0,-4.0903,-4.0967,-4.0992,-4.0996,-4.1064,-4.1091,-4.1093,-4.1099,-4.1109,-4.109,-4.0268,-3.9878,-3.9839,-3.9079,-3.8728,-3.8767,-3.9525,-3.9833,-3.9705,-3.8854,-3.841,-3.8239,-3.8233,-3.8196,-3.8123,-3.8123,-3.8104,-3.8065,0.0,0.0,0.0,0.0,0.0,0.0,0.0,0.0,0.0,0.0,0.0,0.0,0.0,-3.8826,-3.863,-3.7124,-3.7632,0.0,0.0,0.0,0.0,0.0,0.0,0.0,-3.5942,-3.5923,-3.6077,-3.6404,-3.6077,-3.77,-4.1112,-4.1324,-4.2662,-4.4913,-4.5402,-4.507,-4.3995,-4.1427,-4.0119,-3.9761,-3.9488,-4.0034,-4.0971,-4.0464,-4.0952,-4.1633,-3.9359,-3.8422,-3.8115,-3.6914,-3.5847,-3.4988,-3.4737,-3.3506,-3.2025,-3.1462,-3.0865,-3.0769,-3.2449,-3.3122,-3.3987,-3.6526,-3.7411,-3.7853,-3.87,-3.8854,-3.8746,-3.842,-3.8298,0.0,0.0,0.0,0.0,0.0,0.0,0.0,0.0,0.0,0.0,0.0,0.0,0.0,0.0,0.0,0.0,0.0,0.0,0.0,-3.9222,-3.9803,-3.9937,-3.9416,-3.9416,-3.9442,-3.9497,-3.9506,-3.9509,-3.9489,-3.9177,-3.904,-3.9021,-3.8728,-3.8591,-3.8572,-3.8316,-3.8505,-3.8959,-3.8569,-3.8338,-3.8219,-3.8139,-3.8067,-3.8007,-3.8007,-3.7647,-3.7163,0.0,0.0,0.0,0.0,0.0,0.0,0.0,0.0,-3.8834,-3.7092,0.0,0.0,0.0,0.0,-3.8697,-3.7148,-3.7107,-3.7161,-3.7161,-3.7161,0.0,0.0,0.0,0.0,-3.5519,-3.55,-3.55,-3.55,-3.5769,-3.693,-3.8873,-3.9708,-4.0862,-4.2266,-4.3142,-4.4097,-4.4893,-4.2325,-4.1193,-4.1088,-4.0795,-4.1186,-4.1967,-4.1986,-4.2337,-4.2572,-4.0581,-3.958,-3.9035,-3.7836,-3.6589,-3.5387,-3.4488,-3.2852,-3.1154,-3.0577,-3.0404,-3.0635,-3.1756,-3.2275,-3.3045,-3.5295,-3.5853,-3.6238,-3.7661,-3.774,-3.7498,-3.7498,0.0,0.0,0.0,0.0,0.0,0.0,0.0,0.0,0.0,0.0,0.0,0.0,0.0,0.0,0.0,0.0,0.0,0.0,0.0,0.0,-3.8296,-3.8917,-3.9052,-3.8549,-3.8523,-3.8559,-3.8591,-3.8591,-3.8591,-3.8591,-3.8298,-3.8162,-3.8142,-3.7869,-3.7731,-3.7692,-3.7126,-3.736,-3.8121,-3.7758,-3.7553,-3.7483,-3.7342,-3.7247,-3.7185,-3.7175,-3.6793,-3.6291,0.0,0.0,0.0,0.0,0.0,0.0,0.0,0.0,-3.8098,-3.6337,0.0,0.0,0.0,0.0,0.0,-3.7164,-3.6173,-3.5603,-3.5577,-3.5577,-3.5558,0.0,0.0,0.0,-3.5519,-3.55,-3.55,-3.55,-3.6269,-3.7103,-3.795,-3.8815,-3.965,-4.0369,-3.9663,-4.1753,-4.5609,-4.3073,-4.2634,-4.3587,-4.2708,-4.1888,-4.1539,-4.4914,-4.5129,-4.3548,-4.2669,-4.1768,-4.0721,-3.8945,-3.7148,-3.5496,-3.4488,-3.2449,-3.0423,-3.0404,-3.0423,-3.0423,0.0,0.0,0.0,-3.3725,-3.4129,-3.4783,-3.7276,-3.7209,-3.6603,-3.6622,0.0,0.0,0.0,0.0,0.0,0.0,0.0,0.0,0.0,0.0,0.0,0.0,0.0,0.0,0.0,0.0,0.0,0.0,0.0,-3.8136,-3.8224,-3.8357,-3.8449,-3.8512,-3.8513,-3.8513,-3.8513,-3.8513,-3.8513,-3.8513,-3.7633,-3.7223,-3.7184,-3.6344,-3.5953,-3.5953,-3.5992,-3.648,-3.7204,-3.6344,-3.5953,-3.5883,-3.5753,-3.5664,-3.559,-3.5522,-3.55,-3.5493,0.0,0.0,0.0,0.0,0.0,-4.3314,-4.2201,-4.1656,-4.0739,0.0,0.0,0.0,-3.8035,-3.822,-3.8572,-3.8866,-3.8535,-3.8029,-3.7361,-3.7315,-3.7026,-3.6404,-3.6577,-3.6327,-3.5519,-3.55,-3.55,-3.55,-3.5712,-3.5962,-3.6212,-3.7026,-3.7546,-3.7777,-3.8204,-3.9154,-4.0397,-3.9704,-4.0716,-4.2689,-4.181,-4.2066,-4.3022,-4.3352,-4.3177,-4.265,-4.1771,-4.1259,-4.0828,-3.9645,-3.8423,-3.6917,-3.4135,-3.2372,-3.1212,-3.0596,-3.0846,-3.1192,-3.0577,0.0,0.0,0.0,0.0,0.0,0.0,0.0,-3.4128,-3.4762,0.0,0.0,0.0,0.0,0.0,0.0,0.0,0.0,0.0,0.0,0.0,0.0,0.0,0.0,0.0,0.0,0.0,0.0,-3.7548,-3.7488,-3.6394,-3.6527,-3.6651,-3.6714,-3.6716,-3.6716,-3.6716,-3.6716,-3.6716,-3.6716,-3.5837,-3.5428,-3.5408,-3.5174,-3.5057,-3.5096,-3.5738,-3.6148,-3.6344,-3.6109,-3.5953,-3.5908,-3.5849,-3.5741,-3.5602,-3.5587,-3.5515,-3.5439,0.0,0.0,0.0,-4.5055,-4.4275,-4.3532,-4.3025,-4.2342,-4.1542,0.0,0.0,0.0,-4.0285,-3.9778,-3.9387,-3.9128,-3.9286,-3.871,-3.7102,-3.7639,-3.7469,-3.625,-3.6519,-3.6327,-3.5519,-3.55,-3.55,-3.55,-3.55,-3.55,-3.5519,-3.5981,-3.6,-3.568,-3.6222,-3.6342,-3.6176,-3.6232,-3.8027,-4.0854,-4.142,-4.181,-4.2142,-4.2728,-4.2494,-4.1849,-4.1693,-4.1386,-4.0942,-4.0314,-3.8949,-3.7045,-3.4308,-3.2872,-3.1968,-3.075,-3.1019,-3.1583,-3.1077,-3.1308,-3.1775,-3.2122,0.0,0.0,-3.2718,-3.2641,0.0,0.0,0.0,0.0,0.0,0.0,0.0,0.0,0.0,0.0,0.0,0.0,0.0,0.0,0.0,0.0,0.0,0.0,0.0,0.0,-3.7033,-3.687,-3.5742,-3.583,-3.5935,-3.5992,-3.5992,-3.5992,-3.5992,-3.5641,-3.5465,-3.5446,-3.4569,-3.4159,-3.4159,-3.4159,-3.4159,-3.4198,-3.4684,-3.4919,-3.4919,-3.4919,-3.5318,-3.5938,-3.5919,-3.5824,-3.5711,-3.5625,-3.555,-3.5477,0.0,0.0,-4.5683,-4.5098,-4.4355,-4.3848,-4.3848,-4.2656,-4.1719,0.0,-4.2129,-4.2578,-4.2671,-4.1607,-4.034,-3.8959,-3.9029,-3.8216,-3.6038,-3.7051,-3.7065,-3.5577,-3.6192,-3.6231,-3.5519,-3.55,-3.55,-3.55,-3.5404,-3.5365,-3.5346,-3.525,-3.4757,-3.3917,-3.3981,-3.3606,-3.2928,-3.3273,-3.5201,-3.8259,-4.0795,-4.1069,-4.021,-4.2533,-4.2456,-4.1207,-4.1986,-4.1693,-4.0902,-4.0622,-3.8822,-3.6423,-3.4834,-3.3757,-3.2737,-3.1135,-3.1288,-3.1968,-3.1852,-3.191,-3.2102,-3.2622,-3.2295,0.0,-3.2506,-3.2141,-3.191,0.0,0.0,0.0,0.0,0.0,0.0,0.0,0.0,0.0,0.0,0.0,0.0,0.0,0.0,0.0,0.0,-3.8858,-3.8209,-3.6615,-3.6481,-3.6279,-3.5795,-3.5855,-3.5937,-3.5992,-3.5914,-3.5856,-3.5856,-3.4998,-3.4569,-3.4549,-3.3671,-3.326,-3.326,-3.326,-3.326,-3.326,-3.3357,-3.3396,-3.3396,-3.3396,-3.4314,-3.5716,-3.5643,-3.5619,-3.5574,-3.5408,-3.5322,-3.5278,-4.2179,-4.2928,-4.3555,-4.4785,-4.4863,-4.4746,-4.4746,-4.5058,-4.5058,-4.4336,-4.3789,-4.371,-4.4412,-4.1864,-4.0496,-4.1459,-3.9046,-3.7536,-3.7672,-3.662,-3.5846,-3.5519,-3.5654,-3.5654,-3.55,-3.55,-3.55,-3.55,-3.4795,-3.4449,-3.443,-3.3737,-3.2968,-3.2199,-3.221,-3.1791,-3.1257,-3.3365,-3.433,-3.4647,-3.7243,-3.9312,-4.0894,-4.1402,-4.1402,-4.1129,-4.1285,-4.0795,-3.9927,-3.9066,-3.7854,-3.6519,-3.5538,-3.4641,-3.3744,-3.2718,-3.3026,-3.3571,-3.2852,-3.3179,-3.343,-3.2237,-3.2295,0.0,-3.1154,-3.1308,-3.1737,0.0,0.0,0.0,0.0,0.0,0.0,0.0,0.0,0.0,0.0,0.0,0.0,0.0,0.0,0.0,0.0,-3.7941,-3.7559,-3.6576,-3.6048,-3.5751,-3.565,-3.5855,-3.5989,-3.5992,-3.533,-3.4959,-3.4959,-3.41,-3.365,-3.363,-3.2773,-3.2343,-3.2343,-3.2343,-3.2343,-3.2383,-3.3103,-3.3396,-3.3396,-3.3396,-3.3591,-3.3904,-3.3897,-3.3814,-3.372,-3.3685,-3.3577,-3.3429,-4.0331,-4.2226,-4.3574,-4.3164,-4.416,-4.5,-4.5,-4.5371,-4.5644,-4.5644,-4.5273,-4.5156,-4.5604,-4.3336,-4.1766,-4.1708,-3.9644,-3.8136,-3.7623,-3.6725,-3.6177,-3.6103,-3.5712,-3.5692,-3.6096,-3.5712,-3.5692,-3.6096,-3.4814,-3.441,-3.4814,-3.3506,-3.291,-3.291,-3.2064,-3.152,-3.1312,-3.2174,-3.2875,-3.3709,-3.7165,-3.9078,-3.9899,-4.0307,-4.0444,-4.0405,-3.9997,-3.9534,-3.9014,-3.8486,-3.7621,-3.6659,-3.5777,-3.5192,-3.4584,-3.3276,-3.3526,-3.4109,-3.366,-3.3878,-3.3994,-3.316,-3.291,0.0,0.0,-3.1058,-3.1058,-3.1058,-3.1058,0.0,0.0,0.0,0.0,0.0,0.0,0.0,0.0,0.0,0.0,0.0,0.0,0.0,0.0,0.0,-3.8485,-3.7241,-3.619,-3.5606,-3.5645,-3.5847,-3.577,-3.5368,-3.494,-3.4491,-3.4061,-3.3183,-3.2753,-3.2734,-3.1875,-3.1446,-3.1446,-3.1446,-3.1446,-3.1485,-3.1913,-3.2108,-3.2108,-3.2108,-3.2108,-3.2186,-3.3064,-3.3356,-3.329,-3.3225,-3.3139,-3.3033,-3.8926,-4.1504,-4.3223,-4.1504,-4.3027,-4.4492,-4.4492,-4.4785,-4.5312,-4.6191,-4.6308,-4.6308,-4.6307,-4.4745,-4.3278,-4.2198,-4.0779,-3.9312,-3.7851,-3.7365,-3.6953,-3.6488,-3.5692,-3.5538,-3.6199,-3.5577,-3.5558,-3.6219,-3.468,-3.4314,-3.4962,-3.3237,-3.2872,-3.3667,-3.2325,-3.197,-3.2341,-3.1485,-3.2279,-3.445,-3.7926,-3.8921,-3.8435,-3.9253,-3.9566,-3.9468,-3.865,-3.8252,-3.8114,-3.7887,-3.7288,-3.6513,-3.574,-3.55,-3.5212,-3.3814,-3.3891,-3.4449,-3.4449,-3.434,-3.4167,-3.3994,-3.341,-3.2641,0.0,0.0,0.0,-3.0423,0.0,0.0,0.0,0.0,0.0,0.0,0.0,0.0,0.0,0.0,0.0,0.0,0.0,0.0,0.0,0.0,-3.901,-3.7647,-3.6209,-3.5466,-3.5683,-3.5841,-3.555,-3.4725,-3.4549,-3.4022,-3.3162,-3.2285,-3.1856,-3.1836,-3.1133,-3.08,-3.08,-3.08,-3.08,-3.08,-3.08,-3.08,-3.08,-3.08,-3.08,-3.0937,-3.2342,-3.2886,-3.2874,-3.274,-3.2699,-3.2654,-3.9473,-3.9512,-3.9726,-4.0976,-4.2031,-4.2695,-4.2695,-4.4004,-4.5312,-4.6191,-4.6308,-4.6308,-4.6308,-4.4746,-4.4237,-4.5584,-4.2731,-4.0749,-4.0474,-3.8942,-3.7334,-3.5699,-3.4814,-3.4398,-3.4475,-3.4398,-3.4398,-3.4475,-3.3526,-3.3103,-3.316,-3.1462,-3.1154,-3.1974,-3.1848,-3.2695,-3.4144,-3.3331,-3.4497,-3.6891,-3.7399,-3.7536,-3.7536,-3.8415,-3.8747,-3.8611,-3.775,-3.7355,-3.7124,0.0,-3.5888,-3.572,-3.5547,-3.55,-3.5462,-3.525,-3.5269,-3.5346,-3.5346,-3.4795,-3.4013,-3.3237,-3.2968,-3.2487,0.0,0.0,-3.1327,-3.0558,0.0,0.0,0.0,0.0,0.0,0.0,0.0,0.0,0.0,0.0,0.0,0.0,0.0,0.0,0.0,0.0,0.0,-3.6651,-3.533,-3.4872,-3.5663,-3.588,-3.5581,-3.4725,-3.3944,-3.3124,-3.2265,-3.1387,-3.0956,-3.0956,-3.0859,-3.08,-3.08,-3.08,-3.08,-3.08,-3.08,-3.08,-3.08,-3.08,-3.08,-3.082,-3.1015,-3.1058,-3.1003,-3.0915,-3.0866,-3.0791,-3.7383,-3.8555,-3.9277,-3.8984,-4.0059,-4.1113,-4.1621,-4.3574,-4.5312,-4.6191,-4.6308,-4.6308,-4.6308,-4.5195,-4.455,-4.4764,-4.2962,-4.1573,-4.0997,-3.9253,-3.8113,-3.7784,-3.5958,-3.518,-3.5641,-3.4699,-3.4205,-3.4205,-3.2852,-3.2449,-3.2852,-3.1173,-3.1385,-3.3128,-3.2738,-3.3537,-3.5146,-3.4389,-3.4735,-3.5798,-3.5798,-3.5798,-3.5994,-3.7888,-3.7966,-3.7048,-3.6677,-3.651,-3.6391,0.0,-3.5757,0.0,0.0,0.0,0.0,-3.55,-3.55,-3.55,-3.55,0.0,0.0,0.0,0.0,0.0,-3.1308,0.0,-3.0846,0.0,0.0,0.0,0.0,0.0,0.0,0.0,0.0,0.0,0.0,0.0,0.0,0.0,0.0,0.0,0.0,0.0,0.0,0.0,0.0,-3.4788,-3.5646,-3.5885,-3.5368,-3.3983,-3.3591,-3.2733,-3.1368,-3.0976,-3.08,-3.08,-3.08,-3.08,-3.08,-3.08,-3.08,-3.08,-3.08,-3.08,-3.08,-3.08,-3.08,-3.08,-3.08,-3.0774,-3.0758,-3.0675,-3.0633,-3.0605,-3.582,-3.7539,-3.8437,-3.7168,-3.8184,-3.9726,-4.1289,-4.3301,-4.5039,-4.6152,-4.6308,-4.6308,-4.6308,-4.5742,-4.5098,-4.4472,-4.3827,-4.2961,-4.18,-4.0224,-3.9485,-3.9809,-3.7244,-3.6124,-3.6749,-3.5309,-3.443,-3.4205,-3.2737,-3.2333,-3.2852,-3.1173,-3.15,-3.3519,-3.3485,-3.4436,-3.6025,-3.5535,-3.5623,-3.6052,-3.5603,-3.5408,-3.5584,-3.7262,-3.7106,-3.5992,-3.5992,-3.5992,-3.5949,-3.5654,-3.5486,0.0,-3.5276,0.0,-3.5213,0.0,-3.5327,-3.5192,-3.5442,0.0,0.0,0.0,0.0,0.0,0.0,0.0,0.0,0.0,0.0,0.0,0.0,0.0,-3.0673,-3.0442,0.0,-3.0379,0.0,0.0,0.0,0.0,0.0,0.0,0.0,0.0,0.0,0.0,0.0,0.0,-3.5639,-3.5656,-3.4958,-3.3455,-3.3162,-3.2323,-3.08,-3.08,-3.08,-3.08,-3.08,-3.08,-3.08,-3.08,-3.08,-3.08,-3.08,-3.08,-3.08,-3.08,-3.08,-3.08,-3.08,-3.08,-3.0798,-3.0726,-3.0706,-3.0694,-3.582,-3.6074,-3.6113,-3.6055,-3.6797,-3.8516,-4.1855,-4.3144,-4.4355,-4.6074,-4.6308,-4.6308,-4.6308,-4.6289,-4.625,-4.6211,-4.6191,-4.5427,-4.3624,-4.2551,-4.1648,-4.0873,-3.8166,-3.6736,-3.6881,-3.5958,-3.5045,-3.4205,-3.3295,-3.2872,-3.2852,-3.1173,-3.0885,-3.1864,-3.3658,-3.5395,-3.6962,-3.7134,-3.8159,-3.9488,-3.7867,-3.7223,-3.7126,0.0,-3.6051,-3.5992,-3.5992,0.0,0.0,-3.4949,-3.4634,0.0,0.0,0.0,0.0,0.0,0.0,0.0,0.0,0.0,0.0,-3.2949,0.0,0.0,0.0,0.0,-3.0635,0.0,0.0,0.0,0.0,-3.166,-3.1385,-3.0538,-3.0404,0.0,0.0,0.0,0.0,0.0,0.0,0.0,0.0,0.0,0.0,0.0,0.0,0.0,-3.56,-3.5091,-3.4334,-3.3435,-3.2578,-3.1719,-3.08,-3.08,-3.08,-3.08,-3.08,-3.08,-3.08,-3.08,-3.08,-3.08,-3.08,-3.08,-3.08,-3.08,-3.08,-3.08,-3.08,-3.08,-3.0798,-3.0726,-3.0701,-3.07,-3.582,-3.5996,-3.5996,-3.5996,-3.623,-3.7402,-4.0293,-4.2422,-4.3906,-4.4492,-4.5586,-4.5859,-4.4707,-4.5605,-4.6074,-4.5488,-4.5976,-4.58,-4.4602,-4.3093,-4.2361,-4.2666,-3.9486,-3.7713,-3.7763,-3.6286,-3.4788,-3.3333,-3.2506,-3.2102,-3.2083,-3.0942,-3.0865,-3.1788,-3.3662,-3.5422,-3.7042,-3.7829,-3.8483,-3.8858,-3.7139,-3.6434,-3.641,0.0,0.0,-3.5992,-3.5992,-3.5621,0.0,-3.477,-3.4259,-3.3732,-3.3667,-3.3555,-3.3497,-3.3768,-3.3607,0.0,0.0,0.0,-3.2237,-3.2776,0.0,0.0,0.0,0.0,0.0,0.0,0.0,0.0,0.0,-3.0846,-3.0731,-3.0442,-3.0404,-3.0404,0.0,0.0,0.0,0.0,0.0,0.0,0.0,0.0,0.0,0.0,0.0,0.0,0.0,-3.5617,-3.4899,-3.3455,-3.3103,-3.2264,-3.08,-3.08,-3.08,-3.08,-3.08,-3.08,-3.08,-3.08,-3.08,-3.08,-3.08,-3.08,-3.08,-3.08,-3.08,-3.08,-3.08,-3.08,-3.0799,-3.0771,-3.0765,-3.0757,-3.5898,-3.5996,-3.5996,-3.5996,-3.6504,-3.7598,-3.9609,-4.2051,-4.3691,-4.3691,-4.4941,-4.5293,-4.3867,-4.4707,-4.5156,-4.459,-4.5332,-4.5469,-4.4589,-4.3715,-4.3487,-4.4061,-4.1509,-3.9941,-3.9661,-3.8167,-3.6233,-3.3898,-3.3035,-3.2306,-3.1678,-3.0806,-3.0708,-3.137,-3.352,-3.5284,-3.6712,-3.8344,-3.8855,-3.845,-3.671,-3.6003,0.0,0.0,-3.5817,-3.5582,0.0,-3.5231,-3.4237,-3.4237,-3.3636,-3.287,-3.2849,-3.2746,-3.2693,-3.2986,-3.2791,-3.2573,-3.2862,-3.2325,0.0,-3.2333,-3.166,0.0,-3.1173,0.0,0.0,0.0,0.0,0.0,0.0,-3.0865,-3.075,-3.0442,-3.0404,-3.0519,0.0,-3.0596,0.0,0.0,0.0,-3.1231,0.0,0.0,-3.1814,-3.3199,0.0,0.0,0.0,0.0,-3.4567,-3.3435,-3.3103,-3.2245,-3.08,-3.08,-3.08,-3.08,-3.08,-3.08,-3.08,-3.08,-3.08,-3.08,-3.08,-3.08,-3.08,-3.08,-3.08,-3.08,-3.08,-3.08,-3.08,-3.08,-3.08,-3.0798,-3.6016,-3.6035,-3.6074,-3.6113,-3.7461,-3.8848,-3.9766,-4.1992,-4.3574,-4.3574,-4.4375,-4.459,-4.3672,-4.3652,-4.3672,-4.3633,-4.4433,-4.457,-4.375,-4.4382,-4.4827,-4.4922,-4.3868,-4.2948,-4.2254,-4.1206,-3.9054,-3.5756,-3.4731,-3.3398,-3.175,-3.0838,-3.0437,-3.0612,-3.3223,-3.4925,-3.6003,-3.8544,-3.92,-3.8386,-3.6739,-3.6033,-3.5994,-3.5994,0.0,-3.4744,-3.5621,-3.4821,-3.3338,-3.3338,-3.2753,-3.2026,-3.1965,-3.1943,-3.2085,-3.2854,-3.2447,-3.1913,-3.2662,-3.2273,-3.1647,-3.1698,0.0,0.0,0.0,0.0,-3.0635,0.0,0.0,0.0,0.0,-3.1641,-3.1365,-3.0538,-3.0404,-3.0692,-3.1525,-3.0923,-3.0981,0.0,0.0,0.0,-3.0462,-3.0423,-3.075,-3.1641,-3.182,-3.264,0.0,0.0,0.0,-3.3338,-3.2578,-3.1738,-3.08,-3.08,-3.08,-3.08,-3.08,-3.08,-3.08,-3.08,-3.08,-3.08,-3.08,-3.08,-3.08,-3.08,-3.08,-3.08,-3.08,-3.08,-3.08,-3.08,-3.08,-3.0799,-3.6133,-3.6523,-3.7168,-3.7812,-3.7773,-3.8144,-3.9668,-4.1016,-4.1836,-4.1836,-4.3125,-4.3476,-4.1992,-4.2949,-4.3437,-4.2793,-4.3535,-4.3945,-4.3711,-4.328,-4.3338,-4.4004,-4.2476,-4.1532,-4.1335,-3.9754,-3.8191,-3.6662,-3.4532,-3.325,-3.278,-3.1262,-3.0551,-3.0626,-3.2018,-3.3501,-3.5028,-3.6397,-3.7224,-3.7596,-3.7143,-3.6573,0.0,0.0,-3.5062,-3.3845,-3.4725,-3.3905,-3.2422,-3.2422,-3.1856,-3.1131,-3.1103,-3.1063,-3.1074,-3.127,-3.1145,-3.0936,-3.11,-3.098,-3.0939,-3.1549,-3.1212,-3.0846,0.0,0.0,0.0,0.0,0.0,0.0,0.0,0.0,-3.0654,-3.0442,-3.0404,-3.0481,-3.0692,-3.0538,0.0,-3.0981,0.0,0.0,0.0,-3.0788,-3.075,-3.1641,-3.182,0.0,0.0,0.0,0.0,-3.2461,-3.2851,-3.2342,-3.08,-3.08,-3.08,-3.08,-3.08,-3.08,-3.08,-3.08,-3.08,-3.08,-3.08,-3.08,-3.08,-3.08,-3.08,-3.08,-3.08,-3.08,-3.08,-3.08,-3.0795,-3.0783,-3.6738,-3.7578,-3.8594,-3.9082,-3.8769,-3.8769,-3.9746,-4.0937,-4.1601,-4.125,-4.2324,-4.2637,-4.1348,-4.2031,-4.2402,-4.1914,-4.2656,-4.2988,-4.2637,-4.2832,-4.3027,-4.3125,-4.2514,-4.2001,-4.1611,-4.0578,-3.9087,-3.7082,-3.5238,-3.3779,-3.2644,-3.1279,-3.0645,-3.0682,-3.1586,-3.2978,-3.4736,-3.6012,-3.6854,-3.7264,-3.6891,0.0,0.0,-3.5578,-3.4599,-3.3404,-3.3519,-3.2697,-3.1582,-3.1973,-3.1524,-3.08,-3.08,-3.0771,-3.0735,-3.0735,-3.0704,-3.0633,-3.0593,-3.0572,-3.0658,-3.1074,-3.081,-3.0568,-3.1031,-3.075,-3.0404,0.0,0.0,0.0,0.0,0.0,0.0,-3.0404,-3.0404,-3.0404,-3.0404,-3.0404,-3.0538,0.0,-3.0635,0.0,0.0,0.0,-3.1,-3.1115,0.0,0.0,0.0,0.0,0.0,-3.213,-3.2578,-3.2187,-3.08,-3.08,-3.08,-3.08,-3.08,-3.08,-3.08,-3.08,-3.08,-3.08,-3.08,-3.08,-3.08,-3.08,-3.08,-3.08,-3.08,-3.08,-3.08,-3.08,-3.0792,-3.0796,-3.7969,-3.9023,-4.0078,-4.0078,-4.0078,-4.0078,0.0,-4.1211,0.0,-4.1289,0.0,-4.1973,-4.1289,-4.1191,-4.1191,-4.1191,-4.1836,-4.1953,-4.125,-4.2558,-4.3027,-4.2285,-4.2969,-4.3027,-4.2266,-4.2063,-4.0413,-3.7214,-3.6167,-3.4406,-3.2002,-3.1122,-3.0726,-3.077,-3.1529,-3.2855,-3.4647,-3.6268,-3.7029,-3.7065,-3.6304,-3.5991,-3.5894,-3.5034,-3.4155,-3.3295,-3.2412,-3.1548,-3.0938,-3.168,-3.1426,-3.08,-3.08,-3.08,-3.08,-3.08,-3.0764,-3.0717,-3.0691,-3.0653,-3.0593,-3.0522,-3.0519,-3.0492,-3.0436,-3.0408,-3.0402,-3.0404,-3.0404,0.0,0.0,0.0,0.0,-3.0404,-3.0404,-3.0442,-3.0558,-3.0577,-3.0846,-3.1621,0.0,0.0,0.0,0.0,0.0,0.0,0.0,0.0,0.0,0.0,0.0,0.0,-3.2032,0.0,-3.08,0.0,-3.08,-3.08,-3.08,-3.08,-3.08,-3.08,-3.0742,-3.0645,-3.0742,-3.0742,-3.0644,-3.0761,-3.08,-3.08,-3.08,-3.08,-3.08,-3.08,-3.0792,-3.0798,-4.0547,-4.0762,-4.0976,-4.0976,-4.0976,-4.0976,-4.0976,-4.0605,-4.0547,-4.1113,-4.1328,-4.1367,-4.1211,-4.1191,-4.1191,-4.1191,-4.1328,0.0,0.0,0.0,0.0,-4.1426,-4.1562,-4.1562,-4.1406,-4.0683,-3.9316,-3.7285,-3.5682,-3.3962,-3.2146,-3.1267,-3.0857,-3.0878,-3.1014,-3.203,-3.3691,-3.4726,0.0,-3.6211,-3.6052,-3.5992,-3.5897,-3.5035,-3.4155,-3.3295,-3.2416,-3.1574,-3.0905,-3.0998,-3.0937,-3.08,-3.08,-3.08,-3.08,-3.08,-3.0798,-3.0768,-3.072,-3.0684,-3.0661,-3.0593,-3.0575,-3.0552,-3.0496,-3.0472,-3.0467,-3.0408,-3.0404,-3.0404,-3.0404,0.0,0.0,0.0,0.0,0.0,0.0,-3.1468,-3.1525,-3.1679,-3.1564,-3.125,0.0,0.0,0.0,0.0,0.0,0.0,0.0,0.0,0.0,0.0,0.0,0.0,0.0,0.0,0.0,-3.08,-3.08,-3.08,-3.08,-3.08,-3.0431,-2.9846,-3.0509,-3.0411,-2.9866,-3.0528,-3.08,-3.08,-3.08,-3.08,-3.08,-3.08,-3.0792,-3.0796,-4.2402,-4.25,-4.2344,-4.1894,-4.1816,0.0,0.0,-4.084,-4.0723,-4.1152,-4.1191,-4.1191,-4.1191,-4.1191,-4.1191,-4.1191,-4.1191,-4.1191,-4.1191,-4.1191,-4.1191,-4.1191,-4.1191,-4.1191,-4.1191,-4.0781,-3.9726,-3.7969,-3.623,-3.4492,-3.2793,-3.1504,-3.0898,-3.0937,-3.1816,-3.2637,0.0,0.0,0.0,-3.5996,-3.5995,-3.5722,-3.5234,-3.4354,-3.3514,-3.2655,-3.1794,-3.1227,-3.0893,-3.085,-3.085,-3.0849,-3.0846,-3.0845,-3.0844,-3.0801,-3.08,-3.0798,-3.0765,-3.0741,-3.0732,-3.0664,-3.065,-3.0633,-3.0576,-3.0199,-2.9995,-3.0365,-3.0088,-2.9913,-3.0319,-3.0404,0.0,0.0,0.0,0.0,0.0,0.0,-3.1019,-3.1019,-3.1019,-3.0865,0.0,0.0,0.0,0.0,0.0,0.0,0.0,0.0,0.0,0.0,0.0,0.0,0.0,0.0,0.0,-3.08,-3.08,-3.08,-3.0781,-3.0372,-3.0196,-3.0196,-2.9708,-2.9533,-2.9631,-3.0021,-3.0411,-3.08,-3.08,-3.08,-3.08,-3.08,-3.0796,-3.0807,-4.3594,-4.3691,-4.3379,-4.2324,-4.2148,0.0,-4.1308,-4.1191,-4.1191,-4.1191,-4.1191,-4.1191,-4.1191,-4.1191,-4.1191,-4.1191,-4.1191,-4.1191,-4.1191,-4.1191,-4.1191,-4.1191,-4.1191,-4.1191,-4.1191,-4.1191,-4.0351,-3.8594,-3.7031,-3.5293,-3.3379,-3.2051,-3.1426,0.0,0.0,0.0,0.0,0.0,-3.582,-3.5996,-3.5996,-3.5488,-3.4609,-3.373,-3.2891,-3.209,-3.121,-3.0897,-3.0897,-3.0896,-3.0895,-3.0894,-3.0891,-3.0909,-3.0889,-3.0845,-3.0823,-3.0822,-3.0822,-3.0801,-3.0795,-3.0732,-3.0587,-3.0438,-3.036,-2.9677,-2.9243,-2.9864,-2.9571,-2.9462,-3.0268,-3.0425,0.0,0.0,0.0,0.0,0.0,0.0,-3.0673,-3.0673,-3.0673,-3.0608,-3.0439,0.0,0.0,0.0,0.0,0.0,-3.0726,-3.0765,0.0,0.0,0.0,0.0,-3.08,0.0,-3.08,0.0,-3.08,-3.08,-3.0781,-3.0138,-3.0001,-3.0215,-2.9064,-2.8869,-2.9339,-2.9514,-2.9962,-3.0567,-3.0722,-3.08,-3.08,-3.08,-3.08,-3.0799,-4.3848,-4.3691,0.0,0.0,0.0,0.0,-4.1211,-4.1191,-4.1191,-4.1191,-4.1191,-4.1191,-4.1191,-4.1191,-4.1191,-4.1191,-4.1191,-4.1191,-4.1191,-4.1191,-4.1191,-4.1191,-4.1191,-4.1191,-4.1191,-4.1191,-4.0351,0.0,0.0,-3.5879,-3.3398,-3.3242,0.0,0.0,0.0,0.0,0.0,-3.4746,-3.5273,-3.5996,-3.5996,-3.5488,-3.4609,-3.373,-3.2891,-3.209,-3.1211,-3.0898,-3.0898,-3.0898,-3.0897,-3.0894,-3.0894,-3.0894,-3.0894,-3.0894,-3.0891,-3.0887,-3.0887,-3.0844,-3.08,-3.0798,-3.0232,-2.9679,-2.9539,-2.888,-2.8318,-2.8311,-2.884,-2.9536,-3.0346,-3.0487,-3.0472,0.0,0.0,0.0,0.0,0.0,-3.1583,-3.1583,-3.1583,-3.1297,0.0,0.0,0.0,0.0,0.0,0.0,-3.0706,-3.0765,0.0,-3.08,0.0,-3.08,-3.08,-3.08,0.0,-3.08,-3.08,-3.08,-3.08,-3.0722,-2.9902,-2.8576,-2.9202,-2.9084,-2.8479,-2.9261,-2.9631,-2.9788,-3.0528,-3.08,-3.08,-3.08,-3.08,-3.08,0.0,0.0,0.0,0.0,0.0,0.0,0.0,-4.117,-4.1191,-4.1191,-4.1191,-4.1191,-4.1191,-4.1191,-4.1191,-4.1191,-4.1191,-4.1191,-4.1191,-4.1191,-4.1191,-4.1191,-4.1191,-4.1191,-4.1191,-4.1191,-4.0605,0.0,0.0,0.0,0.0,0.0,0.0,0.0,0.0,-3.4375,-3.4726,-3.5254,-3.5684,-3.5996,-3.5996,-3.5488,-3.4609,-3.373,-3.2891,-3.209,-3.1211,-3.0898,-3.0898,-3.0898,-3.0898,-3.0897,-3.0897,-3.0896,-3.0896,-3.0895,-3.0893,-3.0892,-3.0892,-3.0871,-3.085,-3.085,-3.0616,-3.0223,-2.9642,-2.8877,-2.8241,-2.8165,-2.8764,-2.9407,-2.9726,-3.0211,-3.0552,0.0,0.0,0.0,0.0,0.0,0.0,-3.1032,-3.1032,-3.091,0.0,0.0,0.0,0.0,0.0,0.0,0.0,0.0,0.0,-3.08,0.0,-3.08,-3.08,-3.08,-3.08,-3.08,-3.08,-3.08,-3.0761,-2.9766,-2.8362,-2.682,-2.8205,-2.8615,-2.8323,-2.8674,-2.9416,-3.0353,-3.0664,-3.08,-3.08,-3.08,-3.08,-3.08,-4.3163,0.0,-4.2127,0.0,-4.142,-4.1072,-4.1072,-4.1112,-4.1143,-4.1143,-4.1143,-4.1167,-4.1191,-4.1191,-4.1191,-4.1191,-4.1191,-4.1191,-4.1191,-4.1191,-4.1191,-4.1191,-4.1191,0.0,-4.1191,-4.1191,-4.0898,-4.0273,-3.8789,0.0,0.0,0.0,0.0,0.0,-3.4805,-3.5078,-3.5117,-3.5742,-3.5996,-3.5996,-3.5996,-3.5488,-3.4609,-3.373,-3.2891,-3.209,-3.1211,-3.0898,-3.0898,-3.0898,-3.0898,-3.0898,-3.0898,-3.0898,-3.0897,-3.0897,-3.0896,-3.0895,-3.0895,-3.0895,-3.0894,-3.0894,-3.0718,-3.0288,-2.9426,-2.8547,-2.7899,-2.7851,-2.8266,-2.8779,-2.9265,-2.9868,-3.0351,0.0,0.0,0.0,0.0,-3.0593,0.0,-3.0593,-3.0593,-3.0603,-3.0626,0.0,0.0,0.0,0.0,0.0,0.0,0.0,0.0,0.0,0.0,0.0,0.0,0.0,-3.08,-3.08,-3.08,-3.08,-3.0742,-2.9338,-2.801,-2.6898,-2.7874,-2.8303,-2.8323,-2.8576,-2.9377,-3.047,-3.0703,-3.08,-3.08,-3.08,-3.08,-3.08,-4.238,-4.2205,-4.1951,-4.1149,-4.1013,-4.0994,-4.0994,-4.0994,-4.0994,-4.0994,-4.0994,-4.1057,-4.1191,-4.1191,-4.1191,-4.1191,-4.1191,-4.1191,-4.1191,-4.1191,-4.1191,0.0,0.0,-4.1191,-4.1191,-4.1191,-4.1191,-4.1172,0.0,0.0,-3.7246,0.0,0.0,-3.5976,-3.5976,-3.5976,-3.5976,-3.5996,-3.5996,-3.5996,-3.5996,-3.5488,-3.4609,-3.373,-3.2891,-3.209,-3.1211,-3.0898,-3.0898,-3.0898,-3.0898,-3.0898,-3.0898,-3.0898,-3.0898,-3.0898,-3.0898,-3.0897,-3.0897,-3.0896,-3.0894,-3.0894,-3.025,-2.939,-2.8511,-2.7633,-2.7028,-2.7007,-2.7026,-2.7527,-2.9186,-2.9509,-2.9742,-3.0471,0.0,0.0,0.0,0.0,0.0,-3.0593,-3.0593,-3.0623,-3.0684,0.0,0.0,0.0,0.0,0.0,0.0,0.0,0.0,-3.08,-3.08,0.0,-3.08,-3.08,-3.08,-3.08,-3.08,-3.08,-3.0761,-2.9962,-2.9573,-2.9514,-2.8654,-2.8303,-2.8362,-2.9221,-2.9592,-2.969,-3.0489,-3.08,-3.08,-3.08,-3.08,-3.08,-4.1166,-4.1139,-4.1092,-4.084,-4.0878,-4.0932,-4.0932,-4.0979,-4.099,-4.099,-4.099,-4.1028,-4.1061,-4.1091,-4.1146,0.0,-4.0664,-4.0312,0.0,-3.9766,-3.9434,-3.9434,-3.9434,-3.9434,-3.9434,-3.9434,-3.9434,-3.9434,0.0,0.0,0.0,-3.5859,-3.5723,-3.5996,-3.5996,-3.5996,-3.5996,-3.5996,-3.5996,-3.5996,-3.5996,-3.582,-3.543,-3.3965,-3.3242,-3.2832,-3.1406,-3.0898,-3.0898,-3.0898,-3.0898,-3.0898,-3.0898,-3.0898,-3.0898,-3.0898,-3.0898,-3.0898,-3.0898,-3.0898,-3.0898,-3.0898,-3.0683,-3.0253,-2.9374,-2.8045,-2.6833,-2.6246,-2.6597,-2.7337,-2.8462,-2.9164,-2.9844,-3.0666,0.0,0.0,0.0,0.0,-3.073,-3.073,-3.073,-3.0735,0.0,-3.0768,0.0,0.0,0.0,0.0,0.0,0.0,0.0,0.0,-3.08,0.0,-3.08,-3.08,-3.08,-3.08,-3.08,-3.0509,-2.9982,-3.0274,-2.9786,-2.8732,-2.9045,-2.9182,-2.9202,-2.9495,-2.9924,-3.0431,-3.0703,-3.08,-3.08,-3.08,-3.08,-3.08,-4.0607,-4.0628,-4.0661,-4.0661,-4.0757,-4.0812,-4.0812,-4.0878,-4.0807,-4.0477,-4.0438,-4.045,-4.0462,-4.051,0.0,-4.1128,-4.066,-4.0213,-3.9922,-3.9394,-3.8945,-3.8613,-3.8594,-3.8594,-3.8594,0.0,0.0,-3.8594,-3.7734,-3.7012,-3.6484,-3.6152,-3.5996,-3.5996,-3.5996,-3.5996,-3.5996,-3.5996,-3.5996,-3.5996,-3.5996,-3.5996,-3.5801,-3.4062,-3.3398,-3.3184,-3.1504,-3.0898,-3.0898,-3.0898,-3.0898,-3.0898,-3.0898,-3.0898,-3.0898,-3.0898,-3.0898,-3.0898,-3.0898,-3.0898,-3.0898,-3.0898,-3.0898,-3.0586,-2.9394,-2.8261,-2.7245,-2.6366,-2.6873,-2.7752,-2.863,-2.9235,-2.9898,-3.0754,0.0,-3.0889,-3.0848,0.0,0.0,0.0,0.0,0.0,0.0,-3.0803,0.0,0.0,0.0,0.0,0.0,0.0,0.0,-3.08,-3.08,0.0,-3.08,-3.08,-3.08,-3.08,-3.08,-3.0548,-3.0079,-3.0567,-3.0234,-2.9279,-2.9806,-3.004,-3.004,-3.004,-3.0353,-3.08,-3.08,-3.08,-3.08,-3.08,-3.08,-3.08,-4.0593,-4.0607,0.0,0.0,-4.0654,0.0,-4.0694,-4.0746,-4.05,-3.9688,-3.9597,-3.9586,-3.9592,-3.964,-4.0042,-4.092,0.0,0.0,0.0,-3.9746,-3.9316,-3.8437,-3.8418,0.0,-3.8496,-3.8516,-3.8516,-3.8516,-3.7695,-3.7266,-3.7187,-3.6387,-3.5996,-3.5996,-3.5996,-3.5996,-3.5996,-3.5996,-3.5996,-3.5996,-3.5996,-3.5996,-3.5801,-3.4062,-3.3398,-3.3184,-3.1504,-3.0898,-3.0898,-3.0898,-3.0898,-3.0898,-3.0898,-3.0898,-3.0898,-3.0898,-3.0898,-3.0898,-3.0898,-3.0898,-3.0898,-3.0898,-3.0898,-3.0469,-2.8769,-2.8398,-2.8144,-2.7266,-2.7734,-2.8574,-2.9432,-2.9608,-2.9881,-3.0758,-3.0895,-3.0894,-3.0894,0.0,0.0,0.0,0.0,0.0,0.0,-3.0844,-3.0801,0.0,0.0,0.0,0.0,0.0,-3.08,-3.08,-3.08,-3.08,-3.08,-3.08,-3.08,-3.08,-3.08,-3.08,-3.08,-3.08,-3.08,-3.08,-3.08,-3.08,-3.08,-3.08,-3.08,-3.08,-3.08,-3.08,-3.08,-3.08,-3.08,-3.08,0.0,0.0,-4.0603,-4.0603,-4.0619,-4.0621,-4.0621,-4.0674,-4.0655,-4.0443,-4.0468,-4.0248,-3.958,-4.0122,-4.0357,-3.9996,-3.9994,-3.9672,-3.8812,-3.8127,-3.7368,-3.6493,-3.6519,-3.6842,-3.7526,-3.7577,-3.7617,-3.7617,-3.7402,-3.6953,-3.6309,-3.6094,-3.5996,-3.5996,-3.5996,-3.5996,-3.5996,-3.5996,-3.5996,-3.5996,-3.5996,-3.5996,-3.5801,-3.4062,-3.3398,-3.3184,-3.1504,-3.0898,-3.0898,-3.0898,-3.0898,-3.0898,-3.0898,-3.0898,-3.0898,-3.0898,-3.0898,-3.0898,-3.0898,-3.0898,-3.0898,-3.0898,-3.0898,-3.0625,-2.9531,-2.9297,-2.9043,-2.8164,-2.8164,-2.8574,-2.9433,-2.9609,-2.9882,-3.076,-3.0897,-3.0896,-3.0895,-3.0894,0.0,0.0,-3.0894,-3.0893,-3.0893,-3.0889,-3.0886,0.0,0.0,0.0,0.0,0.0,-3.08,-3.08,-3.08,-3.08,-3.08,-3.08,-3.08,-3.08,-3.08,-3.08,-3.08,-3.08,-3.08,-3.08,-3.08,-3.08,-3.08,-3.08,-3.08,-3.08,-3.08,-3.08,-3.08,-3.08,-3.08,-3.08,-4.0496,-4.0531,-4.0546,-4.0546,-4.0576,-4.0605,-4.0605,-4.0633,-4.0519,-4.0152,-4.0133,-3.9973,-3.9509,-3.987,-4.0139,-4.0112,-4.0183,-3.9726,-3.8477,-3.7951,-3.7133,-3.5869,-3.5838,-3.6261,-3.7136,-3.7198,-3.7212,-3.724,-3.685,-3.6424,-3.5996,-3.5996,-3.5996,-3.5996,-3.5996,-3.5996,-3.5996,-3.5996,-3.5996,-3.5996,-3.5996,-3.5996,-3.5859,-3.4512,-3.375,-3.3223,-3.1953,-3.123,-3.0898,-3.0898,-3.0898,-3.0898,-3.0898,-3.0898,-3.0898,-3.0898,-3.0898,-3.0898,-3.0898,-3.0898,-3.0898,-3.0898,-3.0898,-3.0664,-2.9805,-2.9902,-2.9941,-2.9062,-2.9219,-2.9629,-3.0117,-3.0195,-3.0351,-3.082,-3.0898,-3.0898,-3.0897,-3.0897,0.0,-3.0897,-3.0897,-3.0896,-3.0896,-3.0893,-3.0891,-3.0891,0.0,0.0,-3.0845,-3.0844,-3.0823,-3.08,-3.08,-3.08,-3.08,-3.08,-3.08,-3.08,-3.08,-3.08,-3.08,-3.08,-3.08,-3.08,-3.08,-3.08,-3.08,-3.08,-3.08,-3.08,-3.08,-3.08,-3.08,-3.08,-3.08,-3.08,-4.0496,-4.0496,-4.0496,-4.0496,-4.0558,-4.058,-4.058,-4.0598,-4.0349,-3.9667,-3.9571,-3.9539,-3.9404,-3.9508,-3.9824,-4.0455,-4.0721,-4.0154,-3.8484,-3.8371,-3.7592,-3.5859,-3.5771,-3.6183,-3.7076,-3.7224,-3.7252,-3.7173,-3.6433,-3.6038,-3.5974,-3.5974,-3.5975,-3.5976,-3.5976,-3.5996,-3.5996,-3.5996,-3.5996,-3.5996,-3.5996,-3.5996,-3.5898,-3.5039,-3.416,-3.3281,-3.248,-3.1641,-3.0898,-3.0898,-3.0898,-3.0898,-3.0898,-3.0898,-3.0898,-3.0898,-3.0898,-3.0898,-3.0898,-3.0898,-3.0898,-3.0898,-3.0898,-3.0703,-2.9961,-3.0371,-3.0684,-2.9941,-3.0371,-3.0898,-3.0898,-3.0898,-3.0898,-3.0898,-3.0898,-3.0898,-3.0898,0.0,-3.0898,-3.0898,-3.0898,-3.0897,-3.0897,-3.0896,-3.0895,-3.0895,-3.0894,0.0,0.0,-3.0887,-3.0865,-3.08,-3.08,-3.08,-3.08,-3.08,-3.08,-3.08,-3.08,-3.08,-3.08,-3.08,-3.08,-3.08,-3.08,-3.08,-3.08,-3.08,-3.08,-3.08,-3.08,-3.08,-3.08,-3.08,-3.08,-3.08,-4.0496,-4.0496,-4.0496,-4.0496,-4.0504,-4.0523,-4.0523,-4.0554,-4.0557,-4.0422,-4.0412,-4.0144,-3.9462,-4.0016,-4.019,-3.9642,-4.0236,-3.996,-3.8341,-3.823,-3.748,-3.5795,-3.572,-3.613,-3.6989,-3.78,-3.7848,-3.7116,-3.6979,-3.6533,-3.5836,-3.5836,-3.5855,-3.5921,-3.5921,-3.595,-3.5996,-3.5996,-3.5996,-3.5996,-3.5996,-3.5996,-3.5898,-3.5039,-3.416,-3.3281,-3.248,-3.1641,-3.0898,-3.0898,-3.0898,-3.0898,-3.0898,-3.0898,-3.0898,-3.0898,-3.0898,-3.0898,-3.0898,-3.0898,-3.0898,-3.0898,-3.0898,-3.0859,-3.0723,-3.0801,-3.0859,-3.0723,-3.0801,-3.0898,-3.0898,-3.0898,-3.0898,-3.0898,-3.0898,-3.0898,0.0,0.0,-3.0898,-3.0898,-3.0898,-3.0898,-3.0898,-3.0897,-3.0897,-3.0897,-3.0892,-3.0908,-3.0907,-3.0844,-3.0801,-3.08,-3.08,-3.08,-3.08,-3.08,-3.08,-3.08,-3.08,-3.08,-3.08,-3.08,-3.08,-3.08,-3.08,-3.08,-3.08,-3.08,-3.08,-3.08,-3.08,-3.08,-3.08,-3.08,-3.08,-3.08,-4.0496,-4.0496,-4.0496,-4.0496,-4.0496,-4.0496,-4.0496,-4.0531,-4.0558,-4.0558,-4.0554,-4.0395,-4.0022,-4.0352,-4.0444,-4.0089,-4.0381,-4.01,-3.893,-3.8852,-3.8304,-3.7093,-3.7058,-3.723,-3.7642,-3.7617,-3.7412,-3.7046,-3.6579,-3.6168,-3.5791,-3.5791,-3.5824,-3.5845,-3.5845,-3.5857,-3.5893,-3.5893,-3.5893,-3.5893,-3.5893,-3.5901,-3.5891,-3.5501,-3.4822,-3.3984,-3.3144,-3.2305,-3.1523,-3.1055,-3.0898,-3.0898,-3.0898,-3.0898,-3.0898,-3.0898,-3.0898,-3.0898,-3.0898,-3.0898,-3.0898,-3.0898,-3.0898,-3.0898,-3.0898,-3.0898,-3.0898,-3.0898,-3.0898,-3.0898,-3.0898,-3.0898,-3.0898,-3.0898,-3.0898,0.0,0.0,-3.0898,-3.0898,-3.0898,-3.0898,-3.0898,-3.0898,-3.0898,-3.0898,-3.0898,-3.0896,-3.0893,-3.0892,-3.0867,-3.0844,-3.08,-3.08,-3.08,-3.08,-3.08,-3.08,-3.08,-3.08,-3.08,-3.08,-3.08,-3.08,-3.08,-3.08,-3.08,-3.08,-3.08,-3.08,-3.08,-3.08,-3.08,-3.08,-3.08,-3.08,-3.08,-4.0496,-4.0496,-4.0496,-4.0496,-4.0496,-4.0496,-4.0496,-4.0496,-4.0496,-4.0496,-4.0496,-4.0496,-4.0496,-4.0558,-4.0573,-4.0573,-4.0583,-4.0316,-3.9704,-3.9669,-3.9232,-3.8215,-3.7983,-3.786,-3.786,-3.7035,-3.6616,-3.6663,-3.6008,-3.5698,-3.5739,-3.5765,-3.5775,-3.5788,-3.5788,-3.5797,-3.5791,-3.5791,-3.5791,-3.5791,-3.5791,-3.5836,-3.5884,-3.5884,-3.5372,-3.4566,-3.3687,-3.2868,-3.2049,-3.1171,-3.0898,-3.0898,-3.0898,-3.0898,-3.0898,-3.0898,-3.0898,-3.0898,-3.0898,-3.0898,-3.0898,-3.0898,-3.0898,-3.0898,-3.0898,-3.0898,-3.0898,-3.0898,-3.0898,-3.0898,-3.0898,-3.0898,-3.0898,-3.0898,0.0,0.0,0.0,-3.0898,-3.0898,-3.0898,-3.0898,-3.0898,-3.0898,-3.0898,-3.0898,-3.0898,-3.0898,-3.0818,-3.0601,-3.0597,-3.0574,-3.0495,-3.0686,-3.08,-3.08,-3.08,-3.08,-3.08,-3.08,-3.08,-3.08,-3.08,-3.08,-3.08,-3.08,-3.08,-3.08,-3.08,-3.08,-3.08,-3.08,-3.08,-3.08,-3.08,-3.08,-3.08,-4.0496,-4.0496,-4.0496,-4.0496,-4.0496,-4.0496,-4.0496,-4.0496,-4.0496,-4.0496,-4.0496,-4.0496,-4.0496,-4.0496,-4.0516,-4.0516,-4.0504,-4.0485,-4.0427,-4.0477,-3.98,-3.8189,-3.7321,-3.6903,-3.6903,-3.6099,-3.5706,-3.5693,-3.5645,-3.5604,-3.5615,-3.5681,-3.5704,-3.5706,-3.5706,-3.5732,-3.5791,-3.5791,-3.5791,-3.5791,-3.5791,-3.5794,-3.5816,-3.5816,-3.5312,-3.4494,-3.3622,-3.2787,-3.197,-3.1095,-3.0854,-3.0898,-3.0898,-3.0898,-3.0898,-3.0898,-3.0898,-3.0898,-3.0898,-3.0898,-3.0898,-3.0898,-3.0898,-3.0898,-3.0898,-3.0898,-3.0898,-3.0898,-3.0898,-3.0898,-3.0898,-3.0898,-3.0898,-3.0898,0.0,0.0,-3.0898,-3.0898,-3.0898,-3.0898,-3.0898,-3.0898,-3.0898,-3.0898,-3.0898,-3.0898,-3.0898,-3.0545,-2.9742,-2.9699,-2.9661,-2.9608,-3.038,-3.08,-3.08,-3.08,-3.08,-3.08,-3.08,-3.08,-3.08,-3.08,-3.08,-3.08,-3.08,-3.08,-3.08,-3.08,-3.08,-3.08,-3.08,-3.08,-3.08,-3.08,-3.08,-3.08,-4.0496,-4.0496,-4.0496,-4.0496,-4.0496,-4.0496,-4.0496,-4.0496,-4.0496,-4.0496,-4.0496,-4.0496,-4.0496,-4.0496,-4.0496,-4.0496,-4.0496,-4.0496,-4.0496,-4.0531,-4.0041,-3.8948,-3.8594,-3.7919,-3.6826,-3.6492,-3.6093,-3.5598,-3.561,-3.5596,-3.5596,-3.5628,-3.5637,-3.5637,-3.5637,-3.5644,-3.5684,-3.5684,-3.5684,-3.5684,-3.5684,-3.5706,-3.5749,-3.5749,-3.5571,-3.5165,-3.3785,-3.3095,-3.2621,-3.1219,-3.0776,-3.0832,-3.0832,-3.0877,-3.0898,-3.0898,-3.0898,-3.0898,-3.0898,-3.0898,-3.0898,-3.0898,-3.0898,-3.0898,-3.0898,-3.0898,-3.0898,-3.0898,-3.0898,-3.0898,-3.0898,-3.0898,-3.0898,-3.0898,0.0,-3.0898,-3.0898,-3.0898,-3.0898,-3.0898,-3.0898,-3.0898,-3.0898,-3.0898,-3.0684,-3.0137,-3.0097,-2.9705,-2.8845,-2.875,-2.8711,-2.8688,-2.953,-3.0254,-3.0781,-3.0801,-3.0801,-3.0801,-3.0801,-3.0801,-3.0801,-3.0801,-3.0799,-3.0795,-3.0795,-3.079,-3.08,-3.08,-3.08,-3.08,-3.08,-3.08,-3.08,-3.08,-3.08,-3.08,-4.0496,-4.0496,-4.0496,-4.0496,-4.0496,-4.0496,-4.0496,-4.0496,-4.0496,-4.0496,-4.0496,-4.0496,-4.0496,-4.0496,-4.0496,-4.0496,-4.0496,-4.0496,-4.0496,-4.0496,-4.0269,-3.9762,-3.9492,-3.8683,-3.7198,-3.6903,-3.6363,-3.556,-3.5573,-3.556,-3.5566,-3.5591,-3.5598,-3.5598,-3.5598,-3.5598,-3.5598,-3.5598,-3.5598,-3.5598,-3.5598,-3.5618,-3.5664,-3.5664,-3.5706,-3.5527,-3.3831,-3.3249,-3.2998,-3.1268,-3.0717,-3.0768,-3.0768,-3.0801,-3.0834,-3.0857,-3.0877,-3.0877,-3.0898,-3.0898,-3.0898,-3.0898,-3.0898,-3.0898,-3.0898,-3.0898,-3.0898,-3.0898,-3.0898,-3.0898,-3.0898,-3.0898,-3.0898,-3.0898,-3.0898,-3.0898,-3.0898,-3.0898,-3.0801,-3.0527,-3.0488,-3.0371,-3.0117,-3.0078,-2.9844,-2.9238,-2.918,-2.8789,-2.7909,-2.7827,-2.7799,-2.7787,-2.8879,-2.9757,-3.0344,-3.0654,-3.0797,-3.0797,-3.0797,-3.0797,-3.0797,-3.0797,-3.0799,-3.0801,-3.0801,-3.08,-3.0795,-3.0795,-3.0793,-3.0809,-3.0809,-3.0806,-3.08,-3.08,-3.08,-3.08,-4.0496,-4.0496,-4.0496,-4.0496,-4.0496,-4.0496,-4.0496,-4.0496,-4.0496,-4.0496,-4.0496,-4.0496,-4.0496,-4.0496,-4.0496,-4.0496,-4.0496,-4.0496,-4.0496,-4.0496,-4.0496,-4.0496,-3.9746,-3.8892,-3.8027,-3.7161,-3.6327,-3.5519,-3.5509,-3.5509,-3.5509,-3.556,-3.5598,-3.5598,-3.5598,-3.5598,-3.5598,-3.5598,-3.5598,-3.5598,-3.5598,-3.5598,-3.5598,-3.5598,-3.5596,-3.5369,-3.3702,-3.3147,-3.2932,-3.1192,-3.0642,-3.0709,-3.0709,-3.0709,-3.0717,-3.0773,-3.08,-3.0806,-3.0878,-3.0898,-3.0898,-3.0898,-3.0898,-3.0898,-3.0898,-3.0898,-3.0898,-3.0898,-3.0898,-3.0898,-3.0898,-3.0898,-3.0898,-3.0898,-3.0898,-3.0898,-3.0898,-3.0898,-3.0586,-2.9707,-2.9609,-2.9258,-2.8379,-2.8301,-2.8301,-2.8281,-2.8217,-2.779,-2.6945,-2.6897,-2.6889,-2.6892,-2.851,-2.9388,-2.9399,-3.0321,-3.0797,-3.0797,-3.0797,-3.0797,-3.0797,-3.0797,-3.0797,-3.0797,-3.0797,-3.0797,-3.0797,-3.0797,-3.08,-3.0799,-3.0799,-3.0795,-3.0801,-3.0801,-3.0801,-3.08,-4.0496,-4.0496,-4.0496,-4.0496,-4.0496,-4.0496,-4.0496,-4.0496,-4.0496,-4.0496,-4.0496,-4.0496,-4.0496,-4.0496,-4.0496,-4.0496,-4.0496,-4.0496,-4.0496,-4.0496,-4.0496,-4.0496,-4.0265,-3.9477,-3.8027,-3.8334,-3.7815,-3.6346,-3.6341,-3.604,-3.5501,-3.5515,-3.5534,-3.5534,-3.5534,-3.5534,-3.5534,-3.5534,-3.5534,-3.5534,-3.5534,-3.5534,-3.5522,-3.5522,-3.5566,-3.5378,-3.3697,-3.3105,-3.2876,-3.1176,-3.0603,-3.0636,-3.0699,-3.0709,-3.0694,-3.0726,-3.0728,-3.0732,-3.0742,-3.0765,-3.0776,-3.0878,-3.0898,-3.0898,-3.0898,-3.0898,-3.0898,-3.0898,-3.0898,-3.0898,-3.0898,-3.0898,-3.0898,-3.0898,-3.0856,-3.083,-3.083,-3.0798,-3.0434,-2.9556,-2.9458,-2.9148,-2.8311,-2.8233,-2.798,-2.7354,-2.6739,-2.6248,-2.5928,-2.5912,-2.5921,-2.5925,-2.7595,-2.8492,-2.8495,-2.9985,-3.0733,-3.0733,-3.0786,-3.0794,-3.0794,-3.0794,-3.0806,-3.0801,-3.0801,-3.0809,-3.0797,-3.0797,-3.0798,-3.08,-3.08,-3.08,-3.0801,-3.0801,-3.08,-3.0797,-4.0496,-4.0496,-4.0496,-4.0496,-4.0496,-4.0496,-4.0496,-4.0496,-4.0496,-4.0496,-4.0496,-4.0496,-4.0496,-4.0496,-4.0496,-4.0496,-4.0496,-4.0496,-4.0496,-4.0496,-4.0496,-4.0496,-4.0496,-3.9727,-3.8046,-3.8527,-3.793,-3.6231,-3.6231,-3.5981,-3.55,-3.55,-3.55,-3.55,-3.55,-3.55,-3.55,-3.55,-3.55,-3.55,-3.55,-3.5494,-3.5502,-3.5502,-3.5528,-3.5348,-3.3662,-3.3056,-3.2803,-3.1129,-3.0591,-3.0614,-3.0642,-3.0656,-3.0662,-3.067,-3.0656,-3.0661,-3.0684,-3.0709,-3.0722,-3.0803,-3.0828,-3.0832,-3.0898,-3.0878,-3.0877,-3.0898,-3.0898,-3.0898,-3.0898,-3.0878,-3.0856,-3.0856,-3.0803,-3.0764,-3.0764,-3.0726,-3.026,-2.9072,-2.8935,-2.8468,-2.7283,-2.7166,-2.6944,-2.6398,-2.5868,-2.5549,-2.5506,-2.5502,-2.5492,-2.549,-2.7179,-2.8063,-2.8062,-2.979,-3.0669,-3.0704,-3.0742,-3.077,-3.0751,-3.0762,-3.0762,-3.0765,-3.0792,-3.0804,-3.0798,-3.0798,-3.0803,-3.0809,-3.0765,-3.0789,-3.0797,-3.0793,-3.0798,-3.0801,-4.0496,-4.0496,-4.0496,-4.0496,-4.0496,-4.0496,-4.0496,-4.0496,-4.0496,-4.0496,-4.0496,-4.0496,-4.0496,-4.0496,-4.0496,-4.0496,-4.0496,-4.0496,-4.0496,-4.0496,-4.0496,-4.0496,-4.0496,-3.9727,-3.8046,-3.8084,-3.7296,-3.5615,-3.5615,-3.5577,-3.55,-3.55,-3.55,-3.55,-3.55,-3.55,-3.55,-3.55,-3.55,-3.55,-3.55,-3.55,-3.55,-3.55,-3.5508,-3.529,-3.3672,-3.306,-3.2742,-3.1065,-3.053,-3.0593,-3.0593,-3.0598,-3.0597,-3.0603,-3.0605,-3.062,-3.0661,-3.0697,-3.0697,-3.0682,-3.0699,-3.0722,-3.0855,-3.0832,-3.0804,-3.0877,-3.0878,-3.0878,-3.0878,-3.0831,-3.0798,-3.0798,-3.0732,-3.0682,-3.0682,-3.0699,-3.009,-2.8488,-2.8235,-2.7537,-2.5862,-2.5628,-2.5571,-2.5498,-2.5492,-2.5525,-2.5608,-2.5604,-2.5642,-2.5724,-2.7275,-2.8126,-2.8126,-2.9771,-3.0622,-3.0687,-3.069,-3.0694,-3.0694,-3.0704,-3.0697,-3.07,-3.0764,-3.0794,-3.0794,-3.0794,-3.0798,-3.0783,-3.0724,-3.0744,-3.0791,-3.0799,-3.0783,-3.0793,-4.0496,-4.0496,-4.0496,-4.0496,-4.0496,-4.0496,-4.0496,-4.0496,-4.0496,-4.0496,-4.0496,-4.0496,-4.0496,-4.0496,-4.0496,-4.0496,-4.0496,-4.0496,-4.0496,-4.0496,-4.0496,-4.0496,-4.0496,-3.9727,-3.8046,-3.8661,-3.8161,-3.6442,-3.6442,-3.6115,-3.55,-3.55,-3.55,-3.55,-3.55,-3.55,-3.55,-3.55,-3.55,-3.55,-3.55,-3.55,-3.55,-3.55,-3.5507,-3.5366,-3.4328,-3.3537,-3.2746,-3.1077,-3.0505,-3.0525,-3.0525,-3.0559,-3.0602,-3.0606,-3.0591,-3.0595,-3.0617,-3.0621,-3.0618,-3.0623,-3.0614,-3.0645,-3.0717,-3.073,-3.0726,-3.0735,-3.0737,-3.0737,-3.0737,-3.073,-3.0724,-3.0724,-3.0661,-3.062,-3.062,-3.0626,-3.0233,-2.9187,-2.845,-2.7636,-2.6563,-2.5889,-2.5513,-2.5499,-2.5495,-2.5778,-2.6416,-2.6435,-2.6745,-2.7449,-2.8474,-2.9016,-2.9016,-3.0065,-3.0615,-3.0622,-3.0676,-3.0694,-3.0694,-3.0701,-3.0704,-3.0704,-3.0711,-3.0714,-3.0714,-3.0714,-3.0724,-3.0713,-3.0704,-3.0713,-3.0728,-3.0719,-3.0725,-3.0717,-4.0496,-4.0496,-4.0496,-4.0496,-4.0496,-4.0496,-4.0496,-4.0496,-4.0496,-4.0496,-4.0496,-4.0496,-4.0496,-4.0496,-4.0496,-4.0496,-4.0496,-4.0496,-4.0496,-4.0496,-4.0496,-4.0496,-4.0131,-3.9323,-3.8027,-3.8046,-3.743,-3.6135,-3.6135,-3.5904,-3.55,-3.55,-3.55,-3.55,-3.55,-3.55,-3.55,-3.55,-3.55,-3.55,-3.55,-3.55,-3.55,-3.55,-3.55,-3.5385,-3.4501,-3.3429,-3.2176,-3.0901,-3.0465,-3.0491,-3.0505,-3.0515,-3.0559,-3.0559,-3.0559,-3.0559,-3.0593,-3.0598,-3.0592,-3.0602,-3.0595,-3.0628,-3.0684,-3.0689,-3.0659,-3.0684,-3.0709,-3.0709,-3.0709,-3.0669,-3.065,-3.065,-3.0628,-3.0595,-3.0595,-3.0591,-3.0288,-2.9399,-2.89,-2.8103,-2.6822,-2.671,-2.6517,-2.6107,-2.6459,-2.6884,-2.731,-2.7329,-2.7522,-2.7991,-2.8842,-2.9306,-2.9306,-3.0153,-3.0592,-3.0595,-3.064,-3.0653,-3.0653,-3.0653,-3.0642,-3.0642,-3.0683,-3.0694,-3.0694,-3.0694,-3.0694,-3.069,-3.0649,-3.0676,-3.069,-3.0649,-3.0674,-3.0691,-4.0496,-4.0496,-4.0496,-4.0496,-4.0496,-4.0496,-4.0496,-4.0496,-4.0496,-4.0496,-4.0496,-4.0496,-4.0496,-4.0496,-4.0496,-4.0496,-4.0496,-4.0496,-4.0496,-4.0496,-4.0496,-4.0496,-3.9861,-3.9111,-3.8238,-3.7373,-3.6462,-3.55,-3.55,-3.55,-3.55,-3.55,-3.55,-3.55,-3.55,-3.55,-3.55,-3.55,-3.55,-3.55,-3.55,-3.55,-3.55,-3.55,-3.55,-3.5404,-3.468,-3.3333,-3.1779,-3.0906,-3.0554,-3.0481,-3.0479,-3.049,-3.051,-3.051,-3.0491,-3.0501,-3.0564,-3.0593,-3.0598,-3.0598,-3.0598,-3.06,-3.0655,-3.0614,-3.0609,-3.0647,-3.0678,-3.0678,-3.0681,-3.0636,-3.0595,-3.0595,-3.0593,-3.0598,-3.0598,-3.0598,-3.0327,-2.9611,-2.9384,-2.8664,-2.7073,-2.758,-2.7701,-2.6977,-2.758,-2.8068,-2.8204,-2.8223,-2.8281,-2.8436,-2.9152,-2.9515,-2.9515,-3.023,-3.0598,-3.0598,-3.0598,-3.0598,-3.0598,-3.0595,-3.0593,-3.0597,-3.0657,-3.0672,-3.0672,-3.0672,-3.0672,-3.0688,-3.061,-3.0637,-3.0688,-3.0629,-3.0641,-3.0668,-4.0496,-4.0496,-4.0496,-4.0496,-4.0496,-4.0496,-4.0496,-4.0496,-4.0496,-4.0496,-4.0496,-4.0496,-4.0496,-4.0496,-4.0496,-4.0496,-4.0496,-4.0496,-4.0496,-4.0496,-4.0496,-4.0496,-4.04,-3.9958,-3.915,-3.8277,-3.7065,-3.55,-3.55,-3.55,-3.55,-3.55,-3.55,-3.55,-3.55,-3.55,-3.55,-3.55,-3.55,-3.55,-3.55,-3.55,-3.55,-3.55,-3.55,-3.5481,-3.5365,-3.4218,-3.2609,-3.1801,-3.1035,-3.0409,-3.0403,-3.0444,-3.0509,-3.0509,-3.05,-3.0496,-3.052,-3.0559,-3.0598,-3.0598,-3.0598,-3.0598,-3.0544,-3.0516,-3.0525,-3.052,-3.0525,-3.053,-3.0595,-3.0606,-3.0597,-3.0597,-3.0607,-3.0598,-3.0598,-3.0598,-3.0559,-3.0443,-2.9766,-2.8919,-2.7914,-2.7933,-2.7952,-2.7836,-2.7933,-2.8339,-2.9074,-2.9113,-2.9476,-3.0211,-3.0366,-3.0424,-3.0424,-3.054,-3.0598,-3.0598,-3.0598,-3.0598,-3.0598,-3.0602,-3.0607,-3.0607,-3.0616,-3.0616,-3.0616,-3.0616,-3.0616,-3.0616,-3.0592,-3.0612,-3.0616,-3.0592,-3.0612,-3.0616,-4.0496,-4.0496,-4.0496,-4.0496,-4.0496,-4.0465,-4.0347,-4.033,-4.0276,-4.0129,-4.011,-4.0176,-4.0321,-4.0441,-4.0457,-4.0339,-4.0441,-4.0496,-4.0496,-4.0496,-4.0496,-4.0496,-4.0073,-3.9669,-3.9304,-3.7969,-3.6904,-3.6173,-3.5712,-3.55,-3.55,-3.55,-3.55,-3.55,-3.55,-3.55,-3.55,-3.55,-3.55,-3.55,-3.55,-3.55,-3.55,-3.55,-3.55,-3.5442,-3.4949,-3.3968,-3.2776,-3.1968,-3.112,-3.0392,-3.0394,-3.0411,-3.0439,-3.0439,-3.0444,-3.046,-3.0486,-3.0525,-3.0535,-3.0535,-3.0535,-3.0525,-3.046,-3.043,-3.0441,-3.0491,-3.0496,-3.052,-3.053,-3.0569,-3.0593,-3.0554,-3.0588,-3.0598,-3.0598,-3.0598,-3.0598,-3.0598,-3.0269,-2.9669,-2.8803,-2.9171,-2.9248,-2.8765,-2.919,-2.9611,-3.0017,-3.0037,-3.0192,-3.0598,-3.0598,-3.0598,-3.0598,-3.0598,-3.0598,-3.0598,-3.0598,-3.0598,-3.0598,-3.0598,-3.0598,-3.0598,-3.0598,-3.0598,-3.0598,-3.0598,-3.0598,-3.0598,-3.0598,-3.0598,-3.0598,-3.0598,-3.0598,-3.0598]},{"header":{"parameterUnit":"m.s-1","parameterCategory":1,"la1":30.6,"la2":28.766,"lo1":-90.7593,"lo2":-88.6598,"dy":0.0162,"dx":0.0183,"nx":116,"ny":114,"refTime":"2024-06-01T12:00:00:Z","depth":0,"parameterNumber":3,"parameterNumberName":"V-component_of_WINDS"},"data":[0.0,0.0,0.0,0.0,0.0,0.0,0.0,0.0,0.0,0.0,0.0,0.0,0.0,0.0,0.0,0.0,0.0,0.0,0.0,0.0,0.0,0.0,0.0,0.0,0.0,0.0,0.0,0.0,0.0,0.0,0.0,0.0,0.0,0.0,0.0,0.0,0.0,0.0,0.0,0.0,0.0,0.0,0.0,0.0,0.0,0.0,0.0,0.0,0.0,0.0,0.0,0.0,0.0,0.0,0.0,0.0,0.0,0.0,0.0,0.0,0.0,0.0,0.0,0.0,0.0,0.0,0.0,0.0,0.0,0.0,0.0,0.0,0.0,0.0,0.0,0.0,0.0,0.0,0.0,0.0,0.0,0.0,0.0,0.0,0.0,0.0,0.0,0.0,0.0,0.0,0.0,0.0,0.0,0.0,0.0,0.0,0.0,0.0,0.0,0.0,0.0,0.0,0.0,0.0,0.0,0.0,0.0,0.0,0.0,0.0,0.0,0.0,0.0,0.0,0.0,0.0,0.0,0.0,0.0,0.0,0.0,0.0,0.0,0.0,0.0,0.0,0.0,0.0,0.0,0.0,0.0,0.0,0.0,0.0,0.0,0.0,0.0,0.0,0.0,0.0,0.0,0.0,0.0,0.0,0.0,0.0,0.0,0.0,0.0,0.0,0.0,0.0,0.0,0.0,0.0,0.0,0.0,0.0,0.0,0.0,0.0,0.0,0.0,0.0,0.0,0.0,0.0,0.0,0.0,0.0,0.0,0.0,0.0,0.0,0.0,0.0,0.0,0.0,0.0,0.0,0.0,0.0,0.0,0.0,0.0,0.0,0.0,0.0,0.0,0.0,0.0,0.0,0.0,0.0,0.0,0.0,0.0,0.0,0.0,0.0,0.0,0.0,0.0,0.0,0.0,0.0,0.0,0.0,0.0,0.0,0.0,0.0,0.0,0.0,0.0,0.0,0.0,0.0,0.0,0.0,0.0,0.0,0.0,0.0,0.0,0.0,0.0,0.0,0.0,0.0,0.0,0.0,0.0,0.0,0.0,0.0,0.0,0.0,0.0,0.0,0.0,0.0,0.0,0.0,0.0,0.0,0.0,0.0,0.0,0.0,0.0,0.0,0.0,0.0,0.0,0.0,0.0,0.0,0.0,0.0,0.0,0.0,0.0,0.0,0.0,0.0,0.0,0.0,0.0,0.0,0.0,0.0,0.0,0.0,0.0,0.0,0.0,0.0,0.0,0.0,0.0,0.0,0.0,0.0,0.0,0.0,0.0,0.0,0.0,0.0,0.0,0.0,0.0,0.0,0.0,0.0,0.0,0.0,0.0,0.0,0.0,0.0,0.0,0.0,0.0,0.0,0.0,0.0,0.0,0.0,0.0,0.0,0.0,0.0,0.0,0.0,0.0,0.0,0.0,0.0,0.0,0.0,0.0,0.0,0.0,0.0,0.0,0.0,0.0,0.0,0.0,0.0,0.0,0.0,0.0,0.0,0.0,0.0,0.0,0.0,0.0,0.0,0.0,0.0,0.0,0.0,0.0,0.0,0.0,0.0,0.0,0.0,0.0,0.0,0.0,0.0,0.0,0.0,0.0,0.0,0.0,0.0,0.0,0.0,0.0,0.0,0.0,0.0,0.0,0.0,0.0,0.0,0.0,0.0,0.0,0.0,0.0,0.0,0.0,0.0,0.0,0.0,0.0,0.0,0.0,0.0,0.0,0.0,0.0,0.0,0.0,0.0,0.0,0.0,0.0,0.0,0.0,0.0,0.0,0.0,0.0,0.0,0.0,0.0,0.0,0.0,0.0,0.0,0.0,0.0,0.0,0.0,0.0,0.0,0.0,0.0,0.0,0.0,0.0,0.0,0.0,0.0,0.0,0.0,0.0,0.0,0.0,0.0,0.0,0.0,0.0,0.0,0.0,0.0,0.0,0.0,0.0,0.0,0.0,0.0,0.0,0.0,0.0,0.0,0.0,0.0,0.0,0.0,0.0,0.0,0.0,0.0,0.0,0.0,0.0,0.0,0.0,0.0,0.0,0.0,0.0,0.0,0.0,0.0,0.0,0.0,0.0,0.0,0.0,0.0,0.0,0.0,0.0,0.0,0.0,0.0,0.0,0.0,0.0,0.0,0.0,0.0,0.0,0.0,0.0,0.0,0.0,0.0,0.0,0.0,0.0,0.0,0.0,0.0,0.0,0.0,0.0,0.0,0.0,0.0,0.0,0.0,0.0,0.0,0.0,0.0,0.0,0.0,0.0,0.0,0.0,0.0,0.0,0.0,0.0,0.0,0.0,0.0,0.0,0.0,0.0,0.0,0.0,0.0,0.0,0.0,0.0,0.0,0.0,0.0,0.0,0.0,0.0,0.0,0.0,0.0,0.0,0.0,0.0,0.0,0.0,0.0,0.0,0.0,0.0,0.0,0.0,0.0,0.0,0.0,0.0,0.0,0.0,0.0,0.0,0.0,0.0,0.0,0.0,0.0,0.0,0.0,0.0,0.0,0.0,0.0,0.0,0.0,0.0,0.0,0.0,0.0,0.0,0.0,0.0,0.0,0.0,0.0,0.0,0.0,0.0,0.0,0.0,0.0,0.0,0.0,0.0,0.0,0.0,0.0,0.0,0.0,0.0,0.0,0.0,0.0,0.0,0.0,0.0,0.0,0.0,0.0,0.0,0.0,0.0,0.0,0.0,0.0,0.0,0.0,0.0,0.0,0.0,0.0,0.0,0.0,0.0,0.0,0.0,0.0,0.0,0.0,0.0,0.0,0.0,0.0,0.0,0.0,0.0,0.0,0.0,0.0,0.0,0.0,0.0,0.0,0.0,0.0,0.0,0.0,0.0,0.0,0.0,0.0,0.0,0.0,0.0,0.0,0.0,0.0,0.0,0.0,0.0,0.0,0.0,0.0,0.0,0.0,0.0,0.0,0.0,0.0,0.0,0.0,0.0,0.0,0.0,0.0,0.0,0.0,0.0,0.0,0.0,0.0,0.0,0.0,0.0,0.0,0.0,0.0,0.0,0.0,0.0,0.0,0.0,0.0,0.0,0.0,0.0,0.0,0.0,0.0,0.0,0.0,0.0,0.0,0.0,0.0,0.0,0.0,0.0,0.0,0.0,0.0,0.0,0.0,0.0,0.0,0.0,0.0,0.0,0.0,0.0,0.0,0.0,0.0,0.0,0.0,0.0,0.0,0.0,0.0,0.0,0.0,0.0,0.0,0.0,0.0,0.0,0.0,0.0,0.0,0.0,0.0,0.0,0.0,0.0,0.0,0.0,0.0,0.0,0.0,0.0,0.0,0.0,0.0,0.0,0.0,0.0,0.0,0.0,0.0,0.0,0.0,0.0,0.0,0.0,0.0,0.0,0.0,0.0,0.0,0.0,0.0,0.0,0.0,0.0,0.0,0.0,0.0,0.0,0.0,0.0,0.0,0.0,0.0,0.0,0.0,0.0,0.0,0.0,0.0,0.0,0.0,0.0,0.0,0.0,0.0,0.0,0.0,0.0,0.0,0.0,0.0,0.0,0.0,0.0,0.0,0.0,0.0,0.0,0.0,0.0,0.0,0.0,0.0,0.0,0.0,0.0,0.0,0.0,0.0,0.0,0.0,0.0,0.0,0.0,0.0,0.0,0.0,0.0,0.0,0.0,0.0,0.0,0.0,0.0,0.0,0.0,0.0,0.0,0.0,0.0,0.0,0.0,0.0,0.0,0.0,0.0,0.0,0.0,0.0,0.0,0.0,0.0,0.0,0.0,0.0,0.0,0.0,0.0,0.0,0.0,0.0,0.0,0.0,0.0,0.0,0.0,0.0,0.0,0.0,0.0,0.0,0.0,0.0,0.0,0.0,0.0,0.0,0.0,0.0,0.0,0.0,0.0,0.0,0.0,0.0,0.0,0.0,0.0,0.0,0.0,0.0,0.0,0.0,0.0,0.0,0.0,0.0,0.0,0.0,0.0,0.0,0.0,0.0,0.0,0.0,0.0,0.0,0.0,0.0,0.0,0.0,0.0,0.0,0.0,0.0,0.0,0.0,0.0,0.0,0.0,0.0,0.0,0.0,0.0,0.0,0.0,0.0,0.0,0.0,0.0,0.0,0.0,0.0,0.0,0.0,0.0,0.0,0.0,0.0,0.0,0.0,0.0,0.0,0.0,0.0,0.0,0.0,0.0,0.0,0.0,0.0,0.0,0.0,0.0,0.0,0.0,0.0,0.0,0.0,0.0,0.0,0.0,0.0,0.0,0.0,0.0,0.0,0.0,0.0,0.0,0.0,0.0,0.0,0.0,0.0,0.0,0.0,0.0,0.0,0.0,0.0,0.0,0.0,0.0,0.0,0.0,0.0,0.0,0.0,0.0,0.0,0.0,0.0,0.0,0.0,0.0,0.0,0.0,0.0,0.0,0.0,0.0,0.0,0.0,0.0,0.0,0.0,0.0,0.0,0.0,0.0,0.0,0.0,0.0,0.0,0.0,0.0,0.0,0.0,0.0,0.0,0.0,0.0,0.0,0.0,0.0,0.0,0.0,0.0,0.0,0.0,0.0,0.0,0.0,0.0,0.0,0.0,0.0,0.0,0.0,0.0,0.0,0.0,0.0,0.0,0.0,0.0,0.0,0.0,0.0,0.0,0.0,0.0,0.0,0.0,0.0,0.0,0.0,0.0,0.0,0.0,0.0,0.0,0.0,0.0,0.0,0.0,0.0,0.0,0.0,0.0,0.0,0.0,0.0,0.0,0.0,0.0,0.0,0.0,0.0,0.0,0.0,0.0,0.0,0.0,0.0,0.0,0.0,0.0,0.0,0.0,0.0,0.0,0.0,0.0,0.0,0.0,0.0,0.0,0.0,0.0,0.0,0.0,0.0,0.0,0.0,0.0,0.0,0.0,0.0,0.0,0.0,0.0,0.0,0.0,0.0,0.0,0.0,0.0,0.0,0.0,0.0,0.0,0.0,0.0,0.0,0.0,0.0,0.0,0.0,0.0,0.0,0.0,0.0,0.0,0.0,0.0,0.0,0.0,0.0,0.0,0.0,0.0,0.0,0.0,0.0,0.0,0.0,0.0,0.0,0.0,0.0,0.0,0.0,0.0,0.0,0.0,0.0,0.0,0.0,0.0,0.0,0.0,0.0,0.0,0.0,0.0,0.0,0.0,0.0,0.0,0.0,0.0,0.0,0.0,0.0,0.0,0.0,0.0,0.0,0.0,0.0,0.0,0.0,0.0,0.0,0.0,0.0,0.0,0.0,0.0,0.0,0.0,0.0,0.0,0.0,0.0,0.0,0.0,0.0,0.0,0.0,0.0,0.0,0.0,0.0,0.0,0.0,0.0,0.0,0.0,0.0,0.0,0.0,0.0,0.0,0.0,0.0,0.0,0.0,0.0,0.0,0.0,0.0,0.0,0.0,0.0,0.0,0.0,0.0,0.0,0.0,0.0,0.0,0.0,0.0,0.0,0.0,0.0,0.0,0.0,0.0,0.0,0.0,0.0,0.0,0.0,0.0,0.0,0.0,0.0,0.0,0.0,0.0,0.0,0.0,0.0,0.0,0.0,0.0,0.0,0.0,0.0,0.0,0.0,0.0,0.0,0.0,0.0,0.0,0.0,0.0,0.0,0.0,0.0,0.0,0.0,0.0,0.0,0.0,0.0,0.0,0.0,0.0,0.0,0.0,0.0,0.0,0.0,0.0,0.0,0.0,0.0,0.0,0.0,0.0,0.0,0.0,0.0,0.0,0.0,0.0,0.0,0.0,0.0,0.0,0.0,0.0,0.0,0.0,0.0,0.0,0.0,0.0,0.0,0.0,0.0,0.0,0.0,0.0,0.0,0.0,0.0,0.0,0.0,0.0,0.0,0.0,0.0,0.0,0.0,0.0,0.0,0.0,0.0,0.0,0.0,0.0,0.0,0.0,0.0,0.0,0.0,0.0,0.0,0.0,0.0,0.0,0.0,0.0,0.0,0.0,0.0,0.0,0.0,0.0,0.0,0.0,0.0,0.0,0.0,0.0,0.0,0.0,0.0,0.0,0.0,0.0,0.0,0.0,0.0,0.0,0.0,0.0,0.0,0.0,0.0,0.0,0.0,0.0,0.0,0.0,0.0,0.0,0.0,0.0,0.0,-0.8336,0.0,0.0,0.0,0.0,0.0,0.0,0.0,0.0,0.0,0.0,0.0,0.0,0.0,0.0,0.0,0.0,0.0,0.0,0.0,0.0,0.0,0.0,0.0,0.0,-0.4305,-0.3883,-0.2861,-0.2334,-0.1782,-0.1212,0.0,0.0,0.0,0.0,0.0,0.0,0.0,0.0,0.0,-0.0371,-0.0745,-0.1132,-0.2185,-0.3061,-0.3792,0.0,0.0,0.0,0.0,0.0,0.0,0.0,0.0,0.0,0.0,0.0,0.0,0.0,0.0,0.0,0.0,0.0,0.0,0.0,0.0,0.0,0.0,0.0,0.0,0.0,0.0,0.0,0.0,0.0,0.0,0.0,0.0,0.0,0.0,0.0,0.0,0.0,0.0,0.0,0.0,0.0,0.0,0.0,0.0,0.0,0.0,0.0,0.0,0.0,0.0,0.0,0.0,0.0,0.0,0.0,0.0,0.0,0.0,0.0,0.0,0.0,0.0,0.0,0.0,0.0,0.0,0.0,0.0,0.0,0.0,0.0,-0.9289,0.0,0.0,0.0,0.0,0.0,0.0,0.0,0.0,0.0,0.0,0.0,0.0,0.0,0.0,0.0,0.0,0.0,0.0,0.0,0.0,0.0,-0.5054,-0.4207,-0.4,-0.3403,-0.2131,-0.1998,-0.163,-0.0729,-0.0604,0.0,0.0,0.0,0.0,0.0,0.0,0.0,0.0,0.0,-0.031,-0.0917,-0.1622,-0.2238,-0.2856,-0.3727,0.0,0.0,0.0,0.0,0.0,0.0,0.0,0.0,0.0,0.0,0.0,0.0,0.0,0.0,0.0,0.0,0.0,0.0,0.0,0.0,0.0,0.0,0.0,0.0,0.0,0.0,0.0,0.0,0.0,0.0,0.0,0.0,0.0,0.0,0.0,0.0,0.0,0.0,0.0,0.0,0.0,0.0,0.0,0.0,0.0,0.0,0.0,0.0,0.0,0.0,0.0,0.0,0.0,0.0,0.0,0.0,0.0,0.0,0.0,0.0,0.0,0.0,0.0,-0.8828,-0.8828,-0.8828,-0.8828,-0.8757,-0.8638,-0.8611,-0.9261,-1.0286,0.0,0.0,0.0,0.0,0.0,0.0,0.0,0.0,0.0,0.0,0.0,0.0,0.0,0.0,0.0,0.0,0.0,0.0,0.0,0.0,-0.4183,-0.3438,-0.279,-0.2078,-0.1327,-0.1229,-0.1138,-0.0873,-0.0711,0.0,0.0,-0.0105,0.0,0.0,0.0,0.0,0.0,0.0,-0.0035,-0.0145,-0.0873,-0.127,-0.1441,-0.274,-0.3405,-0.3574,0.0,0.0,0.0,0.0,0.0,0.0,0.0,0.0,0.0,0.0,0.0,0.0,0.0,0.0,0.0,0.0,0.0,0.0,0.0,0.0,0.0,0.0,0.0,0.0,0.0,0.0,0.0,0.0,0.0,0.0,0.0,0.0,0.0,0.0,0.0,0.0,0.0,0.0,0.0,0.0,0.0,0.0,0.0,0.0,0.0,0.0,0.0,0.0,0.0,0.0,0.0,0.0,0.0,0.0,0.0,0.0,0.0,-0.9289,-0.9293,-0.9293,-0.9293,-0.9293,-0.9293,-0.9293,-0.9293,-0.9283,-0.9256,-0.918,0.0,-1.0116,-1.0119,0.0,0.0,0.0,0.0,0.0,0.0,0.0,0.0,0.0,0.0,0.0,0.0,0.0,0.0,0.0,0.0,0.0,0.0,0.0,0.0,0.0,-0.2586,-0.1872,-0.1217,-0.1178,-0.1009,-0.0484,-0.0182,0.0036,0.0143,0.0453,0.0412,0.0,0.0,0.0,0.0,0.0,0.0,0.0,-0.034,-0.0491,-0.0521,-0.1542,-0.2478,-0.335,-0.4106,0.0,0.0,0.0,0.0,0.0,0.0,0.0,0.0,0.0,0.0,0.0,0.0,0.0,0.0,0.0,0.0,0.0,0.0,0.0,0.0,0.0,0.0,0.0,0.0,0.0,0.0,0.0,0.0,0.0,0.0,0.0,0.0,0.0,0.0,0.0,0.0,0.0,0.0,0.0,0.0,0.0,0.0,-0.0155,-0.031,0.0,0.0,0.0,0.0,0.0,0.0,0.0,0.0,0.0,-0.7126,-0.7643,-0.8417,-0.9378,-0.9381,-0.9381,-0.9381,-0.9381,-0.9381,-0.9381,-0.9381,-0.9381,-0.9371,-0.9275,-0.9374,-0.9603,-0.9365,-1.0132,-1.1383,0.0,0.0,0.0,0.0,0.0,-1.5398,0.0,0.0,0.0,0.0,0.0,0.0,0.0,0.0,0.0,0.0,0.0,0.0,-0.3307,-0.2426,-0.1735,-0.1238,-0.1088,-0.08,-0.0189,0.0329,0.0647,0.0728,0.1114,0.1094,0.0555,0.0559,0.0499,0.0331,0.0337,0.0228,0.0,0.0,0.0,-0.0038,-0.0801,-0.1859,-0.3061,-0.3827,-0.4534,-0.5147,0.0,0.0,0.0,0.0,0.0,0.0,0.0,0.0,0.0,0.0,0.0,0.0,0.0,0.0,0.0,0.0,0.0,0.0,0.0,0.0,0.0,0.0,0.0,0.0,0.0,0.0,0.0,0.0,0.0,0.0,0.0,0.0,0.0,0.0,0.0,0.0,0.0,0.0,0.0,0.0,-0.0261,-0.0474,0.0,0.0,0.0,0.0,0.0,0.0,-0.2982,-0.4078,-0.5182,-0.6311,-0.6952,-0.7881,-0.9016,-0.9317,-0.9493,-0.9493,-0.9493,-0.9493,-0.9493,-0.9493,-0.9493,-0.9483,-0.935,-0.9268,-0.9241,-0.8849,-0.9301,-1.0197,-1.0221,-1.1606,-1.3633,-1.3835,-1.458,-1.5538,0.0,0.0,0.0,0.0,0.0,0.0,0.0,0.0,0.0,0.0,0.0,-0.3643,-0.3334,-0.2029,-0.117,-0.1201,-0.0678,-0.0324,-0.0302,0.067,0.1277,0.1342,0.1806,0.2035,0.1985,0.2105,0.1865,0.1244,0.1246,0.0803,0.0,0.0,0.0,-0.0039,-0.09,-0.1772,-0.2583,-0.3066,-0.3825,-0.4756,-0.5156,0.0,0.0,0.0,0.0,0.0,0.0,0.0,0.0,0.0,0.0,0.0,0.0,0.0,0.0,0.0,0.0,0.0,0.0,0.0,0.0,0.0,0.0,0.0,0.0,0.0,0.0,0.0,0.0,0.0,0.0,0.0,0.0,0.0,0.0,0.0,0.0,0.0,0.0,0.0,-0.0219,0.0,0.0,0.0,0.0,-0.1396,-0.1703,-0.1892,-0.1895,-0.3081,-0.3836,-0.4082,-0.6352,-0.7722,-0.7961,-0.9185,-0.9798,-0.9798,-0.9798,-0.9798,-0.9798,-0.9798,-0.9798,-0.9781,-0.9493,-0.9367,-0.9337,-0.8893,-0.9381,-1.0439,-1.0273,-1.1733,-1.3959,-1.3914,-1.4698,-1.5764,0.0,0.0,0.0,0.0,0.0,-0.8827,-0.7776,-0.7763,-0.7219,-0.5417,-0.4346,-0.3451,-0.2687,-0.1732,-0.1035,-0.0635,-0.0414,0.0038,0.0795,0.1634,0.205,0.2048,0.2612,0.2757,0.2354,0.2412,0.2316,0.2086,0.2086,0.1631,0.0824,0.0824,0.0549,0.0,-0.0314,-0.1208,-0.2543,-0.3168,-0.3878,-0.4596,-0.4711,-0.4732,0.0,0.0,0.0,0.0,0.0,0.0,0.0,0.0,0.0,0.0,0.0,0.0,0.0,0.0,0.0,0.0,0.0,0.0,0.0,0.0,0.0,0.0,0.0,0.0,0.0,0.0,0.0,0.0,0.0,0.0,0.0,0.0,0.0,0.0,0.0,0.0,0.0,-0.0276,-0.0393,0.0,-0.1058,-0.1235,-0.1479,-0.1678,-0.1805,-0.1887,-0.1926,-0.2338,-0.2949,-0.3844,-0.5608,-0.6962,-0.7917,-0.9147,-0.9822,-0.9822,-0.9822,-0.9822,-0.9822,-0.9822,-0.9822,-0.9812,-0.9612,-0.9473,-0.9361,-0.91,-0.9303,-0.9798,-0.9723,-1.1177,-1.3292,-1.311,-1.4219,-1.5784,0.0,0.0,0.0,0.0,-0.9432,-0.8827,-0.7776,-0.7832,-0.7269,-0.5262,-0.4319,-0.343,-0.2513,-0.1697,-0.095,-0.0345,-0.0116,0.0424,0.1441,0.231,0.2715,0.2541,0.3065,0.3261,0.309,0.3056,0.3017,0.2934,0.2934,0.2503,0.1684,0.141,0.098,0.0432,0.0118,-0.0941,-0.2539,-0.3039,-0.3767,-0.4588,-0.4583,-0.4523,-0.4406,0.0,0.0,0.0,0.0,0.0,0.0,0.0,0.0,0.0,0.0,0.0,0.0,0.0,0.0,0.0,0.0,0.0,0.0,0.0,0.0,0.0,0.0,0.0,0.0,0.0,0.0,0.0,0.0,0.0,0.0,0.0,0.0,0.0,0.0,0.0,-0.0057,-0.0283,-0.0519,-0.0813,-0.12,-0.1448,-0.1648,-0.1914,-0.1917,-0.1934,-0.1975,-0.1958,-0.232,-0.3202,-0.455,-0.5896,-0.7182,-0.8532,-0.939,-0.9822,-0.9822,-0.9822,-0.9822,-0.9822,-0.9822,-0.9815,-0.9673,-0.9523,-0.9374,-0.933,-0.9366,-0.945,-0.94,-1.0766,-1.2802,-1.2724,-1.4031,-1.5784,0.0,0.0,0.0,-0.8982,-0.9031,-0.8833,-0.7776,-0.7837,-0.7378,-0.5602,-0.4461,-0.3528,-0.2832,-0.1828,-0.0957,-0.0314,0.0192,0.0795,0.1479,0.2635,0.3153,0.2839,0.3126,0.36,0.4162,0.4202,0.4056,0.383,0.383,0.3363,0.2504,0.1723,0.1332,0.1254,0.0392,-0.0902,-0.2464,-0.2503,-0.3396,-0.4753,-0.4708,-0.4692,-0.4676,0.0,0.0,0.0,0.0,0.0,0.0,0.0,0.0,0.0,0.0,0.0,0.0,0.0,0.0,0.0,0.0,0.0,0.0,0.0,0.0,0.0,0.0,0.0,0.0,0.0,0.0,0.0,0.0,0.0,0.0,0.0,0.0,0.0,0.0219,0.0,0.0,0.0,-0.0533,-0.096,-0.1004,-0.1556,-0.1945,-0.1975,-0.1977,-0.1977,-0.1977,-0.1977,-0.1977,-0.1977,-0.3264,-0.455,-0.5896,-0.7243,-0.8532,-0.9822,-0.9822,-0.9822,-0.9822,-0.9822,-0.9822,-0.9815,-0.9676,-0.9527,-0.9381,-0.9381,-0.9458,-0.9582,-0.9439,-1.0741,-1.2662,-1.2853,-1.4132,-1.5784,0.0,0.0,-1.0064,-0.8982,-0.9225,-0.9118,-0.7803,-0.8036,-0.7473,-0.4945,-0.4151,-0.3349,-0.2148,-0.1554,-0.0819,0.0275,0.0461,0.0991,0.2134,0.266,0.3035,0.3307,0.3544,0.3753,0.3919,0.3921,0.401,0.4226,0.4226,0.3951,0.3441,0.2582,0.184,0.1254,0.0392,-0.0588,-0.1684,-0.227,-0.3117,-0.4135,-0.4565,-0.473,-0.4612,0.0,0.0,0.0,0.0,0.0,0.0,0.0,0.0,0.0,0.0,0.0,0.0,0.0,0.0,0.0,0.0,0.0,0.0,0.0,0.0,0.0,0.0,0.0,0.0,0.0,0.0,0.0,0.0,0.0,0.0,0.0,0.3292,0.279,0.1609,0.0588,-0.012,-0.0363,-0.0732,-0.1102,-0.1342,-0.1714,-0.1967,-0.1976,-0.1977,-0.1977,-0.1977,-0.1977,-0.1977,-0.1977,-0.3264,-0.455,-0.5896,-0.7243,-0.8532,-0.9822,-0.9822,-0.9822,-0.9822,-0.9822,-0.9822,-0.9819,-0.9781,-0.9618,-0.9381,-0.9381,-0.94,-0.9502,-0.9745,-1.1262,-1.3245,-1.3226,-1.4281,-1.5784,0.0,-1.0544,-1.0156,-0.9316,-0.9459,-0.9275,-0.7974,-0.8185,-0.7605,-0.5084,-0.4211,-0.3376,-0.2295,-0.1625,-0.0851,0.0155,0.0458,0.0981,0.1987,0.2372,0.2777,0.3287,0.3232,0.3298,0.3489,0.3491,0.3724,0.4151,0.4151,0.4031,0.3795,0.2898,0.2115,0.141,0.0589,-0.0392,-0.1489,-0.2192,-0.301,-0.3865,-0.4589,-0.4677,-0.4271,-0.3708,-0.3066,-0.2397,-0.1425,-0.0919,-0.0445,0.0879,0.0,0.0,0.0,0.0,0.0,0.0,0.0,0.0,0.0,0.0,0.0,0.0,0.0,0.0,0.0,0.0,0.0,0.0,0.0,0.0,0.0,0.0,0.0,0.0,0.4739,0.43,0.3696,0.2044,0.0485,-0.037,-0.0803,-0.1111,-0.1482,-0.1791,-0.1977,-0.1977,-0.1977,-0.1977,-0.1977,-0.1977,-0.1977,-0.1977,-0.2714,-0.4,-0.5896,-0.6693,-0.798,-0.9822,-0.9822,-0.9822,-0.9822,-0.9822,-0.9822,0.0,-0.9822,-0.9652,-0.9381,-0.9381,-0.9375,0.0,0.0,0.0,0.0,0.0,-1.509,-1.5784,0.0,-1.073,-1.0344,-0.9787,-0.9713,-0.9335,-0.8195,-0.827,-0.7739,-0.5657,-0.4482,-0.3541,-0.2863,-0.1856,-0.0944,-0.0341,0.0302,0.0925,0.1483,0.1948,0.2427,0.2908,0.2616,0.261,0.3022,0.3023,0.3295,0.3802,0.3802,0.3843,0.3919,0.3057,0.2313,0.1645,0.0942,-0.0157,-0.1489,-0.2113,-0.2893,-0.3713,-0.4423,-0.4345,-0.3783,-0.3554,-0.2582,-0.1291,-0.1038,-0.0553,0.0148,0.1146,0.0,0.0,0.0,0.0,0.0,0.0,0.0,0.0,0.0,0.0,0.0,0.0,0.0,0.0,0.0,0.0,0.0,0.0,0.0,0.0,0.0,0.0,0.0,0.0,0.6377,0.5679,0.5675,0.3647,0.1579,-0.0062,-0.0679,-0.1111,-0.1482,-0.1791,-0.1977,-0.1977,-0.1977,-0.1977,-0.1977,0.0,0.0,0.0,0.0,-0.3267,-0.5896,-0.5896,-0.7182,-0.9822,-0.9822,-0.9822,-0.9822,-0.9822,-0.9822,-0.9822,-0.9822,-0.9652,-0.9381,-0.9381,-0.9432,-0.9503,-1.0245,-1.1669,-1.3534,-1.56,-1.6112,0.0,0.0,-1.1411,-1.0966,-0.9891,-0.988,-0.9557,-0.8216,-0.827,-0.7739,-0.5657,-0.4477,-0.3515,-0.2785,-0.1807,-0.0963,-0.034,0.026,0.1061,0.2066,0.2331,0.2447,0.2497,0.2504,0.2538,0.2628,0.2628,0.302,0.3802,0.3802,0.4116,0.4742,0.3912,0.3012,0.2034,0.1214,0.0314,-0.0589,-0.1411,-0.2152,-0.2776,-0.2934,-0.3324,-0.3711,-0.2997,-0.2125,-0.1198,-0.0469,-0.0119,0.0245,0.1881,0.2425,0.2751,0.4508,0.5098,0.0,0.0,0.0,0.0,0.0,0.0,0.0,0.0,0.0,0.0,0.0,0.0,0.0,0.0,0.0,0.0,0.0,0.0,0.0,0.7226,0.7264,0.6517,0.4522,0.3836,0.2944,0.1292,-0.0123,-0.1111,-0.1482,-0.1791,-0.1977,-0.1977,-0.1977,-0.1977,-0.1977,-0.1977,0.0,-0.1977,-0.1977,-0.3267,-0.5896,-0.5896,-0.7182,-0.9822,0.0,0.0,-0.9822,-0.9822,-0.9822,-0.9822,-0.9822,-0.9652,-0.9381,-0.9381,-0.9546,-0.9926,-1.2123,-1.3115,-1.3594,-1.5796,-1.6286,-1.5784,-1.2344,-1.1783,-1.1313,-1.0721,-1.0325,-0.9794,-0.8888,-0.8606,-0.7934,-0.6342,-0.5101,-0.401,-0.3111,-0.223,-0.1436,-0.0764,-0.018,0.065,0.1856,0.1978,0.212,0.2426,0.2495,0.2511,0.2511,0.2511,0.2705,0.3137,0.3137,0.3372,0.3724,0.3329,0.282,0.2154,0.1293,0.0628,0.0078,-0.1215,-0.192,-0.2232,-0.2543,-0.266,-0.266,-0.2113,-0.1392,-0.0608,-0.0158,0.0,0.0247,0.2008,0.261,0.293,0.479,0.5368,0.5382,0.0,0.0,0.0,0.0,0.0,0.0,0.0,0.0,0.0,0.0,0.0,0.0,0.0,0.0,0.6904,0.6967,0.0,0.7304,0.7541,0.7619,0.7055,0.5102,0.4161,0.283,0.0493,-0.0494,-0.1173,-0.1729,-0.1915,-0.1977,-0.1977,-0.1977,-0.1977,-0.1977,-0.1977,-0.1977,-0.1977,-0.1977,-0.3267,-0.5896,-0.5896,-0.7182,-0.9822,-0.9822,-0.9822,-0.9822,-0.9822,-0.9822,-0.9822,-0.9822,-0.9652,-0.9429,-0.9393,-0.9574,-0.997,-1.1927,-1.2963,-1.3591,-1.584,-1.6333,-1.5784,-1.2912,-1.2156,-1.1635,-1.1365,-1.0695,-1.0027,-0.9583,-0.8909,-0.8064,-0.7022,-0.5686,-0.4428,-0.3395,-0.2635,-0.1843,-0.1015,-0.053,0.0181,0.136,0.1369,0.1577,0.2117,0.2275,0.2314,0.2314,0.2431,0.255,0.2628,0.2628,0.2668,0.2744,0.2627,0.2353,0.1999,0.1138,0.0588,0.0235,-0.1137,-0.1764,-0.1921,-0.2233,-0.2081,-0.1617,-0.1295,-0.0677,0.0,0.0,0.0,0.0243,0.1984,0.2594,0.3011,0.4707,0.5368,0.5464,0.5419,0.5437,0.0,0.0,0.0,0.0,0.0,0.0,0.0,0.0,0.6537,0.6703,0.6749,0.7008,0.7255,0.7353,0.741,0.7527,0.7796,0.778,0.7281,0.6082,0.449,0.2522,-0.0185,-0.0802,-0.1235,-0.1915,-0.1915,-0.1915,-0.1977,-0.1977,-0.1977,-0.1977,-0.1977,-0.1977,-0.1977,-0.1977,-0.3144,-0.5468,-0.5774,-0.706,-0.9451,-0.9697,-0.9822,-0.9822,-0.9822,-0.9822,-0.9819,-0.9761,-0.9602,-0.9415,-0.9339,-0.9485,-0.9908,-1.1125,-1.2292,-1.3534,-1.557,-1.6084,-1.5784,0.0,-1.2852,-1.2028,-1.0888,-1.0598,-1.0325,-0.9614,-0.878,-0.7907,-0.7022,-0.5561,-0.4275,-0.3299,-0.256,-0.1634,-0.0419,-0.0292,0.0,0.0757,0.0734,0.0744,0.0825,0.1372,0.1685,0.1685,0.2235,0.2668,0.3023,0.3023,0.3256,0.3645,0.3054,0.2271,0.1371,0.0666,-0.0039,-0.0746,-0.0942,-0.1373,-0.1842,-0.1138,-0.1271,-0.1777,-0.0989,-0.0398,0.0,0.0,0.0,0.0285,0.2062,0.2669,0.2931,0.4334,0.5114,0.5419,0.5069,0.5316,0.5664,0.5653,0.5659,0.5726,0.6007,0.6157,0.6383,0.0,0.6847,0.7002,0.7211,0.7375,0.7483,0.7497,0.7668,0.779,0.7731,0.7796,0.7426,0.609,0.4737,0.3199,0.1416,-0.0123,-0.1235,-0.1915,-0.1729,-0.1667,-0.1977,-0.1977,-0.1977,-0.1977,-0.1977,-0.1977,-0.1977,-0.1977,-0.2714,-0.412,-0.5284,-0.6632,-0.8102,-0.9268,-0.9822,-0.9822,-0.9822,-0.9822,-0.9805,-0.9544,-0.9412,-0.9357,-0.9059,-0.9268,-0.9908,-1.0956,-1.2126,-1.341,-1.4512,-1.5276,-1.5784,0.0,-1.3009,-1.2205,-1.1264,-1.0839,-1.0498,-1.0199,-0.9037,-0.8037,-0.7605,-0.617,-0.4851,-0.3951,-0.2815,-0.1719,-0.082,-0.0791,-0.0555,0.0148,0.0115,0.0236,0.0589,0.0863,0.102,0.102,0.1647,0.2078,0.2235,0.2235,0.2313,0.2508,0.1842,0.1422,0.12,0.028,-0.0161,-0.0327,-0.1511,-0.1839,-0.1554,-0.1675,-0.1561,-0.1326,-0.0821,-0.0571,-0.0406,-0.024,0.0121,0.0,0.1838,0.2767,0.35,0.4165,0.4856,0.5387,0.5085,0.5333,0.566,0.5453,0.5475,0.5487,0.5275,0.5398,0.5707,0.6325,0.6561,0.6766,0.7201,0.7543,0.7682,0.7543,0.7712,0.788,0.7902,0.7886,0.7342,0.5669,0.4268,0.2768,0.1109,-0.0247,-0.1173,-0.1667,-0.1729,-0.1853,-0.1977,-0.1977,-0.1977,-0.1977,-0.1977,-0.1977,-0.1977,-0.1977,-0.259,-0.3875,-0.5223,-0.6569,-0.7919,-0.9204,-0.9822,-0.9822,-0.9822,-0.9822,-0.9805,-0.951,-0.9381,-0.9357,-0.9062,-0.9268,-0.9845,-1.0056,-1.1453,-1.341,-1.4334,-1.5154,-1.5784,0.0,-1.2765,-1.2027,-1.1365,-1.0902,-1.0593,-1.0593,-0.9198,-0.8096,-0.8027,-0.6564,-0.5219,-0.4386,-0.2982,-0.1913,-0.1411,-0.1264,-0.0977,-0.051,-0.0532,-0.0351,0.0039,0.0236,0.0353,0.0353,0.0987,0.1306,0.1306,0.1314,0.1279,0.1279,0.064,0.0484,0.0737,-0.0246,-0.0497,-0.0336,-0.2057,-0.2227,-0.139,-0.2225,-0.1975,-0.1052,-0.092,-0.0864,-0.0805,-0.0518,0.016,0.1001,0.1682,0.2796,0.3899,0.4065,0.469,0.5324,0.5124,0.5277,0.5483,0.5242,0.5162,0.5052,0.4697,0.4827,0.519,0.5852,0.607,0.6267,0.6787,0.7082,0.719,0.7061,0.7347,0.762,0.7797,0.768,0.7173,0.5843,0.4038,0.246,0.1294,-0.0185,-0.1173,-0.1359,-0.1606,-0.1791,-0.1977,-0.1977,-0.1977,-0.1977,-0.1977,-0.1977,-0.1977,-0.1977,-0.2468,-0.3387,-0.504,-0.6385,-0.7365,-0.9022,-0.9822,-0.9822,-0.9822,-0.9822,-0.9805,-0.951,-0.9381,-0.9357,-0.9115,-0.932,-0.9783,-0.9508,-1.0975,-1.3349,-1.3949,-1.4843,-1.5784,0.0,0.0,-1.1334,-1.0713,-1.0624,-1.0593,-1.0593,-0.9128,-0.7994,-0.7994,-0.6502,-0.5123,-0.4386,-0.2982,-0.2079,-0.2079,-0.1483,-0.1135,-0.1164,-0.1158,-0.1188,-0.1256,-0.0628,-0.0275,-0.0275,0.0321,0.0649,0.0649,0.058,0.0545,0.0503,-0.0084,-0.0377,-0.0378,-0.1009,-0.1263,-0.1305,-0.2353,-0.2227,-0.139,-0.2393,-0.2185,-0.1303,-0.1274,-0.1285,-0.1223,-0.0766,0.004,0.1016,0.1755,0.2803,0.3861,0.4125,0.4657,0.5157,0.4964,0.5048,0.5211,0.5122,0.4829,0.4568,0.4684,0.4864,0.5099,0.5382,0.5495,0.5617,0.5796,0.5767,0.5737,0.5821,0.6381,0.6899,0.7001,0.6952,0.6927,0.7034,0.441,0.2648,0.2894,0.0308,-0.1359,0.0,-0.105,-0.1297,-0.1977,-0.1977,-0.1977,-0.1977,-0.1977,-0.1977,-0.1977,-0.1977,-0.2038,-0.2038,-0.4613,-0.5896,-0.6018,-0.8593,-0.9822,-0.9822,-0.9822,-0.9822,-0.9805,-0.951,-0.9381,-0.9415,-0.9395,-0.9541,-0.9783,-0.972,-1.1182,-1.3282,-1.2915,-1.404,-1.5784,0.0,0.0,0.0,-1.124,-1.087,-1.0593,-1.0593,-0.9486,-0.8506,-0.8059,-0.647,0.0,0.0,0.0,0.0,0.0,-0.2202,-0.1826,-0.1878,-0.1442,-0.1216,-0.1226,-0.1068,-0.0965,-0.0965,-0.037,-0.0083,-0.0083,-0.0084,-0.0084,-0.0126,-0.1385,-0.1651,-0.1117,-0.2573,-0.2897,-0.2457,-0.4071,-0.4236,-0.3436,-0.364,-0.32,-0.2362,-0.1604,-0.1313,-0.1288,0.0,-0.0277,0.0878,0.1515,0.2647,0.3748,0.3534,0.4031,0.4666,0.4554,0.4563,0.46,0.4387,0.4232,0.4083,0.3783,0.3906,0.4199,0.4747,0.4892,0.5042,0.5498,0.559,0.5718,0.6146,0.6132,0.6297,0.6893,0.6564,0.6147,0.5859,0.369,0.2141,0.2038,-0.0062,0.0,0.0,0.0,0.0,-0.1977,-0.1977,-0.1977,-0.1977,-0.1977,-0.1977,-0.1977,-0.1977,-0.1977,-0.1977,-0.4614,-0.5896,-0.5957,-0.8532,-0.9822,-0.9822,-0.9822,-0.9771,-0.9669,-0.9469,-0.9323,-0.9272,-0.9353,-0.9544,-0.9889,-1.0497,-1.1789,-1.3333,-1.365,-1.4627,-1.5784,0.0,0.0,0.0,0.0,0.0,0.0,0.0,0.0,0.0,0.0,0.0,0.0,0.0,0.0,0.0,0.0,0.0,-0.2559,-0.2584,-0.2203,-0.1967,-0.2003,-0.201,-0.209,-0.2205,-0.1747,-0.1609,-0.1678,-0.1691,-0.1747,-0.1802,-0.2832,-0.3028,-0.25,-0.3678,-0.3926,-0.3491,-0.505,-0.5223,-0.4453,-0.4607,-0.4128,-0.3227,-0.219,-0.1753,0.0,-0.1389,-0.0661,0.0227,0.0869,0.2109,0.3404,0.3057,0.363,0.4376,0.4284,0.4225,0.4176,0.3942,0.381,0.3648,0.3346,0.3427,0.3671,0.4139,0.4257,0.4369,0.476,0.4857,0.5047,0.5607,0.5496,0.5674,0.6771,0.6171,0.5538,0.558,0.3654,0.2031,0.1619,-0.0062,-0.1247,0.0,0.0,0.0,-0.1977,-0.1977,-0.1977,-0.1977,-0.1977,-0.1977,-0.1977,-0.1977,-0.1977,-0.1977,-0.4614,-0.6385,-0.7304,-0.9022,-0.9822,-0.9822,-0.9822,-0.9744,-0.9602,-0.9449,-0.9354,-0.9197,-0.9439,-0.9651,-0.9889,-1.1019,-1.2206,-1.3378,-1.4047,-1.4921,-1.5784,0.0,0.0,0.0,0.0,0.0,0.0,0.0,0.0,0.0,0.0,0.0,0.0,0.0,0.0,0.0,0.0,0.0,0.0,-0.334,-0.3315,-0.3359,-0.3491,-0.3393,-0.3467,-0.3789,-0.3682,-0.373,-0.3984,-0.4069,-0.4152,-0.4275,-0.4319,-0.4319,-0.4275,-0.4364,-0.441,-0.4414,-0.5346,-0.5262,-0.4503,-0.5224,-0.4904,-0.3974,-0.2988,-0.2568,-0.2391,-0.1524,-0.1067,-0.0799,-0.0114,0.1269,0.2711,0.2678,0.3399,0.4229,0.4154,0.4029,0.3871,0.3875,0.3538,0.3216,0.3384,0.3456,0.3516,0.3574,0.3582,0.3578,0.3578,0.3578,0.3801,0.4357,0.459,0.5103,0.6474,0.5673,0.5167,0.5968,0.4079,0.2338,0.164,0.0374,-0.0741,-0.1482,-0.1791,0.0,-0.1977,0.0,-0.1977,-0.1977,-0.1977,-0.1977,-0.1977,-0.1977,-0.1977,-0.1977,-0.4614,-0.7182,-0.9822,-0.9822,-0.9822,-0.9822,-0.9815,-0.9734,-0.9588,-0.9435,-0.934,-0.9243,-0.9658,-0.9809,-0.9932,-1.1234,-1.2412,-1.3367,-1.409,-1.4968,-1.5784,0.0,0.0,0.0,0.0,0.0,0.0,0.0,0.0,0.0,0.0,0.0,0.0,0.0,0.0,0.0,0.0,0.0,0.0,-0.4061,-0.3591,-0.3303,-0.3349,-0.3477,-0.3552,-0.3634,-0.3722,-0.3771,-0.3857,-0.3878,-0.39,-0.3964,-0.4683,-0.4641,-0.4006,-0.545,-0.5755,-0.5229,-0.6087,-0.642,-0.631,-0.5563,-0.5226,-0.4936,-0.3248,-0.2574,-0.2481,-0.166,-0.1289,-0.1061,-0.0079,0.0838,0.1702,0.223,0.243,0.2589,0.3213,0.3354,0.3296,0.3344,0.3387,0.3373,0.3405,0.3489,0.3568,0.3583,0.3519,0.3456,0.3456,0.3456,0.3618,0.4263,0.4092,0.4195,0.5165,0.4674,0.4255,0.4689,0.3459,0.2261,0.1328,0.0188,-0.0874,-0.1793,-0.1977,0.0,0.0,-0.1977,-0.1977,-0.1977,-0.1977,-0.1977,-0.1977,-0.1977,-0.1977,-0.1977,-0.4614,-0.7182,-0.9822,-0.9822,-0.9822,-0.9819,-0.971,-0.9581,-0.9432,-0.9333,-0.913,-0.9047,-0.9559,-0.9687,-0.9819,-1.2002,-1.298,-1.3247,-1.4847,-1.5588,-1.5784,0.0,0.0,0.0,0.0,0.0,0.0,0.0,0.0,0.0,0.0,0.0,0.0,0.0,0.0,0.0,0.0,0.0,0.0,0.0,-0.4581,-0.4401,-0.4401,-0.4512,-0.4624,-0.4766,-0.4902,-0.4992,-0.4992,-0.5092,-0.5118,-0.5069,-0.5651,-0.561,-0.5108,-0.6197,-0.645,-0.6051,-0.6524,-0.6797,0.0,0.0,-0.5887,-0.5779,-0.438,-0.3553,-0.3013,-0.228,-0.171,-0.1235,-0.0628,-0.0042,0.0608,0.1334,0.1461,0.15,0.2348,0.2592,0.2688,0.307,0.33,0.3379,0.3405,0.348,0.3548,0.3548,0.3477,0.3405,0.3377,0.3394,0.3571,0.4208,0.389,0.3933,0.4975,0.4464,0.4067,0.4544,0.3848,0.2917,0.185,0.0818,-0.0249,-0.1235,-0.1729,-0.1977,0.0,-0.1977,-0.1977,-0.1977,-0.1977,-0.1977,-0.1977,-0.1977,-0.253,-0.3696,-0.5163,-0.7182,-0.9822,-0.9822,-0.9788,-0.9727,-0.9646,-0.949,-0.9333,0.0,-0.9185,-0.9158,-0.9596,-0.977,-0.9972,-1.2336,-1.3196,-1.3215,-1.5111,-1.5784,-1.5784,0.0,0.0,0.0,0.0,0.0,0.0,0.0,0.0,0.0,0.0,0.0,0.0,0.0,0.0,0.0,0.0,0.0,0.0,0.0,0.0,-0.58,-0.58,-0.582,-0.5956,-0.6262,-0.6409,-0.6484,-0.6484,-0.6712,-0.6773,-0.6641,-0.6641,-0.6641,-0.6641,-0.6641,-0.6654,-0.6668,-0.6651,-0.6664,-0.6698,-0.6678,-0.6603,-0.6435,0.0,-0.4821,-0.3732,-0.2898,-0.2102,-0.14,-0.1382,-0.1033,-0.0406,0.0272,0.0517,0.0735,0.1523,0.1795,0.2024,0.2837,0.3086,0.32,0.3357,0.3461,0.3496,0.3496,0.3447,0.3386,0.3332,0.3369,0.3571,0.4101,0.3835,0.3966,0.5148,0.4517,0.4156,0.486,0.4427,0.3719,0.2697,0.163,0.0616,-0.0431,-0.1419,-0.1977,-0.1977,-0.1977,-0.1977,-0.1977,-0.1977,-0.1977,-0.1977,-0.2161,-0.3451,-0.5896,-0.608,-0.7368,-0.9822,-0.9802,-0.973,-0.9608,-0.9568,-0.9405,-0.9207,0.0,0.0,-0.9379,-0.9651,-0.9868,-1.0101,-1.2228,-1.3028,-1.3171,-1.4954,-1.5689,-1.5771,0.0,0.0,0.0,0.0,0.0,0.0,0.0,0.0,0.0,0.0,-0.5895,-0.5766,0.0,0.0,0.0,0.0,0.0,0.0,0.0,0.0,0.0,-0.58,-0.5922,-0.5979,-0.6067,-0.622,-0.6337,-0.6337,-0.6388,-0.6402,-0.6375,-0.6375,-0.6375,-0.6375,-0.6375,-0.6443,-0.6545,-0.6426,-0.6478,-0.6688,-0.6563,-0.6573,-0.6592,-0.5803,0.0,0.0,-0.2243,-0.1556,-0.1383,-0.1389,-0.1361,-0.1204,-0.0479,-0.0195,-0.0049,0.0749,0.1017,0.1186,0.2064,0.2327,0.2548,0.3317,0.3489,0.3496,0.3496,0.3414,0.3334,0.3323,0.3369,0.3413,0.3518,0.3563,0.374,0.4042,0.3963,0.3919,0.4152,0.4074,0.3623,0.2719,0.1683,0.0616,-0.0431,-0.1419,0.0,0.0,0.0,-0.1977,-0.1977,-0.1977,-0.1977,-0.1977,-0.302,-0.4306,-0.5896,-0.6999,-0.8285,-0.9819,-0.9703,-0.9635,-0.9602,-0.9347,-0.9262,-0.9204,0.0,0.0,-0.9047,-0.9596,-0.9641,-0.9575,-1.1304,-1.2274,-1.2889,-1.4112,-1.5112,-1.5792,0.0,0.0,0.0,0.0,0.0,0.0,0.0,-0.777,-0.7208,-0.6453,-0.6383,-0.6329,-0.6169,-0.6084,-0.6071,0.0,0.0,0.0,0.0,0.0,0.0,0.0,-0.6067,-0.6149,-0.6149,-0.6373,-0.6453,-0.63,0.0,-0.645,-0.63,-0.63,-0.63,-0.63,-0.63,-0.6337,-0.6399,-0.6327,-0.6426,-0.6583,-0.6586,-0.6634,-0.668,0.0,0.0,0.0,-0.2677,-0.1838,-0.1391,-0.1391,-0.1455,-0.144,-0.1089,-0.1014,-0.0887,-0.005,0.0153,0.0363,0.1153,0.1394,0.1694,0.2624,0.2842,0.2945,0.3351,0.3384,0.3312,0.323,0.3323,0.3375,0.3407,0.3482,0.3579,0.3702,0.3748,0.382,0.3908,0.3905,0.3786,0.34,0.2427,0.1356,0.037,-0.0617,-0.1419,-0.1977,0.0,-0.1977,-0.1977,-0.1977,-0.1977,-0.1977,-0.3264,-0.455,-0.5896,-0.7243,-0.8499,-0.971,-0.9642,-0.9527,-0.9367,-0.9275,-0.9169,-0.9035,-0.8967,0.0,-0.9213,-0.9596,-0.9676,-0.9638,-1.114,-1.18,-1.2096,-1.3709,-1.4634,-1.5073,0.0,0.0,0.0,0.0,0.0,0.0,0.0,-0.7578,-0.7049,-0.6812,-0.6856,-0.6895,-0.673,-0.6549,-0.6463,0.0,0.0,0.0,0.0,0.0,0.0,0.0,0.0,-0.63,-0.63,0.0,0.0,-0.6344,-0.6569,0.0,0.0,0.0,0.0,0.0,-0.6395,-0.6395,-0.6395,-0.6395,-0.6477,0.0,0.0,-0.6766,0.0,0.0,0.0,0.0,0.0,-0.2553,-0.1704,-0.1704,-0.1632,-0.1471,-0.1471,-0.1513,-0.147,-0.0849,-0.0663,-0.052,0.0265,0.0487,0.077,0.1704,0.1914,0.2113,0.2727,0.283,0.2773,0.2935,0.2971,0.3131,0.3348,0.3459,0.3531,0.3642,0.3699,0.371,0.3574,0.3721,0.3811,0.3678,0.2789,0.1849,0.1048,-0.0123,0.0,-0.1915,0.0,0.0,-0.1977,-0.1977,-0.1977,-0.1977,-0.3499,-0.4779,-0.5896,-0.744,-0.8657,-0.9608,-0.9544,-0.9388,-0.9207,-0.9176,-0.9045,-0.8885,-0.8885,0.0,0.0,-0.9559,-0.9589,-0.9638,-1.0785,-1.1157,-1.1365,-1.327,-1.41,-1.4393,0.0,0.0,0.0,0.0,0.0,0.0,0.0,-0.7743,-0.7228,-0.7064,-0.7068,-0.7163,-0.732,-0.7037,-0.6759,0.0,0.0,0.0,0.0,0.0,0.0,0.0,0.0,0.0,0.0,0.0,0.0,-0.6494,-0.662,0.0,0.0,0.0,0.0,0.0,0.0,-0.6661,-0.6661,-0.6661,0.0,0.0,0.0,0.0,0.0,0.0,0.0,0.0,0.0,-0.3578,-0.2777,-0.2777,-0.2154,-0.1395,-0.1395,-0.1435,-0.1488,-0.1517,-0.1515,-0.1407,-0.053,-0.0273,-0.0056,0.0783,0.1038,0.1014,0.1118,0.1088,0.1212,0.1968,0.215,0.2451,0.3241,0.3459,0.3518,0.3585,0.3601,0.3343,0.2538,0.3222,0.351,0.2718,0.1774,0.1109,0.0986,-0.074,-0.1914,-0.1977,0.0,0.0,-0.1977,-0.1977,-0.1977,-0.1977,-0.4313,-0.5637,-0.5896,-0.8121,-0.9365,-0.9605,-0.9327,-0.9238,-0.9207,-0.9018,-0.8895,-0.8885,0.0,0.0,0.0,-0.9168,-0.9172,-0.9003,-0.9516,-1.0184,-1.0974,-1.2339,-1.3463,-1.4369,0.0,0.0,0.0,0.0,0.0,0.0,-0.7719,-0.7097,-0.682,-0.7231,-0.7278,-0.737,-0.7611,-0.7455,-0.7173,-0.678,0.0,0.0,0.0,0.0,0.0,0.0,0.0,0.0,0.0,0.0,-0.6654,-0.6746,-0.6715,0.0,0.0,0.0,0.0,0.0,0.0,-0.6702,-0.6702,-0.6702,0.0,0.0,0.0,0.0,0.0,0.0,0.0,0.0,0.0,0.0,-0.3667,-0.309,-0.2644,-0.2196,-0.1569,-0.1407,-0.1435,-0.153,-0.16,-0.1617,-0.1272,-0.1202,-0.1009,-0.0112,0.0109,0.0213,0.0745,0.0828,0.0907,0.121,0.174,0.2242,0.2602,0.3133,0.3516,0.3578,0.3587,0.3495,0.321,0.3467,0.3634,0.3366,0.2484,0.1647,0.1047,0.0,-0.1358,0.0,0.0,0.0,-0.1977,-0.1977,-0.1977,-0.1977,-0.3702,-0.5006,-0.576,-0.7471,-0.8662,-0.9334,-0.9268,-0.9166,-0.9022,-0.8908,-0.8885,-0.8885,0.0,0.0,0.0,-0.9099,-0.9105,-0.8951,-0.9347,-0.9628,-1.001,-1.1321,-1.1966,-1.2432,0.0,0.0,0.0,0.0,0.0,-0.7688,-0.7184,-0.6646,-0.6552,-0.721,-0.7302,-0.7417,-0.7716,-0.7617,-0.7424,-0.7153,-0.6807,0.0,0.0,0.0,0.0,0.0,0.0,0.0,0.0,0.0,-0.6885,-0.6947,-0.6976,-0.7021,0.0,0.0,-0.6898,-0.6895,0.0,0.0,0.0,0.0,0.0,0.0,0.0,0.0,0.0,0.0,0.0,0.0,0.0,0.0,0.0,0.0,0.0,-0.3133,-0.2151,-0.1838,-0.1806,-0.159,-0.1564,-0.1633,-0.1679,-0.1729,-0.1604,-0.1,-0.0816,-0.0691,0.0,0.0103,0.0151,0.0403,0.0921,0.1512,0.2071,0.2701,0.3242,0.3522,0.3587,0.3545,0.3302,0.3495,0.3652,0.3439,0.2805,0.1986,0.1039,-0.0184,-0.1234,0.0,0.0,0.0,0.0,-0.1968,-0.1963,-0.1963,-0.3183,-0.44,-0.5669,-0.6836,-0.8064,-0.921,-0.9166,-0.9035,-0.8885,-0.8885,-0.8885,-0.8881,0.0,0.0,0.0,-0.8926,-0.8888,-0.8879,-0.9169,-0.9234,-0.9381,-1.069,-1.1091,-1.1076,0.0,0.0,0.0,0.0,0.0,0.0,-0.711,-0.6646,-0.6474,-0.7021,-0.7098,-0.7216,-0.7567,-0.7465,-0.7434,-0.758,-0.7183,0.0,0.0,0.0,0.0,0.0,0.0,0.0,0.0,0.0,-0.7092,-0.7095,-0.7441,-0.759,-0.759,-0.7438,-0.7409,-0.7402,0.0,0.0,0.0,0.0,0.0,0.0,0.0,0.0,0.0,0.0,0.0,0.0,0.0,0.0,0.0,0.0,0.0,0.0,0.0,-0.2867,-0.2699,-0.1793,-0.1503,-0.1547,-0.1689,-0.1684,-0.1712,-0.1797,-0.1727,-0.1697,-0.1669,-0.1639,-0.1364,-0.0556,-0.0358,0.0156,0.1858,0.2215,0.2529,0.3466,0.3587,0.325,0.2353,0.307,0.3333,0.2412,0.2331,0.1954,0.0962,-0.0856,0.0,0.0,0.0,0.0,0.0,-0.1948,-0.1871,-0.1871,-0.298,-0.422,-0.5576,-0.6593,-0.783,-0.9207,-0.9008,-0.8885,-0.8885,-0.8885,-0.8885,0.0,0.0,0.0,0.0,-0.8394,-0.8477,-0.8711,-0.8796,-0.8981,-0.9381,-1.069,-1.1091,-1.1029,0.0,0.0,0.0,0.0,0.0,0.0,0.0,-0.6311,-0.6477,-0.6886,-0.6953,-0.7105,-0.7556,-0.7556,-0.7546,-0.7597,-0.7275,0.0,0.0,0.0,0.0,0.0,0.0,0.0,0.0,-0.7197,-0.735,-0.7455,-0.7553,-0.7648,-0.774,-0.7594,-0.7529,-0.7519,-0.7366,-0.7299,0.0,0.0,0.0,0.0,0.0,0.0,0.0,0.0,0.0,0.0,0.0,0.0,0.0,0.0,0.0,0.0,0.0,0.0,0.0,-0.253,-0.1996,-0.1532,-0.1562,-0.1622,-0.1731,-0.174,-0.1735,-0.1726,-0.1717,-0.1639,-0.1516,-0.1263,-0.0776,-0.0053,0.117,0.1854,0.2505,0.3471,0.3587,0.3475,0.3194,0.2899,0.2826,0.3267,0.2212,0.073,0.0,0.0,0.0,0.0,0.0,0.0,0.0,-0.1917,-0.1909,-0.187,-0.2222,-0.3394,-0.5424,-0.576,-0.6943,-0.9008,-0.8905,-0.8885,-0.8885,-0.8885,0.0,0.0,0.0,0.0,0.0,-0.8553,-0.8626,-0.8711,-0.8999,-0.9133,-0.9282,-0.9867,-0.9912,-0.9776,0.0,0.0,0.0,0.0,0.0,0.0,0.0,-0.6162,-0.6439,-0.6793,-0.6844,-0.7014,-0.7465,-0.7512,-0.7556,-0.7672,-0.7506,0.0,0.0,0.0,0.0,0.0,0.0,0.0,-0.7224,-0.7377,-0.7533,-0.7678,-0.7736,-0.7811,-0.7892,-0.7746,-0.7678,-0.7672,-0.7461,-0.7415,0.0,0.0,0.0,0.0,0.0,0.0,0.0,0.0,0.0,0.0,0.0,0.0,0.0,0.0,0.0,0.0,0.0,0.0,0.0,0.0,-0.2783,-0.1967,-0.1629,-0.1585,-0.1685,-0.1708,-0.1714,-0.1711,-0.1647,-0.163,-0.1617,-0.1617,-0.1241,-0.0527,0.0738,0.1356,0.2108,0.3386,0.3572,0.3587,0.3587,0.3109,0.2977,0.3669,0.2099,0.0,0.0,0.0,0.0,0.0,0.0,0.0,0.0,-0.1892,-0.1877,-0.1837,-0.1849,-0.2958,-0.5388,-0.539,-0.6589,-0.8885,-0.8885,-0.8854,-0.8797,-0.8797,0.0,0.0,0.0,0.0,0.0,-0.8445,-0.8534,-0.8772,-0.8973,-0.9179,-0.9373,-0.9502,-0.9344,-0.9181,0.0,0.0,0.0,0.0,0.0,0.0,0.0,-0.6169,-0.6405,-0.6661,-0.6702,-0.6868,-0.7309,-0.7419,-0.7499,-0.7773,0.0,0.0,0.0,0.0,0.0,0.0,0.0,0.0,-0.7429,-0.7536,-0.7678,-0.7811,-0.7914,-0.7988,-0.7985,-0.7892,-0.7828,-0.7814,-0.7519,-0.7429,0.0,0.0,0.0,0.0,0.0,0.0,0.0,0.0,0.0,0.0,0.0,0.0,0.0,0.0,0.0,0.0,0.0,0.0,0.0,0.0,0.0,0.0,0.0,-0.1666,-0.1631,-0.1693,-0.1709,-0.1652,-0.1623,-0.1617,0.0,-0.1617,-0.1641,-0.1195,0.0519,0.0855,0.1476,0.3119,0.3495,0.3587,0.3587,0.3595,0.3566,0.351,0.2014,0.0,0.0844,0.0,0.0,0.0,0.0,0.0,0.0,0.0,-0.1782,-0.178,-0.181,-0.2912,-0.525,-0.5361,-0.6531,-0.8771,-0.8871,-0.8849,-0.871,-0.8699,0.0,0.0,0.0,0.0,0.0,-0.8099,-0.8333,-0.8825,-0.8825,-0.9118,-0.9587,-0.9465,-0.9286,-0.9051,0.0,0.0,0.0,0.0,0.0,0.0,0.0,0.0,0.0,0.0,-0.6702,-0.6827,-0.7115,-0.7407,-0.7573,0.0,0.0,0.0,0.0,0.0,0.0,0.0,0.0,0.0,-0.7543,-0.7689,-0.7777,-0.7811,-0.7914,-0.7988,-0.7988,-0.7955,-0.7934,-0.7924,-0.7678,-0.7482,0.0,0.0,0.0,0.0,0.0,0.0,0.0,0.0,0.0,0.0,-0.7095,-0.7095,0.0,0.0,0.0,0.0,0.0,0.0,0.0,0.0,-0.4204,-0.2851,-0.2702,0.0,-0.1545,-0.1583,-0.161,-0.1626,0.0,-0.1617,-0.1617,-0.1617,-0.1641,-0.1355,-0.0317,0.0431,0.1262,0.2334,0.313,0.3587,0.3587,0.3668,0.322,0.1724,0.1879,0.1533,0.0,0.0,0.0,0.0,0.0,0.0,0.0,0.0,-0.1772,-0.1806,-0.1799,-0.2521,-0.4026,-0.4916,-0.6086,-0.754,-0.8378,-0.8747,-0.8706,-0.8587,0.0,0.0,0.0,0.0,-0.8092,-0.8251,-0.8478,-0.8825,-0.9031,-0.9249,-0.9461,-0.942,-0.9157,-0.8881,0.0,0.0,0.0,0.0,0.0,0.0,0.0,0.0,0.0,0.0,0.0,0.0,0.0,0.0,0.0,0.0,0.0,0.0,0.0,0.0,0.0,0.0,0.0,-0.7546,-0.7692,-0.7773,-0.7845,-0.7916,-0.7948,-0.7988,-0.7988,-0.7988,-0.7988,-0.7978,-0.7797,-0.7614,0.0,0.0,0.0,0.0,0.0,0.0,0.0,0.0,0.0,0.0,-0.7095,-0.7095,0.0,-0.7095,-0.7095,-0.7095,0.0,0.0,0.0,0.0,-0.5317,-0.41,-0.3721,-0.2571,-0.1558,-0.1653,-0.1626,-0.1638,-0.1638,-0.1627,-0.1617,-0.1617,-0.163,-0.1389,-0.0571,0.0,0.0704,0.1968,0.2606,0.3147,0.3569,0.371,0.3426,0.2382,0.1994,0.1399,0.0,0.0,0.0,0.0,0.0,0.0,0.0,0.0,-0.1812,-0.1795,-0.1781,-0.239,-0.358,-0.4804,-0.5952,-0.7013,-0.8148,-0.8638,-0.8506,-0.8421,0.0,0.0,0.0,0.0,-0.7988,-0.8137,-0.8343,-0.8574,-0.8822,-0.9007,-0.9076,-0.909,-0.8986,-0.8808,0.0,0.0,0.0,0.0,0.0,0.0,0.0,0.0,0.0,0.0,0.0,0.0,0.0,0.0,0.0,0.0,0.0,0.0,0.0,0.0,0.0,0.0,-0.7709,-0.7699,-0.7841,-0.7845,-0.7909,-0.7988,-0.8012,-0.8012,-0.7988,-0.8015,-0.8002,-0.7948,-0.7868,-0.7743,0.0,0.0,0.0,0.0,0.0,0.0,0.0,0.0,0.0,0.0,0.0,0.0,0.0,-0.7095,-0.7095,-0.7095,-0.7095,0.0,0.0,0.0,0.0,0.0,-0.4782,-0.3199,-0.1787,-0.1688,-0.1707,-0.1713,-0.1708,-0.1635,-0.1617,-0.1617,-0.1617,-0.1417,-0.0712,-0.047,0.0107,0.1716,0.2255,0.2705,0.3555,0.373,0.3773,0.3604,0.2216,0.0,0.0,0.0,0.0,0.0,0.0,0.0,0.0,0.0,0.0,-0.1781,-0.1811,-0.2302,-0.3276,-0.4493,-0.5612,-0.6619,-0.7842,-0.8351,-0.8323,-0.8245,0.0,0.0,0.0,0.0,-0.7955,-0.7955,-0.8066,-0.8176,-0.8412,-0.8543,-0.8606,-0.874,-0.8713,-0.8714,0.0,0.0,0.0,0.0,0.0,0.0,0.0,0.0,0.0,0.0,0.0,0.0,0.0,0.0,0.0,0.0,0.0,0.0,0.0,0.0,0.0,-0.7955,-0.7862,-0.7848,-0.7951,-0.7955,-0.7968,-0.7988,-0.817,-0.8167,-0.7992,-0.8174,-0.8096,-0.7845,-0.7821,-0.7797,-0.778,-0.7801,0.0,0.0,0.0,0.0,0.0,0.0,0.0,0.0,0.0,0.0,0.0,-0.7095,-0.7095,-0.7095,-0.7095,0.0,0.0,0.0,0.0,0.0,-0.5751,-0.4279,-0.2603,-0.1787,-0.1675,-0.1707,-0.163,-0.162,-0.1617,-0.1617,-0.1617,-0.1581,-0.1523,-0.0902,-0.0054,0.0941,0.2402,0.3439,0.367,0.0,0.3491,0.2698,0.0,0.0,0.0,0.0,0.0,0.0,0.0,0.0,0.0,0.0,0.0,-0.1719,-0.1714,-0.182,-0.1986,-0.3164,-0.4333,-0.5384,-0.6503,-0.7476,-0.8316,-0.8136,-0.8012,0.0,0.0,-0.7917,-0.7845,-0.7845,-0.7904,-0.8056,-0.8056,-0.8145,-0.8231,-0.8473,-0.8458,-0.8324,0.0,0.0,0.0,0.0,0.0,0.0,0.0,0.0,0.0,0.0,0.0,0.0,0.0,0.0,0.0,0.0,0.0,0.0,0.0,0.0,-0.7988,-0.7988,-0.7924,-0.7917,-0.7988,-0.7988,-0.8029,-0.8163,-0.8235,-0.8235,-0.8163,-0.815,-0.8069,-0.7884,-0.7884,-0.7884,-0.7884,-0.7884,-0.7924,0.0,0.0,0.0,0.0,0.0,0.0,0.0,0.0,0.0,0.0,0.0,-0.7095,-0.7095,-0.7095,0.0,0.0,0.0,0.0,0.0,-0.5943,-0.5246,-0.4241,-0.2716,-0.2035,-0.175,-0.1652,-0.1641,-0.1637,-0.162,-0.1617,-0.1675,-0.2012,-0.1524,-0.0808,0.0056,0.1299,0.2286,0.267,0.2166,0.1711,0.0,0.0,0.0,0.0,0.0,0.0,0.0,0.0,0.0,0.0,0.0,0.0,0.0,-0.1848,-0.1682,-0.1682,-0.2236,-0.3324,-0.5022,-0.6169,-0.719,-0.8143,-0.8022,-0.7944,-0.7916,0.0,-0.7831,-0.7695,-0.7695,-0.7705,-0.7706,-0.7795,-0.7794,-0.7837,-0.8191,-0.8359,-0.8428,0.0,0.0,0.0,0.0,0.0,0.0,0.0,0.0,0.0,0.0,0.0,0.0,0.0,0.0,0.0,0.0,0.0,0.0,0.0,-0.7971,-0.7988,-0.7988,-0.7988,-0.7988,-0.7988,-0.7988,-0.8099,-0.8218,-0.8252,-0.8323,-0.832,-0.8113,-0.7988,-0.7988,-0.7988,-0.7988,-0.7988,-0.7988,-0.7988,0.0,0.0,0.0,0.0,0.0,0.0,0.0,0.0,0.0,0.0,0.0,0.0,0.0,0.0,0.0,0.0,-0.7095,-0.7095,-0.6969,-0.629,-0.6026,-0.5514,-0.382,-0.2735,-0.2027,-0.1775,-0.1812,-0.1852,-0.1834,-0.1931,-0.2084,-0.2386,-0.1876,-0.1236,-0.0662,0.0168,0.0852,0.1269,0.052,0.0,0.0,0.0,0.0,0.0,0.0,0.0,0.0,0.0,0.0,0.0,0.0,0.0,0.0,-0.1975,-0.1652,-0.1652,-0.1628,-0.259,-0.4519,-0.5695,-0.6723,-0.7637,-0.7852,-0.7874,-0.7811,-0.7777,-0.7678,-0.7546,-0.7546,-0.7455,-0.7361,-0.7493,-0.7513,-0.7551,-0.7984,-0.8292,-0.852,0.0,0.0,0.0,0.0,0.0,0.0,0.0,0.0,0.0,0.0,0.0,0.0,0.0,0.0,0.0,0.0,0.0,0.0,0.0,-0.7911,-0.7988,-0.7988,-0.7988,-0.7988,-0.7988,-0.7988,-0.7995,-0.8005,-0.8201,-0.8323,-0.832,-0.8113,-0.7988,-0.7988,-0.7988,-0.7988,-0.7988,-0.7988,-0.7988,-0.7988,-0.7988,0.0,0.0,0.0,0.0,0.0,0.0,0.0,0.0,0.0,0.0,0.0,0.0,0.0,-0.7095,-0.7095,-0.7095,-0.7129,-0.7225,-0.6548,-0.5616,-0.4707,-0.3782,-0.285,-0.1914,-0.21,-0.2438,-0.2425,-0.2896,-0.3103,-0.2587,-0.1419,-0.0639,-0.1069,-0.0374,0.0108,-0.0274,0.0,0.0,0.0,0.0,0.0,0.0,0.0,0.0,0.0,0.0,0.0,0.0,0.0,0.0,0.0,0.0,-0.162,-0.162,-0.1618,-0.2171,-0.3331,-0.4433,-0.5484,-0.6531,-0.74,-0.7821,-0.7804,-0.7672,-0.7529,-0.7433,-0.7433,-0.7295,-0.7112,-0.7156,-0.7286,-0.7551,-0.7812,-0.8072,-0.8245,0.0,0.0,0.0,0.0,0.0,0.0,0.0,0.0,0.0,0.0,0.0,0.0,0.0,0.0,0.0,0.0,0.0,0.0,0.0,-0.7865,-0.7891,-0.7985,-0.7988,-0.7988,-0.7988,-0.7988,-0.7988,-0.7988,-0.8194,-0.8368,-0.8397,-0.8252,-0.8184,-0.8184,-0.8184,-0.813,-0.7988,-0.7988,-0.7988,-0.7988,-0.7988,0.0,0.0,0.0,0.0,0.0,0.0,0.0,0.0,0.0,-0.7095,-0.7095,-0.7095,-0.7095,-0.7095,-0.7095,-0.7095,-0.7109,-0.721,-0.7086,-0.6697,-0.5695,-0.4844,-0.3826,-0.2488,-0.2375,-0.2667,-0.3053,-0.329,-0.3315,-0.3056,-0.2814,-0.2689,-0.2641,-0.2346,-0.2036,-0.1773,0.0,0.0,0.0,0.0,0.0,0.0,0.0,0.0,0.0,0.0,0.0,0.0,0.0,0.0,0.0,0.0,-0.1919,-0.1617,-0.1617,-0.1807,-0.2231,-0.3952,-0.5295,-0.6323,-0.7349,-0.7712,-0.7536,-0.7482,-0.737,-0.7227,-0.7227,-0.7149,-0.7095,-0.7095,-0.7363,-0.7768,-0.7856,-0.812,-0.8472,0.0,0.0,0.0,0.0,0.0,0.0,0.0,0.0,0.0,0.0,0.0,0.0,0.0,0.0,0.0,0.0,0.0,0.0,-0.7658,-0.7719,-0.7811,-0.7911,-0.7917,-0.7917,-0.7917,-0.7917,-0.7941,-0.7988,-0.8147,-0.8248,-0.834,-0.8245,-0.8197,-0.8197,-0.8197,-0.814,-0.7988,-0.7988,-0.7988,-0.7988,-0.7988,-0.7645,0.0,0.0,0.0,0.0,0.0,0.0,0.0,0.0,-0.7095,-0.7095,-0.7095,-0.7095,-0.7095,-0.7095,-0.7129,-0.7214,-0.7214,-0.7366,-0.73,-0.63,-0.5701,-0.4924,-0.3557,-0.3047,-0.3067,-0.3616,-0.3673,-0.3626,-0.3575,-0.373,-0.3866,0.0,-0.3764,-0.364,0.0,0.0,0.0,0.0,0.0,0.0,0.0,0.0,0.0,0.0,0.0,0.0,0.0,0.0,0.0,0.0,0.0,-0.2082,-0.1588,-0.1588,-0.1578,-0.1605,-0.3391,-0.4757,-0.5714,-0.673,-0.7276,-0.7412,-0.7319,-0.7238,-0.7095,-0.7095,-0.7095,-0.7095,-0.7095,-0.7319,-0.7676,-0.7856,-0.812,-0.8388,0.0,0.0,0.0,0.0,0.0,0.0,0.0,0.0,0.0,0.0,0.0,0.0,0.0,0.0,0.0,0.0,0.0,0.0,-0.7415,-0.7512,-0.7662,-0.7801,-0.7811,-0.7811,-0.7811,-0.7814,-0.7885,-0.7988,-0.7988,-0.7988,-0.7992,-0.7992,-0.7992,-0.7992,-0.7992,-0.7992,-0.7988,-0.7988,-0.7988,-0.7988,-0.7988,-0.7251,-0.6287,0.0,0.0,0.0,0.0,0.0,0.0,0.0,-0.7095,-0.7095,-0.7095,-0.7095,-0.7095,-0.7095,-0.7251,-0.7415,-0.7415,-0.7415,-0.722,-0.642,-0.6314,-0.614,-0.5142,-0.4191,-0.3644,-0.4138,-0.4199,-0.4198,-0.4198,-0.3782,-0.3573,-0.4095,-0.4262,0.0,0.0,0.0,0.0,0.0,0.0,0.0,0.0,0.0,0.0,0.0,0.0,0.0,0.0,0.0,0.0,0.0,0.0,0.0,-0.1526,-0.1478,-0.1478,-0.1525,-0.2569,-0.361,-0.4606,-0.5483,-0.6441,-0.736,-0.7162,-0.7095,-0.7095,-0.7095,-0.7095,-0.7095,-0.7095,-0.7095,-0.7183,-0.772,-0.79,-0.7988,0.0,0.0,0.0,0.0,0.0,0.0,0.0,0.0,0.0,0.0,0.0,0.0,0.0,0.0,0.0,0.0,0.0,0.0,-0.7415,-0.746,-0.7506,-0.7655,-0.7756,-0.7811,-0.7811,-0.7916,-0.7891,-0.7879,-0.7879,-0.7991,-0.8201,-0.8201,-0.8201,-0.8201,-0.8201,-0.814,-0.7982,-0.7877,-0.7494,-0.688,-0.6784,-0.6088,-0.5124,0.0,0.0,0.0,0.0,0.0,0.0,0.0,0.0,0.0,-0.7065,-0.7095,-0.7095,-0.7095,-0.7251,-0.735,-0.7238,-0.7288,-0.7361,-0.7229,-0.6715,-0.6338,-0.6694,-0.5763,-0.482,-0.4798,-0.4784,-0.4747,-0.4634,-0.447,-0.442,-0.4572,-0.4643,0.0,0.0,0.0,0.0,0.0,0.0,0.0,0.0,0.0,0.0,0.0,0.0,0.0,0.0,0.0,0.0,0.0,0.0,0.0,-0.1526,-0.1478,-0.1515,-0.1494,-0.182,-0.247,-0.3447,-0.5126,-0.6028,-0.6221,-0.6849,-0.7095,-0.7095,-0.7095,-0.7095,-0.7095,-0.7095,-0.7319,-0.7676,-0.7856,-0.812,-0.8432,0.0,0.0,0.0,0.0,0.0,0.0,0.0,0.0,0.0,0.0,-0.6734,-0.6819,0.0,0.0,0.0,0.0,0.0,0.0,0.0,-0.7278,-0.7377,-0.759,-0.7682,-0.7753,-0.7811,-0.7899,-0.7875,-0.7726,-0.7845,-0.7997,-0.8177,-0.8177,-0.8177,-0.8177,-0.8177,-0.8092,-0.7894,-0.7459,-0.6903,-0.6287,-0.5777,-0.4942,-0.4033,0.0,0.0,0.0,0.0,0.0,0.0,0.0,0.0,0.0,-0.6896,-0.6923,-0.6947,-0.7061,-0.7207,-0.7299,-0.7338,-0.7434,-0.7512,-0.7723,-0.7356,-0.7119,-0.7651,-0.6678,-0.5585,-0.5074,-0.4943,-0.489,-0.4802,-0.4783,0.0,-0.4783,0.0,0.0,0.0,0.0,0.0,0.0,0.0,0.0,0.0,0.0,0.0,0.0,0.0,0.0,0.0,0.0,0.0,0.0,0.0,0.0,-0.177,-0.1583,-0.148,-0.1463,-0.1463,-0.1736,-0.2375,-0.3963,-0.5063,-0.5764,-0.6697,-0.7095,-0.7095,-0.7095,-0.7095,-0.7095,-0.7095,-0.7319,-0.7588,-0.7808,-0.8076,-0.8344,0.0,0.0,0.0,0.0,0.0,0.0,0.0,0.0,0.0,0.0,-0.5586,-0.5673,0.0,0.0,0.0,0.0,0.0,0.0,0.0,-0.7085,-0.7213,-0.7567,-0.7604,-0.7685,-0.7828,-0.7818,-0.7746,-0.7617,-0.784,-0.7968,-0.7968,-0.7968,-0.7968,-0.7968,-0.7955,-0.7864,-0.7574,-0.6744,-0.6191,-0.5805,-0.4904,-0.3913,-0.3052,-0.389,0.0,0.0,0.0,0.0,0.0,0.0,0.0,0.0,-0.6695,-0.6702,-0.6753,-0.6977,-0.7075,-0.7186,-0.7638,-0.7665,-0.7648,-0.7894,-0.8077,-0.8164,-0.7941,-0.711,-0.6121,-0.5255,-0.4974,-0.4835,-0.471,-0.4696,-0.4694,0.0,0.0,0.0,0.0,0.0,0.0,0.0,0.0,0.0,0.0,0.0,0.0,0.0,0.0,0.0,0.0,0.0,0.0,0.0,0.0,0.0,-0.2199,-0.166,-0.1391,0.0,-0.1391,-0.1391,-0.1436,-0.2419,-0.3937,-0.5764,-0.6609,-0.7007,-0.7095,-0.7095,-0.7095,-0.7095,-0.7095,-0.7095,-0.7187,-0.7676,-0.79,-0.7944,0.0,0.0,0.0,0.0,0.0,0.0,0.0,0.0,0.0,0.0,0.0,0.0,0.0,0.0,0.0,0.0,0.0,0.0,0.0,-0.6994,-0.7109,-0.7407,-0.7641,-0.7834,-0.7938,-0.7872,-0.7797,-0.7767,-0.7828,-0.7862,-0.7862,-0.7862,-0.7862,-0.7855,-0.7743,-0.7227,-0.6429,-0.615,-0.5096,-0.3669,-0.3342,-0.2613,-0.177,-0.1973,-0.282,0.0,0.0,0.0,0.0,0.0,0.0,0.0,-0.6661,-0.6702,-0.6712,-0.6776,-0.6916,-0.7115,-0.7213,-0.735,-0.7492,-0.7787,-0.8122,-0.8164,-0.7388,-0.7342,-0.7122,-0.5942,-0.5562,-0.5241,-0.4699,-0.4602,-0.4579,0.0,0.0,0.0,0.0,0.0,0.0,0.0,0.0,0.0,0.0,0.0,0.0,0.0,0.0,0.0,0.0,0.0,0.0,0.0,0.0,-0.2689,-0.2199,-0.166,-0.1391,0.0,-0.1391,-0.1391,-0.1436,-0.2419,-0.3937,-0.5719,-0.5897,-0.6432,-0.7095,-0.7095,-0.7095,-0.7095,-0.7095,-0.7231,-0.7415,-0.7547,-0.7724,-0.7944,0.0,0.0,0.0,0.0,0.0,0.0,0.0,0.0,0.0,0.0,0.0,0.0,0.0,0.0,0.0,0.0,0.0,0.0,0.0,-0.6927,-0.7092,-0.7465,-0.7692,-0.7882,-0.7985,-0.7824,-0.7709,-0.7709,-0.7777,-0.7811,-0.7814,-0.7885,-0.7919,-0.7867,-0.7767,-0.7101,-0.6068,-0.5499,-0.433,-0.2865,-0.2319,-0.1797,-0.1368,-0.1354,-0.2362,-0.3806,-0.3893,0.0,0.0,0.0,0.0,0.0,0.0,0.0,-0.6519,-0.6658,-0.6756,-0.6885,-0.7173,-0.7309,-0.7458,-0.7828,-0.8122,-0.8157,-0.7686,-0.775,-0.7695,-0.68,-0.6318,-0.5928,-0.5552,-0.545,0.0,0.0,0.0,0.0,0.0,0.0,0.0,0.0,0.0,0.0,0.0,0.0,0.0,0.0,0.0,0.0,0.0,0.0,0.0,0.0,-0.327,-0.2778,-0.2556,-0.1793,-0.1391,-0.1391,-0.1391,-0.1391,-0.1436,-0.2419,-0.3446,-0.4427,-0.5319,-0.5985,-0.6473,-0.6918,-0.7095,-0.7095,-0.7095,-0.7187,-0.7323,-0.7459,-0.7595,-0.7768,0.0,0.0,0.0,0.0,0.0,0.0,0.0,0.0,0.0,0.0,0.0,0.0,0.0,0.0,0.0,0.0,0.0,0.0,0.0,-0.6896,-0.7088,-0.7506,-0.7685,-0.7821,-0.7874,-0.7658,-0.7533,-0.756,-0.7624,-0.7726,-0.7851,-0.7904,-0.7951,-0.7941,-0.7814,-0.7001,-0.5732,-0.4816,-0.3712,-0.2449,-0.1622,-0.129,-0.1288,-0.1304,-0.2261,-0.3576,-0.3742,-0.4768,-0.6103,-0.6261,0.0,0.0,0.0,0.0,-0.6347,-0.6552,-0.6536,-0.6586,-0.7088,-0.7299,-0.7431,-0.781,-0.8021,-0.8113,-0.8085,-0.8066,-0.7913,-0.7521,-0.7012,-0.6611,-0.645,-0.6384,0.0,0.0,0.0,0.0,0.0,0.0,0.0,0.0,0.0,0.0,0.0,0.0,0.0,0.0,0.0,0.0,0.0,0.0,-0.43,-0.43,-0.3405,-0.2911,-0.2911,-0.1883,-0.1391,-0.1391,-0.1391,-0.1391,-0.1436,-0.224,-0.2732,-0.3001,-0.4561,-0.5408,-0.5764,-0.6517,-0.6962,-0.7095,-0.7095,-0.7095,-0.7139,-0.7367,-0.7415,-0.7503,0.0,0.0,0.0,0.0,0.0,0.0,0.0,0.0,0.0,0.0,-0.1665,-0.1988,-0.2819,-0.3755,0.0,0.0,0.0,0.0,-0.6732,0.0,0.0,-0.7152,-0.7475,-0.7577,-0.7461,-0.7292,-0.7268,-0.7446,-0.7163,-0.7331,-0.7958,-0.7892,-0.7841,-0.7831,-0.7553,-0.6397,-0.4619,-0.4355,-0.3177,-0.1506,-0.1348,-0.1309,-0.1308,-0.1305,-0.1854,-0.2756,-0.3524,-0.4377,-0.5279,-0.6064,-0.63,0.0,0.0,0.0,-0.6306,-0.6347,-0.6344,-0.6347,-0.6426,-0.6783,-0.7206,-0.7577,-0.7645,-0.7641,-0.7554,-0.7626,-0.7692,-0.7519,-0.7265,-0.6897,-0.6479,0.0,0.0,0.0,0.0,0.0,0.0,0.0,0.0,0.0,0.0,0.0,0.0,0.0,0.0,0.0,0.0,0.0,0.0,-0.43,-0.43,-0.43,-0.3405,-0.2911,-0.2911,-0.1883,-0.1391,-0.1391,-0.1391,-0.1391,-0.1391,-0.1524,-0.2061,-0.2911,-0.3179,-0.4204,-0.5719,-0.5852,-0.6384,-0.7095,-0.7095,-0.7095,-0.7095,-0.7143,-0.7143,-0.7187,0.0,0.0,0.0,0.0,0.0,0.0,0.0,0.0,0.0,0.0,0.0,-0.1592,-0.2,-0.3347,0.0,0.0,0.0,0.0,-0.6576,-0.6854,0.0,-0.6977,-0.7109,-0.7227,-0.7241,-0.7014,-0.697,-0.7122,-0.6993,-0.7179,-0.7794,-0.7804,-0.7946,-0.8174,-0.7879,-0.659,-0.4656,-0.4418,-0.3142,-0.1296,-0.1296,-0.1318,-0.1304,-0.131,-0.1835,-0.26,-0.2966,-0.3912,-0.5043,-0.5434,-0.5906,-0.631,-0.6375,0.0,0.0,0.0,-0.6071,-0.6078,-0.6417,-0.6759,-0.7071,-0.7502,-0.7536,-0.7455,-0.7433,-0.7486,-0.7629,-0.7694,-0.7716,-0.7669,0.0,0.0,0.0,0.0,0.0,0.0,0.0,0.0,0.0,0.0,0.0,0.0,0.0,0.0,0.0,0.0,0.0,0.0,-0.43,-0.43,-0.4166,-0.3898,-0.327,-0.2778,-0.2511,-0.1749,-0.1391,-0.1391,-0.1391,-0.1391,-0.1391,-0.1391,-0.1659,-0.2106,-0.2644,-0.3358,-0.4204,-0.5275,-0.5941,-0.6384,-0.6874,-0.7095,-0.7095,-0.7095,-0.7045,-0.7021,0.0,0.0,0.0,0.0,0.0,0.0,0.0,0.0,0.0,0.0,0.0,-0.1379,-0.1379,0.0,0.0,0.0,0.0,0.0,-0.6481,0.0,0.0,0.0,-0.6851,-0.6859,-0.6927,-0.6756,-0.6719,-0.6829,-0.6831,-0.7102,-0.7655,-0.7726,-0.8014,-0.8469,-0.8174,-0.6837,-0.482,-0.4506,-0.3201,-0.1331,-0.1323,-0.1307,-0.1302,-0.1314,-0.1744,-0.2334,-0.2475,-0.3468,-0.4728,-0.4945,-0.5529,-0.6248,-0.6286,-0.6129,0.0,0.0,0.0,-0.5803,-0.6329,-0.6583,-0.6768,-0.7258,-0.7316,-0.7268,-0.7305,-0.741,-0.7536,0.0,-0.792,0.0,0.0,0.0,0.0,0.0,0.0,0.0,0.0,0.0,0.0,0.0,0.0,0.0,0.0,0.0,0.0,0.0,0.0,0.0,-0.43,-0.4166,-0.3942,-0.3631,-0.3048,-0.2556,-0.2199,-0.166,-0.1391,-0.1391,-0.1383,-0.1379,-0.1379,-0.1372,-0.1369,-0.1413,-0.2174,-0.2667,-0.2975,-0.4366,-0.5233,-0.5714,-0.6415,-0.6807,-0.6984,-0.6984,-0.6916,-0.6871,0.0,0.0,0.0,0.0,0.0,0.0,0.0,0.0,0.0,0.0,0.0,-0.1393,-0.1393,-0.2175,-0.2999,-0.3736,-0.4751,0.0,0.0,0.0,0.0,0.0,0.0,0.0,-0.6549,-0.6532,-0.6559,-0.6712,-0.6566,-0.6943,-0.7797,-0.7672,-0.7923,-0.8469,-0.8174,-0.6741,-0.4583,-0.4446,-0.3242,-0.1381,-0.1311,-0.1303,-0.1311,-0.1362,-0.1428,-0.1555,-0.2337,-0.3133,-0.3983,-0.4723,-0.5466,-0.6067,-0.6252,-0.6091,-0.5813,0.0,0.0,0.0,-0.5766,-0.5959,-0.6148,-0.6634,-0.6851,-0.6943,-0.7078,-0.733,-0.746,-0.7264,-0.7578,0.0,0.0,0.0,0.0,0.0,0.0,0.0,0.0,0.0,0.0,0.0,0.0,0.0,0.0,0.0,0.0,0.0,0.0,0.0,-0.4344,-0.39,-0.3631,-0.3587,-0.2691,-0.2243,-0.2199,-0.166,-0.1391,-0.139,-0.1406,-0.1393,-0.1391,-0.1322,-0.131,-0.1311,-0.1423,-0.2,-0.282,-0.293,-0.3952,-0.5502,-0.5544,-0.605,-0.6722,-0.6722,-0.6719,-0.6712,0.0,0.0,0.0,0.0,0.0,0.0,0.0,0.0,0.0,0.0,0.0,0.0,0.0,-0.2162,-0.304,-0.3861,-0.5331,0.0,0.0,0.0,0.0,0.0,0.0,0.0,-0.6378,-0.6375,-0.6402,-0.646,-0.6402,-0.6647,-0.7203,-0.724,-0.7522,-0.7919,-0.7955,-0.6836,-0.4818,-0.4583,-0.329,-0.1388,-0.1379,-0.1398,-0.1431,-0.1413,-0.143,-0.1499,-0.1675,-0.2687,-0.3964,-0.4165,-0.5118,-0.6169,-0.6125,-0.5908,-0.5647,-0.5583,-0.5477,-0.546,-0.5722,-0.584,-0.5993,-0.6441,-0.6597,-0.6675,-0.6824,-0.707,-0.7225,-0.7164,-0.7488,0.0,0.0,0.0,0.0,0.0,0.0,0.0,0.0,0.0,0.0,0.0,0.0,0.0,0.0,0.0,0.0,0.0,0.0,0.0,-0.4772,-0.3964,-0.3362,-0.3016,-0.2454,-0.1981,-0.1638,-0.1423,-0.1337,-0.1336,-0.1325,-0.1321,-0.132,-0.131,-0.1305,-0.1305,-0.1338,-0.1513,-0.1871,-0.2528,-0.3481,-0.4608,-0.5233,-0.5987,-0.6702,-0.6702,-0.6723,-0.6762,0.0,0.0,0.0,0.0,0.0,0.0,0.0,0.0,-0.1017,-0.1133,0.0,0.0,0.0,0.0,-0.2664,-0.3822,-0.5546,-0.6552,-0.6552,-0.6552,0.0,0.0,0.0,0.0,-0.6303,-0.63,-0.63,-0.63,-0.6347,-0.6512,-0.6854,-0.6957,-0.7159,-0.7405,-0.7268,-0.6345,-0.4867,-0.4635,-0.3332,-0.1435,-0.1425,-0.1438,-0.1466,-0.1466,-0.1478,-0.1487,-0.1417,-0.2334,-0.3587,-0.381,-0.4736,-0.5803,-0.5965,-0.5793,-0.5528,-0.5426,-0.5395,-0.5436,-0.5599,-0.5691,-0.5827,-0.6224,-0.6322,-0.639,-0.6641,-0.6867,-0.6992,-0.6992,0.0,0.0,0.0,0.0,0.0,0.0,0.0,0.0,0.0,0.0,0.0,0.0,0.0,0.0,0.0,0.0,0.0,0.0,0.0,0.0,-0.4787,-0.379,-0.2902,-0.2231,-0.1977,-0.1641,-0.1305,-0.1305,-0.1305,-0.1305,-0.1296,-0.1291,-0.129,-0.1281,-0.1318,-0.1316,-0.1296,-0.1305,-0.1331,-0.202,-0.2791,-0.3609,-0.4544,-0.5401,-0.6181,-0.6471,-0.6612,-0.6644,0.0,0.0,0.0,0.0,0.0,0.0,0.0,0.0,-0.0748,-0.0872,0.0,0.0,0.0,0.0,0.0,-0.366,-0.5325,-0.6278,-0.6313,-0.6313,-0.631,0.0,0.0,0.0,-0.6303,-0.63,-0.63,-0.63,-0.6436,-0.6542,-0.6692,-0.6844,-0.6947,-0.7027,-0.6149,-0.5312,-0.4593,-0.4622,-0.3449,-0.1522,-0.1491,-0.1463,-0.1405,-0.1568,-0.1576,-0.1521,-0.149,-0.2006,-0.2847,-0.3707,-0.4356,-0.4949,-0.5733,-0.5722,-0.5399,-0.5395,-0.5399,-0.5399,0.0,0.0,0.0,-0.5909,-0.5979,-0.6094,-0.6573,-0.6728,-0.6784,-0.6788,0.0,0.0,0.0,0.0,0.0,0.0,0.0,0.0,0.0,0.0,0.0,0.0,0.0,0.0,0.0,0.0,0.0,0.0,0.0,-0.5529,-0.4397,-0.3271,-0.2267,-0.1345,-0.1303,-0.1303,-0.1303,-0.1303,-0.1303,-0.1303,-0.1314,-0.13,-0.1299,-0.1309,-0.1295,-0.1295,-0.1296,-0.1314,-0.1299,-0.1309,-0.1766,-0.2588,-0.3443,-0.4261,-0.5121,-0.5944,-0.63,-0.6338,0.0,0.0,0.0,0.0,0.0,-0.0756,-0.0691,-0.0591,-0.0533,0.0,0.0,0.0,-0.0954,-0.1794,-0.2782,-0.3914,-0.5073,-0.5981,-0.6546,-0.658,-0.6529,-0.646,-0.6491,-0.6446,-0.6303,-0.63,-0.63,-0.63,-0.6337,-0.6381,-0.6426,-0.6529,-0.662,-0.6661,-0.6479,-0.559,-0.4112,-0.3561,-0.2624,-0.1491,-0.146,-0.1423,-0.1455,-0.1514,-0.1508,-0.1489,-0.1459,-0.2027,-0.2989,-0.3774,-0.4548,-0.5229,-0.5712,-0.5708,-0.5539,-0.5429,-0.5474,-0.5535,-0.5426,0.0,0.0,0.0,0.0,0.0,0.0,0.0,-0.6094,-0.6208,0.0,0.0,0.0,0.0,0.0,0.0,0.0,0.0,0.0,0.0,0.0,0.0,0.0,0.0,0.0,0.0,0.0,0.0,-0.7044,-0.6147,-0.4872,-0.3115,-0.1881,-0.1322,-0.1282,-0.1282,-0.1282,-0.1282,-0.1282,-0.1282,-0.1251,-0.1237,-0.1236,-0.1228,-0.1224,-0.1226,-0.1287,-0.1302,-0.1309,-0.13,-0.1766,-0.2511,-0.2782,-0.3756,-0.5043,-0.5279,-0.5864,-0.6528,0.0,0.0,0.0,-0.059,-0.0483,-0.0475,-0.0422,-0.0323,-0.0272,0.0,0.0,0.0,-0.0791,-0.1911,-0.2884,-0.3423,-0.4737,-0.5656,-0.5959,-0.6425,-0.6607,-0.6433,-0.648,-0.6446,-0.6303,-0.63,-0.63,-0.63,-0.63,-0.63,-0.6303,-0.6385,-0.6388,-0.6291,-0.6021,-0.5108,-0.3722,-0.2891,-0.2118,-0.1427,-0.1446,-0.146,-0.1472,-0.1492,-0.1484,-0.1461,-0.1456,-0.1807,-0.2459,-0.3749,-0.4912,-0.5826,-0.5857,-0.5796,-0.5637,-0.5457,-0.5504,-0.5569,-0.5515,-0.5556,-0.5603,-0.5664,0.0,0.0,-0.5769,-0.5755,0.0,0.0,0.0,0.0,0.0,0.0,0.0,0.0,0.0,0.0,0.0,0.0,0.0,0.0,0.0,0.0,0.0,0.0,0.0,0.0,-0.724,-0.617,-0.4428,-0.2781,-0.1726,-0.1296,-0.1296,-0.1296,-0.1296,-0.1284,-0.1277,-0.1277,-0.1207,-0.1193,-0.1193,-0.1193,-0.1193,-0.1194,-0.1249,-0.1258,-0.1258,-0.1258,-0.1542,-0.2041,-0.2354,-0.3095,-0.4029,-0.473,-0.5392,-0.5977,0.0,0.0,-0.0299,-0.0049,0.0,0.0,0.0,0.0,-0.0046,0.0,-0.0138,-0.0186,-0.0605,-0.168,-0.2379,-0.2554,-0.4231,-0.5243,-0.5025,-0.6034,-0.6536,-0.6313,-0.6422,-0.6429,-0.6303,-0.63,-0.63,-0.63,-0.6282,-0.6276,-0.6272,-0.6255,-0.6129,-0.5942,-0.5192,-0.435,-0.3425,-0.2655,-0.1922,-0.1294,-0.1425,-0.1434,-0.1404,-0.1485,-0.1436,-0.1394,-0.1466,-0.1456,-0.1696,-0.3599,-0.5283,-0.6463,-0.6142,-0.5952,-0.5772,-0.5525,-0.5552,-0.5637,-0.5616,-0.5627,-0.5661,-0.5752,-0.5694,0.0,-0.5732,-0.5667,-0.5627,0.0,0.0,0.0,0.0,0.0,0.0,0.0,0.0,0.0,0.0,0.0,0.0,0.0,0.0,0.0,0.0,-0.826,-0.8122,-0.7824,-0.7009,-0.5665,-0.3604,-0.2429,-0.1687,-0.1296,-0.1293,-0.1291,-0.1291,-0.1222,-0.1207,-0.1206,-0.1176,-0.1198,-0.1198,-0.1198,-0.1198,-0.1198,-0.1201,-0.1203,-0.1203,-0.1203,-0.1236,-0.1364,-0.2063,-0.2452,-0.28,-0.4269,-0.4925,-0.5233,-0.0828,-0.0375,-0.0048,0.0,0.0,0.0,0.0,0.0,0.0,-0.0048,-0.0143,-0.0286,-0.0436,-0.0959,-0.1591,-0.2309,-0.3459,-0.4401,-0.5043,-0.5882,-0.6361,-0.6303,-0.6327,-0.6327,-0.63,-0.63,-0.63,-0.63,-0.6135,-0.6074,-0.6071,-0.5949,-0.5813,-0.5677,-0.5498,-0.4645,-0.3251,-0.3176,-0.2401,-0.121,-0.1301,-0.1373,-0.1383,-0.1401,-0.1401,-0.1391,-0.1397,-0.1425,-0.1656,-0.3461,-0.5152,-0.648,-0.6306,-0.6108,-0.5912,-0.5769,-0.5823,-0.5882,-0.5793,-0.585,-0.5895,-0.5684,-0.5694,0.0,-0.5528,-0.5556,-0.5596,0.0,0.0,0.0,0.0,0.0,0.0,0.0,0.0,0.0,0.0,0.0,0.0,0.0,0.0,0.0,0.0,-0.8065,-0.7983,-0.7816,-0.5992,-0.4667,-0.4219,-0.2429,-0.1375,-0.1296,-0.1234,-0.1221,-0.1221,-0.1191,-0.1212,-0.1211,-0.1144,-0.1129,-0.1129,-0.1129,-0.1129,-0.1131,-0.1192,-0.1203,-0.1203,-0.1203,-0.121,-0.1221,-0.1406,-0.2216,-0.3358,-0.3689,-0.457,-0.5669,-0.0264,-0.0092,0.0,0.0,0.0,0.0,0.0,0.0,0.0,0.0,-0.0099,-0.0197,-0.0398,-0.0567,-0.0957,-0.1593,-0.2555,-0.3546,-0.4495,-0.5325,-0.5932,-0.6366,-0.6337,-0.6334,-0.6405,-0.6337,-0.6334,-0.6405,-0.6139,-0.6067,-0.6139,-0.5908,-0.5803,-0.5803,-0.5654,-0.4746,-0.3291,-0.3311,-0.2479,-0.1214,-0.1298,-0.1365,-0.135,-0.1408,-0.1412,-0.1411,-0.1353,-0.1683,-0.2301,-0.3579,-0.4828,-0.5888,-0.6188,-0.6245,-0.6098,-0.5867,-0.5911,-0.5976,-0.5935,-0.5936,-0.5956,-0.5847,-0.5803,0.0,0.0,-0.5511,-0.5511,-0.5511,-0.5511,0.0,0.0,0.0,0.0,0.0,0.0,0.0,0.0,0.0,0.0,0.0,0.0,0.0,0.0,0.0,-0.8136,-0.7789,-0.5853,-0.4569,-0.4258,-0.2546,-0.1484,-0.1274,-0.122,-0.1204,-0.1189,-0.1159,-0.1144,-0.1143,-0.1113,-0.1098,-0.1098,-0.1098,-0.1098,-0.1099,-0.1149,-0.1156,-0.1156,-0.1156,-0.1156,-0.1159,-0.1191,-0.1675,-0.2437,-0.3199,-0.3996,-0.479,0.0,0.0,0.0,0.0,0.0,0.0,0.0,0.0,0.0,0.0,0.0,-0.0101,-0.0303,-0.0342,-0.0519,-0.0875,-0.1825,-0.2835,-0.3853,-0.4671,-0.5523,-0.6434,-0.6334,-0.6306,-0.6383,-0.6313,-0.631,-0.6386,-0.6115,-0.6051,-0.6204,-0.5861,-0.5796,-0.5899,-0.5518,-0.4635,-0.3399,-0.3136,-0.2328,-0.1241,-0.1324,-0.1359,-0.13,-0.1371,-0.1382,-0.1378,-0.1307,-0.1921,-0.2874,-0.369,-0.4496,-0.5294,-0.6061,-0.63,-0.6248,-0.5962,-0.5976,-0.6074,-0.6074,-0.6016,-0.5986,-0.5956,-0.5891,-0.5755,0.0,0.0,0.0,-0.5399,0.0,0.0,0.0,0.0,0.0,0.0,0.0,0.0,0.0,0.0,0.0,0.0,0.0,0.0,0.0,0.0,-0.8203,-0.7659,-0.5856,-0.459,-0.4105,-0.2624,-0.1591,-0.1213,-0.1206,-0.1188,-0.1194,-0.1127,-0.1112,-0.1112,-0.1087,-0.1109,-0.1109,-0.1109,-0.1109,-0.1109,-0.1109,-0.1109,-0.1109,-0.1109,-0.1109,-0.1114,-0.1165,-0.1256,-0.1543,-0.2936,-0.3545,-0.3937,0.0,0.0,0.0,0.0,0.0,0.0,0.0,0.0,0.0,0.0,0.0,0.0,-0.0051,-0.0195,-0.0338,-0.0448,-0.1399,-0.2403,-0.3497,-0.4308,-0.5205,-0.6295,-0.6139,-0.6027,-0.604,-0.6027,-0.6027,-0.604,-0.5911,-0.5837,-0.5847,-0.5583,-0.5528,-0.5602,-0.4795,-0.4087,-0.3438,-0.266,-0.1921,-0.1288,-0.1306,-0.1311,-0.1311,-0.13,-0.1311,-0.1306,-0.1318,-0.1876,-0.2759,0.0,-0.4367,-0.5179,-0.6028,-0.63,-0.6293,-0.6255,-0.6259,-0.6272,-0.6272,-0.6135,-0.5959,-0.5861,-0.5813,-0.5728,0.0,0.0,-0.5559,-0.5423,0.0,0.0,0.0,0.0,0.0,0.0,0.0,0.0,0.0,0.0,0.0,0.0,0.0,0.0,0.0,0.0,0.0,-0.7457,-0.528,-0.3973,-0.4103,-0.2352,-0.132,-0.1213,-0.1185,-0.1157,-0.1127,-0.1096,-0.1115,-0.1115,-0.1111,-0.1109,-0.1109,-0.1109,-0.1109,-0.1109,-0.1109,-0.1109,-0.1109,-0.1109,-0.1109,-0.111,-0.1117,-0.1492,-0.21,-0.2943,-0.3756,-0.4602,0.0,0.0,0.0,0.0,0.0,0.0,0.0,0.0,0.0,0.0,0.0,0.0,0.0,-0.0099,-0.0194,-0.0342,-0.075,-0.1543,-0.2822,-0.3564,-0.4511,-0.5773,-0.6058,-0.6203,-0.6285,-0.6118,-0.5993,-0.5993,-0.5793,-0.5722,-0.5793,-0.5532,-0.5569,-0.5804,-0.4783,-0.4118,-0.3617,-0.2669,-0.1858,-0.125,-0.125,-0.125,-0.1257,-0.1282,-0.1284,-0.1294,-0.1281,-0.1554,-0.1987,0.0,-0.36,0.0,0.0,0.0,0.0,-0.63,-0.63,-0.63,-0.63,0.0,0.0,0.0,0.0,0.0,-0.5556,0.0,-0.5474,0.0,0.0,0.0,0.0,0.0,0.0,0.0,0.0,0.0,0.0,0.0,0.0,0.0,0.0,0.0,0.0,0.0,0.0,0.0,0.0,-0.3848,-0.3904,-0.2273,-0.1274,-0.1187,-0.121,-0.1179,-0.1095,-0.1116,-0.1109,-0.1109,-0.1109,-0.1109,-0.1109,-0.1109,-0.1109,-0.1109,-0.1109,-0.1109,-0.1109,-0.1109,-0.1109,-0.1109,-0.1109,-0.1276,-0.1612,-0.2313,-0.2815,-0.3284,0.0,0.0,0.0,0.0,0.0,0.0,0.0,0.0,0.0,0.0,0.0,0.0,0.0,0.0,-0.0049,-0.0194,-0.0239,-0.0797,-0.2145,-0.2945,-0.3802,-0.48,-0.5816,-0.6248,-0.5944,-0.6028,-0.6071,-0.5993,-0.5772,-0.5701,-0.5793,-0.5532,-0.559,-0.5835,-0.4669,-0.4,-0.3667,-0.2524,-0.1711,-0.1259,-0.1243,-0.1236,-0.1243,-0.1301,-0.1296,-0.1296,-0.1296,-0.1296,-0.1412,-0.222,-0.291,0.0,-0.4683,0.0,-0.6011,0.0,-0.6269,-0.6245,-0.6289,0.0,0.0,0.0,0.0,0.0,0.0,0.0,0.0,0.0,0.0,0.0,0.0,0.0,-0.5443,-0.5402,0.0,-0.5425,0.0,0.0,0.0,0.0,0.0,0.0,0.0,0.0,0.0,0.0,0.0,0.0,-0.3785,-0.2181,-0.1259,-0.1205,-0.1194,-0.1164,-0.1109,-0.1109,-0.1109,-0.1109,-0.1109,-0.1109,-0.1109,-0.1109,-0.1109,-0.1109,-0.1109,-0.1109,-0.1109,-0.1109,-0.1109,-0.1109,-0.1109,-0.1109,-0.1176,-0.1846,-0.2147,-0.2315,0.0,0.0,0.0,0.0,0.0,0.0,0.0,0.0,0.0,0.0,0.0,0.0,0.0,0.0,0.0,0.0,0.0,-0.0446,-0.1571,-0.2696,-0.3278,-0.3172,-0.5321,-0.5901,-0.461,-0.5695,-0.6179,-0.5993,-0.5871,-0.5796,-0.5793,-0.5532,-0.5481,-0.5547,-0.4095,-0.3486,-0.3518,-0.1987,-0.1374,-0.1379,-0.1322,-0.13,-0.1296,0.0,-0.1298,-0.1296,-0.1296,0.0,0.0,-0.2214,-0.2536,0.0,0.0,0.0,0.0,0.0,0.0,0.0,0.0,0.0,0.0,-0.581,0.0,0.0,0.0,0.0,-0.5436,0.0,0.0,0.0,0.0,-0.5583,-0.5569,-0.5419,-0.5395,0.0,0.0,0.0,0.0,0.0,0.0,0.0,0.0,0.0,0.0,0.0,0.0,0.0,-0.3781,-0.2146,-0.1199,-0.1204,-0.1138,-0.1108,-0.1109,-0.1109,-0.1109,-0.1109,-0.1109,-0.1109,-0.1109,-0.1109,-0.1109,-0.1109,-0.1109,-0.1109,-0.1109,-0.1109,-0.1109,-0.1109,-0.1109,-0.1109,-0.1176,-0.1846,-0.2214,-0.2484,0.0,0.0,0.0,0.0,0.0,0.0,0.0,0.0,0.0,0.0,0.0,0.0,0.0,0.0,0.0,0.0,0.0,-0.025,-0.0779,-0.1646,-0.2266,-0.2423,-0.4368,-0.5174,-0.4637,-0.5747,-0.6173,-0.5878,-0.5732,-0.5661,-0.5657,-0.5491,-0.5477,-0.5534,-0.4059,-0.3411,-0.3282,-0.1776,-0.1008,-0.0848,-0.0851,-0.0914,-0.1073,0.0,0.0,-0.1296,-0.1296,-0.1283,0.0,-0.1556,-0.1983,-0.2544,-0.3094,-0.3971,-0.4857,-0.516,-0.5549,0.0,0.0,0.0,-0.5684,-0.5779,0.0,0.0,0.0,0.0,0.0,0.0,0.0,0.0,0.0,-0.5474,-0.5453,-0.5402,-0.5395,-0.5395,0.0,0.0,0.0,0.0,0.0,0.0,0.0,0.0,0.0,0.0,0.0,0.0,0.0,-0.2178,-0.1257,-0.1205,-0.1192,-0.1162,-0.1109,-0.1109,-0.1109,-0.1109,-0.1109,-0.1109,-0.1109,-0.1109,-0.1109,-0.1109,-0.1109,-0.1109,-0.1109,-0.1109,-0.1109,-0.1109,-0.1109,-0.1109,-0.1143,-0.1344,-0.1478,-0.1646,0.0,0.0,0.0,0.0,0.0,0.0,0.0,0.0,0.0,0.0,0.0,0.0,0.0,0.0,0.0,0.0,0.0,-0.005,-0.0243,-0.1145,-0.1566,-0.1346,-0.3312,-0.4154,-0.3601,-0.5025,-0.5577,-0.5217,-0.5417,-0.5515,-0.5479,-0.5363,-0.5242,-0.5074,-0.393,-0.3203,-0.2768,-0.1632,-0.0975,-0.0755,-0.0801,-0.0943,0.0,0.0,-0.129,-0.1281,0.0,-0.1269,-0.1196,-0.1196,-0.1542,-0.1974,-0.2297,-0.3081,-0.3942,-0.427,-0.4828,-0.5341,-0.5389,-0.5518,0.0,-0.5701,-0.5583,0.0,-0.5532,0.0,0.0,0.0,0.0,0.0,0.0,-0.5477,-0.5457,-0.5402,-0.5395,-0.5416,0.0,-0.5429,0.0,0.0,0.0,-0.5542,0.0,0.0,-0.561,-0.5854,0.0,0.0,0.0,0.0,-0.1245,-0.1204,-0.1192,-0.1161,-0.1109,-0.1109,-0.1109,-0.1109,-0.1109,-0.1109,-0.1109,-0.1109,-0.1109,-0.1109,-0.1109,-0.1109,-0.1109,-0.1109,-0.1109,-0.1109,-0.1109,-0.1109,-0.1109,-0.1109,-0.1109,-0.1176,0.0,0.0,0.0,0.0,0.0,0.0,0.0,0.0,0.0,0.0,0.0,0.0,0.0,0.0,0.0,0.0,0.0,0.0,0.0,-0.1065,-0.1223,-0.0049,-0.2251,-0.2909,-0.1614,-0.365,-0.4536,-0.4153,-0.492,-0.5252,-0.5171,-0.5057,-0.4719,-0.42,-0.3602,-0.2825,-0.1926,-0.1514,-0.1198,-0.0963,-0.1163,-0.1258,-0.1257,-0.1257,0.0,-0.1213,-0.1283,-0.1254,-0.1201,-0.1201,-0.1144,-0.1258,-0.206,-0.2374,-0.256,-0.3381,-0.402,-0.4485,-0.4627,-0.5112,-0.5545,-0.5589,0.0,0.0,0.0,0.0,-0.5436,0.0,0.0,0.0,0.0,-0.5579,-0.5566,-0.5419,-0.5395,-0.5446,-0.5559,-0.5487,-0.5498,0.0,0.0,0.0,-0.5405,-0.5399,-0.5457,-0.5579,-0.4154,-0.3359,0.0,0.0,0.0,-0.1201,-0.1138,-0.1108,-0.1109,-0.1109,-0.1109,-0.1109,-0.1109,-0.1109,-0.1109,-0.1109,-0.1109,-0.1109,-0.1109,-0.1109,-0.1109,-0.1109,-0.1109,-0.1109,-0.1109,-0.1109,-0.1109,-0.1109,-0.1109,-0.1143,0.0,0.0,0.0,0.0,0.0,0.0,0.0,0.0,0.0,0.0,0.0,0.0,0.0,0.0,0.0,0.0,0.0,0.0,0.0,-0.0283,-0.0331,0.0,-0.1437,-0.204,-0.1624,-0.2954,-0.3593,-0.3369,-0.3477,-0.3531,-0.3518,-0.3389,-0.3245,-0.3084,-0.2414,-0.1902,-0.1453,-0.0834,-0.0447,-0.0287,-0.0648,-0.0798,0.0,0.0,-0.1071,-0.1219,-0.1213,-0.1184,-0.1132,-0.1132,-0.1112,-0.1155,-0.1358,-0.1764,-0.2207,-0.2461,-0.2999,-0.3662,-0.4233,-0.4526,-0.4797,-0.5421,-0.5539,-0.5474,0.0,0.0,0.0,0.0,0.0,0.0,0.0,0.0,-0.544,-0.5402,-0.5395,-0.5409,-0.5446,-0.5419,0.0,-0.5498,0.0,0.0,0.0,-0.5463,-0.5457,-0.5579,-0.4154,0.0,0.0,0.0,0.0,-0.1134,-0.1147,-0.1165,-0.1109,-0.1109,-0.1109,-0.1109,-0.1109,-0.1109,-0.1109,-0.1109,-0.1109,-0.1109,-0.1109,-0.1109,-0.1109,-0.1109,-0.1109,-0.1109,-0.1109,-0.1109,-0.1109,-0.1109,-0.1244,-0.1512,0.0,0.0,0.0,0.0,0.0,0.0,0.0,0.0,0.0,0.0,0.0,0.0,0.0,0.0,0.0,0.0,0.0,0.0,0.0,0.0,0.0,0.0,-0.0649,-0.0962,-0.0908,-0.1949,-0.2391,-0.2227,-0.258,-0.2696,-0.2677,-0.2599,-0.2445,-0.2213,-0.1863,-0.1404,-0.0834,-0.0471,-0.0322,-0.0325,-0.0523,0.0,0.0,-0.0737,-0.083,-0.0948,-0.1024,-0.107,-0.1103,-0.1117,-0.1101,-0.1109,-0.1109,-0.1344,-0.1678,-0.1678,-0.2181,-0.2815,-0.3215,-0.3585,-0.4002,-0.4817,-0.4983,-0.5013,-0.5437,-0.5457,-0.5395,0.0,0.0,0.0,0.0,0.0,0.0,-0.5395,-0.5395,-0.5395,-0.5395,-0.5395,-0.5419,0.0,-0.5436,0.0,0.0,0.0,-0.5501,-0.5521,0.0,0.0,0.0,0.0,0.0,-0.1087,-0.1138,-0.1124,-0.1109,-0.1109,-0.1109,-0.1109,-0.1109,-0.1109,-0.1109,-0.1109,-0.1109,-0.1109,-0.1109,-0.1109,-0.1109,-0.1109,-0.1109,-0.1109,-0.1109,-0.1109,-0.1109,-0.1109,-0.1311,-0.1648,0.0,0.0,0.0,0.0,0.0,0.0,0.0,0.0,0.0,0.0,0.0,0.0,0.0,0.0,0.0,0.0,0.0,0.0,0.0,0.0,0.0,0.0,0.0,0.0,0.0,-0.078,-0.1146,-0.0974,-0.1777,-0.2142,-0.2097,-0.2074,-0.1846,-0.1377,-0.1446,-0.104,-0.0265,-0.0277,-0.0404,-0.0607,-0.0594,-0.0589,-0.0548,-0.0573,-0.0596,-0.0617,-0.0813,-0.0964,-0.108,-0.1106,-0.1097,-0.1109,-0.1109,-0.1109,-0.1109,-0.1109,-0.1511,-0.198,-0.2079,-0.2581,-0.3215,-0.3984,-0.4154,-0.4353,-0.5093,-0.5259,-0.5292,-0.5395,-0.5395,0.0,0.0,0.0,0.0,-0.5395,-0.5395,-0.5402,-0.5423,-0.5426,-0.5474,-0.5576,0.0,0.0,0.0,0.0,0.0,0.0,0.0,0.0,0.0,0.0,0.0,0.0,-0.1084,0.0,-0.1109,0.0,-0.1109,-0.1109,-0.1109,-0.1109,-0.1109,-0.1109,-0.1107,-0.107,-0.1107,-0.1107,-0.1104,-0.1108,-0.1109,-0.1109,-0.1109,-0.1109,-0.1109,-0.1109,-0.1311,-0.1614,0.0,0.0,0.0,0.0,0.0,0.0,0.0,0.0,0.0,0.0,0.0,0.0,0.0,0.0,0.0,0.0,0.0,0.0,0.0,0.0,0.0,0.0,0.0,0.0,0.0,-0.0178,-0.0214,-0.0203,-0.035,-0.0445,-0.0421,-0.0409,-0.037,-0.0269,-0.0304,-0.021,-0.0074,-0.0227,0.0,-0.0158,-0.0472,-0.051,-0.0352,-0.0535,-0.0596,-0.0617,-0.0637,-0.0723,-0.0877,-0.1049,-0.1114,-0.1109,-0.1109,-0.1109,-0.1109,-0.1109,-0.1176,-0.1411,-0.1946,-0.2179,-0.248,-0.3215,-0.3382,-0.3582,-0.432,-0.4486,-0.4655,-0.5259,-0.5395,-0.5395,-0.5395,0.0,0.0,0.0,0.0,0.0,0.0,-0.5549,-0.5559,-0.5586,-0.5566,-0.5545,0.0,0.0,0.0,0.0,0.0,0.0,0.0,0.0,0.0,0.0,0.0,0.0,0.0,0.0,0.0,-0.1109,-0.1109,-0.1109,-0.1109,-0.1109,-0.1063,-0.101,-0.1065,-0.1062,-0.101,-0.1066,-0.1109,-0.1109,-0.1109,-0.1109,-0.1109,-0.1109,-0.1311,-0.1648,0.0,0.0,0.0,0.0,0.0,0.0,0.0,0.0,0.0,0.0,0.0,0.0,0.0,0.0,0.0,0.0,0.0,0.0,0.0,0.0,0.0,0.0,0.0,0.0,0.0,0.0,0.0,0.0,0.0,0.0,0.0,0.0,0.0,0.0,0.0,0.0,0.0,0.0,0.0,0.0,-0.0196,-0.0234,-0.0154,-0.0262,-0.0292,-0.0285,-0.0416,-0.0477,-0.0573,-0.074,-0.0774,-0.0808,-0.0909,-0.0942,-0.0976,-0.1076,-0.1109,-0.1176,-0.1478,-0.1577,-0.1745,-0.2447,-0.2614,-0.2815,-0.3551,-0.3741,-0.3949,-0.4674,-0.4799,-0.4905,-0.5312,-0.5395,0.0,0.0,0.0,0.0,0.0,0.0,-0.5504,-0.5504,-0.5504,-0.5477,0.0,0.0,0.0,0.0,0.0,0.0,0.0,0.0,0.0,0.0,0.0,0.0,0.0,0.0,0.0,-0.1109,-0.1109,-0.1109,-0.1109,-0.1061,-0.1054,-0.1054,-0.1037,-0.1031,-0.1002,-0.1048,-0.1062,-0.1109,-0.1109,-0.1109,-0.1109,-0.1109,-0.121,-0.1412,0.0,0.0,0.0,0.0,0.0,0.0,0.0,0.0,0.0,0.0,0.0,0.0,0.0,0.0,0.0,0.0,0.0,0.0,0.0,0.0,0.0,0.0,0.0,0.0,0.0,0.0,0.0,0.0,0.0,0.0,0.0,0.0,0.0,0.0,0.0,0.0,0.0,0.0,0.0,0.0,0.0,0.0,0.0,0.0,0.0,-0.0035,-0.017,-0.0236,-0.0236,-0.0371,-0.0438,-0.0539,-0.0674,-0.0742,-0.0775,-0.0942,-0.1009,-0.1043,-0.1043,-0.1076,-0.1244,-0.1745,-0.1871,-0.2062,-0.279,-0.2956,-0.317,-0.3898,-0.4024,-0.4239,-0.5031,-0.516,0.0,0.0,0.0,0.0,0.0,0.0,-0.5443,-0.5443,-0.5443,-0.5363,-0.5196,0.0,0.0,0.0,0.0,0.0,-0.2149,-0.1478,0.0,0.0,0.0,0.0,-0.1109,0.0,-0.1109,0.0,-0.1109,-0.1109,-0.1109,-0.1052,-0.1048,-0.1088,-0.1015,-0.1008,-0.0992,-0.0998,-0.1046,-0.1067,-0.1106,-0.1109,-0.1109,-0.1109,-0.1109,-0.1143,0.0,0.0,0.0,0.0,0.0,0.0,0.0,0.0,0.0,0.0,0.0,0.0,0.0,0.0,0.0,0.0,0.0,0.0,0.0,0.0,0.0,0.0,0.0,0.0,0.0,0.0,0.0,0.0,0.0,0.0,0.0,0.0,0.0,0.0,0.0,0.0,0.0,0.0,0.0,0.0,0.0,0.0,0.0,0.0,0.0,0.0,-0.0034,-0.0034,-0.0034,-0.0034,-0.0236,-0.0506,-0.0506,-0.0539,-0.0539,-0.0539,-0.0674,-0.0843,-0.0843,-0.0976,-0.1109,-0.1176,-0.1155,-0.1296,-0.2033,-0.221,-0.2384,-0.3069,-0.3254,-0.3528,-0.4265,-0.4386,-0.4622,0.0,0.0,0.0,0.0,0.0,-0.5569,-0.5569,-0.5569,-0.5272,0.0,0.0,0.0,0.0,0.0,0.0,-0.2147,-0.1478,0.0,-0.1109,0.0,-0.1109,-0.1109,-0.1109,0.0,-0.1109,-0.1109,-0.1109,-0.1109,-0.1106,-0.1077,-0.0998,-0.0988,-0.1016,-0.0994,-0.099,-0.1002,-0.1008,-0.1066,-0.1109,-0.1109,-0.1109,-0.1109,-0.1109,0.0,0.0,0.0,0.0,0.0,0.0,0.0,0.0359,0.0,0.0,0.0,0.0,0.0,0.0,0.0,0.0,0.0,0.0,0.0,0.0,0.0,0.0,0.0,0.0,0.0,0.0,0.0,0.0,0.0,0.0,0.0,0.0,0.0,0.0,0.0,0.0,0.0,0.0,0.0,0.0,0.0,0.0,0.0,0.0,0.0,0.0,0.0,0.0,0.0,0.0,-0.0101,-0.0236,-0.0337,-0.0371,-0.0404,-0.0472,-0.0573,-0.0607,-0.0607,-0.0674,-0.074,-0.074,-0.0735,-0.0824,-0.1229,-0.1292,-0.1511,-0.234,-0.2865,-0.3286,-0.3584,-0.3643,-0.3751,0.0,0.0,0.0,0.0,0.0,0.0,-0.4154,-0.4154,-0.4035,0.0,0.0,0.0,0.0,0.0,0.0,0.0,0.0,0.0,-0.1109,0.0,-0.1109,-0.1109,-0.1109,-0.1109,-0.1109,-0.1109,-0.1109,-0.1108,-0.1072,-0.099,-0.0937,-0.0985,-0.0999,-0.0989,-0.1001,-0.1027,-0.106,-0.1104,-0.1109,-0.1109,-0.1109,-0.1109,-0.1109,0.2924,0.0,0.29,0.0,0.2307,0.1838,0.1838,0.1301,0.0853,0.0853,0.0853,0.0629,0.0045,0.0,0.0,0.0,0.0,0.0,0.0,0.0,0.0,0.0,0.0,0.0,0.0,0.0,0.0,0.0,0.0,0.0,0.0,0.0,0.0,0.0,0.0,0.0,0.0,0.0,0.0,0.0,0.0,0.0,0.0,0.0,0.0,0.0,0.0,0.0,0.0,0.0,0.0,-0.0034,-0.0169,-0.0202,-0.0236,-0.0337,-0.0404,-0.0438,-0.0438,-0.0472,-0.0506,-0.0506,-0.0503,-0.0529,-0.0674,-0.0654,-0.0791,-0.149,-0.2039,-0.2486,-0.2753,-0.281,-0.2889,0.0,0.0,0.0,0.0,-0.3215,0.0,-0.3215,-0.3215,-0.3115,-0.2882,0.0,0.0,0.0,0.0,0.0,0.0,0.0,0.0,0.0,0.0,0.0,0.0,0.0,-0.1109,-0.1109,-0.1109,-0.1109,-0.1107,-0.1024,-0.0978,-0.0939,-0.0973,-0.0988,-0.0989,-0.0998,-0.1026,-0.1064,-0.1106,-0.1109,-0.1109,-0.1109,-0.1109,-0.1109,0.2917,0.2905,0.2888,0.2877,0.2868,0.2867,0.2867,0.2867,0.2867,0.2867,0.2867,0.2152,0.0225,0.0,0.0,0.0,0.0,0.0,0.0,0.0,0.0,0.0,0.0,0.0,0.0,0.0,0.0,0.0,0.0,0.0,0.0,0.0,0.0,0.0,0.0,0.0,0.0,0.0,0.0,0.0,0.0,0.0,0.0,0.0,0.0,0.0,0.0,0.0,0.0,0.0,0.0,0.0,0.0,0.0,0.0,0.0,-0.0135,-0.0303,-0.0303,-0.0404,-0.0506,-0.0506,-0.0495,-0.0513,-0.0498,-0.0452,-0.0413,-0.0501,-0.0531,-0.0811,-0.1753,-0.1902,-0.221,-0.3068,0.0,0.0,0.0,0.0,0.0,-0.3215,-0.3215,-0.2915,-0.2179,0.0,0.0,0.0,0.0,0.0,0.0,0.0,0.0,-0.1109,-0.1109,0.0,-0.1109,-0.1109,-0.1109,-0.1109,-0.1109,-0.1109,-0.1108,-0.1046,-0.1,-0.0998,-0.1001,-0.0988,-0.099,-0.0989,-0.1001,-0.1004,-0.1065,-0.1109,-0.1109,-0.1109,-0.1109,-0.1109,0.5283,0.5188,0.5091,0.506,0.4387,0.3851,0.3851,0.3315,0.2911,0.2911,0.2911,0.2644,0.2062,0.1345,0.0718,0.0,0.0,0.0,0.0,0.0,0.0,0.0,0.0,0.0,0.0,0.0,0.0,0.0,0.0,0.0,0.0,0.0,0.0,0.0,0.0,0.0,0.0,0.0,0.0,0.0,0.0,0.0,0.0,0.0,0.0,0.0,0.0,0.0,0.0,0.0,0.0,0.0,0.0,0.0,0.0,0.0,-0.0034,-0.0101,-0.0101,-0.0135,-0.0169,-0.0169,-0.0167,-0.0198,-0.0288,-0.0337,-0.041,-0.0429,-0.0464,-0.0596,-0.0901,-0.0955,-0.1075,-0.1507,0.0,0.0,0.0,0.0,-0.1779,-0.1779,-0.1779,-0.1678,0.0,-0.1411,0.0,0.0,0.0,0.0,0.0,0.0,0.0,0.0,-0.1109,0.0,-0.1109,-0.1109,-0.1109,-0.1109,-0.1109,-0.1065,-0.1047,-0.1057,-0.104,-0.1003,-0.1014,-0.0987,-0.0988,-0.0998,-0.1012,-0.1063,-0.1106,-0.1109,-0.1109,-0.1109,-0.1109,-0.1109,0.6432,0.6299,0.6213,0.6213,0.5547,0.4966,0.4966,0.4387,0.3929,0.3897,0.3894,0.3761,0.3407,0.2788,0.0,0.0628,0.0532,0.0395,0.0044,0.0,0.0,0.0,0.0,0.0,0.0,0.0,0.0,0.0,0.0,0.0,0.0,0.0,0.0,0.0,0.0,0.0,0.0,0.0,0.0,0.0,0.0,0.0,0.0,0.0,0.0,0.0,0.0,0.0,0.0,0.0,0.0,0.0,0.0,0.0,0.0,0.0,0.0,0.0,0.0,0.0,0.0,0.0,0.0,-0.0033,-0.0096,-0.0185,-0.0238,-0.0259,-0.0293,-0.0333,-0.0406,-0.0415,-0.0489,-0.0671,0.0,-0.0741,-0.0841,0.0,0.0,0.0,0.0,0.0,0.0,-0.1042,0.0,0.0,0.0,0.0,0.0,0.0,0.0,-0.1109,-0.1109,0.0,-0.1109,-0.1109,-0.1109,-0.1109,-0.1109,-0.1067,-0.105,-0.1067,-0.1089,-0.1022,-0.1041,-0.1049,-0.1049,-0.1049,-0.106,-0.1109,-0.1109,-0.1109,-0.1109,-0.1109,-0.1109,-0.1109,0.652,0.6432,0.0,0.0,0.6257,0.0,0.6127,0.5908,0.5692,0.5578,0.5521,0.5168,0.4292,0.421,0.3503,0.1742,0.0,0.0,0.0,0.0173,0.0172,0.0168,0.0126,0.0,0.0084,0.0042,0.0,0.0,0.0,0.0,0.0,0.0,0.0,0.0,0.0,0.0,0.0,0.0,0.0,0.0,0.0,0.0,0.0,0.0,0.0,0.0,0.0,0.0,0.0,0.0,0.0,0.0,0.0,0.0,0.0,0.0,0.0,0.0,0.0,0.0,0.0,0.0,0.0,0.0,0.0,0.0,0.0,0.0,0.0,-0.0062,-0.0257,-0.0291,-0.0326,-0.047,-0.0472,-0.0506,-0.0506,0.0,0.0,0.0,0.0,0.0,0.0,-0.0976,-0.1076,0.0,0.0,0.0,0.0,0.0,-0.1109,-0.1109,-0.1109,-0.1109,-0.1109,-0.1109,-0.1109,-0.1109,-0.1109,-0.1109,-0.1109,-0.1109,-0.1109,-0.1109,-0.1109,-0.1109,-0.1109,-0.1109,-0.1109,-0.1109,-0.1109,-0.1109,-0.1109,-0.1109,-0.1109,-0.1109,0.0,0.0,0.6704,0.6704,0.6479,0.6343,0.6343,0.6124,0.5985,0.5954,0.5778,0.5522,0.5211,0.5282,0.4821,0.3587,0.2884,0.2426,0.2076,0.2082,0.1999,0.1913,0.1315,0.1005,0.0983,0.0328,0.0,0.0,0.0,0.0,0.0,0.0,0.0,0.0,0.0,0.0,0.0,0.0,0.0,0.0,0.0,0.0,0.0,0.0,0.0,0.0,0.0,0.0,0.0,0.0,0.0,0.0,0.0,0.0,0.0,0.0,0.0,0.0,0.0,0.0,0.0,0.0,0.0,0.0,0.0,0.0,0.0,0.0,0.0,0.0,-0.0064,-0.0065,-0.013,-0.0302,-0.0337,-0.0371,-0.0472,-0.0506,0.0,0.0,-0.0539,-0.0573,-0.0573,-0.0741,-0.0876,0.0,0.0,0.0,0.0,0.0,-0.1109,-0.1109,-0.1109,-0.1109,-0.1109,-0.1109,-0.1109,-0.1109,-0.1109,-0.1109,-0.1109,-0.1109,-0.1109,-0.1109,-0.1109,-0.1109,-0.1109,-0.1109,-0.1109,-0.1109,-0.1109,-0.1109,-0.1109,-0.1109,-0.1109,-0.1109,0.7095,0.701,0.6922,0.6922,0.6745,0.6567,0.6567,0.639,0.6236,0.618,0.6043,0.5929,0.5861,0.5825,0.5597,0.5058,0.409,0.3301,0.2733,0.2695,0.2637,0.2508,0.2074,0.1861,0.1946,0.1462,0.1056,0.065,0.0603,0.0397,0.0,0.0,0.0,0.0,0.0,0.0,0.0,0.0,0.0,0.0,0.0,0.0,0.0,0.0,0.0,0.0,0.0,0.0,0.0,0.0,0.0,0.0,0.0,0.0,0.0,0.0,0.0,0.0,0.0,0.0,0.0,0.0,0.0,0.0,0.0,0.0,0.0,0.0,0.0,0.0,0.0,0.0,-0.0033,-0.0134,-0.0169,-0.0202,-0.027,-0.027,0.0,-0.027,-0.0337,-0.0404,-0.0404,-0.0573,-0.0674,-0.0674,0.0,0.0,-0.0942,-0.0976,-0.1009,-0.1109,-0.1109,-0.1109,-0.1109,-0.1109,-0.1109,-0.1109,-0.1109,-0.1109,-0.1109,-0.1109,-0.1109,-0.1109,-0.1109,-0.1109,-0.1109,-0.1109,-0.1109,-0.1109,-0.1109,-0.1109,-0.1109,-0.1109,-0.1109,-0.1109,0.7095,0.7095,0.7095,0.7095,0.6969,0.6836,0.6836,0.6612,0.6436,0.6371,0.6356,0.6307,0.6285,0.6125,0.5996,0.6136,0.5225,0.4176,0.3156,0.3104,0.3041,0.2901,0.2776,0.2768,0.2877,0.2725,0.2319,0.1582,0.1511,0.1101,0.0392,0.0392,0.0314,0.0196,0.0196,0.0118,0.0,0.0,0.0,0.0,0.0,0.0,0.0,0.0,0.0,0.0,0.0,0.0,0.0,0.0,0.0,0.0,0.0,0.0,0.0,0.0,0.0,0.0,0.0,0.0,0.0,0.0,0.0,0.0,0.0,0.0,0.0,0.0,0.0,0.0,0.0,0.0,0.0,0.0,0.0,0.0,0.0,0.0,0.0,0.0,-0.0135,-0.027,-0.027,-0.0371,-0.0472,-0.0472,-0.0506,0.0,0.0,-0.0843,-0.0909,-0.1109,-0.1109,-0.1109,-0.1109,-0.1109,-0.1109,-0.1109,-0.1109,-0.1109,-0.1109,-0.1109,-0.1109,-0.1109,-0.1109,-0.1109,-0.1109,-0.1109,-0.1109,-0.1109,-0.1109,-0.1109,-0.1109,-0.1109,-0.1109,-0.1109,0.7095,0.7095,0.7095,0.7095,0.7051,0.7054,0.7054,0.6877,0.6741,0.6719,0.6536,0.6358,0.6294,0.6293,0.632,0.6279,0.6148,0.5749,0.5048,0.4991,0.4851,0.4633,0.3951,0.3598,0.3643,0.2892,0.2481,0.2311,0.2302,0.2234,0.2113,0.2113,0.1761,0.1097,0.1097,0.0706,0.0,0.0,0.0,0.0,0.0,0.0,0.0,0.0,0.0,0.0,0.0,0.0,0.0,0.0,0.0,0.0,0.0,0.0,0.0,0.0,0.0,0.0,0.0,0.0,0.0,0.0,0.0,0.0,0.0,0.0,0.0,0.0,0.0,0.0,0.0,0.0,0.0,0.0,0.0,0.0,0.0,0.0,0.0,0.0,-0.0034,-0.0034,-0.0034,-0.0236,-0.0337,-0.0337,-0.0607,-0.0776,-0.0809,-0.0976,-0.1076,-0.1109,-0.1109,-0.1109,-0.1109,-0.1109,-0.1109,-0.1109,-0.1109,-0.1109,-0.1109,-0.1109,-0.1109,-0.1109,-0.1109,-0.1109,-0.1109,-0.1109,-0.1109,-0.1109,-0.1109,-0.1109,-0.1109,-0.1109,-0.1109,-0.1109,0.7095,0.7095,0.7095,0.7095,0.7095,0.7095,0.7095,0.701,0.6969,0.6969,0.6877,0.676,0.6742,0.6662,0.6587,0.6574,0.6486,0.6262,0.5905,0.5763,0.5597,0.5378,0.492,0.4654,0.4664,0.4203,0.3726,0.3241,0.32,0.2966,0.2503,0.2503,0.2309,0.1957,0.1957,0.1722,0.1332,0.1332,0.1332,0.1332,0.1332,0.1097,0.0705,0.0697,0.0418,0.0,0.0,0.0,0.0,0.0,0.0,0.0,0.0,0.0,0.0,0.0,0.0,0.0,0.0,0.0,0.0,0.0,0.0,0.0,0.0,0.0,0.0,0.0,0.0,0.0,0.0,0.0,0.0,0.0,0.0,0.0,0.0,0.0,0.0,0.0,0.0,0.0,0.0,-0.0067,-0.0135,-0.0135,-0.0371,-0.0573,-0.064,-0.0842,-0.0976,-0.1109,-0.1109,-0.1109,-0.1109,-0.1109,-0.1109,-0.1109,-0.1109,-0.1109,-0.1109,-0.1109,-0.1109,-0.1109,-0.1109,-0.1109,-0.1109,-0.1109,-0.1109,-0.1109,-0.1109,-0.1109,-0.1109,-0.1109,-0.1109,-0.1109,0.7095,0.7095,0.7095,0.7095,0.7095,0.7095,0.7095,0.7095,0.7095,0.7095,0.7095,0.7095,0.7095,0.6969,0.6881,0.6881,0.67,0.6521,0.6511,0.6239,0.5995,0.5797,0.5634,0.5532,0.5532,0.537,0.4983,0.4299,0.4182,0.3791,0.3166,0.309,0.2973,0.2817,0.2817,0.2699,0.2503,0.2503,0.2503,0.2503,0.2503,0.2113,0.1567,0.1567,0.1158,0.0566,0.0551,0.043,0.0315,0.0272,0.0135,0.0,0.0,0.0,0.0,0.0,0.0,0.0,0.0,0.0,0.0,0.0,0.0,0.0,0.0,0.0,0.0,0.0,0.0,0.0,0.0,0.0,0.0,0.0,0.0,0.0,0.0,0.0,0.0,0.0,0.0,0.0,0.0,0.0,0.0,0.0,-0.0202,-0.037,-0.0501,-0.0701,-0.0834,-0.0898,-0.1038,-0.1109,-0.1109,-0.1109,-0.1109,-0.1109,-0.1109,-0.1109,-0.1109,-0.1109,-0.1109,-0.1109,-0.1109,-0.1109,-0.1109,-0.1109,-0.1109,-0.1109,-0.1109,-0.1109,-0.1109,-0.1109,-0.1109,-0.1109,0.7095,0.7095,0.7095,0.7095,0.7095,0.7095,0.7095,0.7095,0.7095,0.7095,0.7095,0.7095,0.7095,0.7095,0.7098,0.7098,0.7051,0.7048,0.7037,0.6864,0.6526,0.6091,0.5953,0.5845,0.5845,0.5677,0.5536,0.5494,0.5287,0.5162,0.5085,0.4896,0.4423,0.3713,0.3713,0.3244,0.2503,0.2503,0.2503,0.2503,0.2503,0.2464,0.2426,0.2426,0.2353,0.2299,0.2167,0.1718,0.1186,0.1052,0.0572,0.0,0.0,0.0,0.0,0.0,0.0,0.0,0.0,0.0,0.0,0.0,0.0,0.0,0.0,0.0,0.0,0.0,0.0,0.0,0.0,0.0,0.0,0.0,0.0,0.0,0.0,0.0,0.0,0.0,0.0,0.0,0.0,0.0,0.0,0.0,-0.0202,-0.0367,-0.0487,-0.068,-0.0647,-0.0291,-0.0796,-0.1109,-0.1109,-0.1109,-0.1109,-0.1109,-0.1109,-0.1109,-0.1109,-0.1109,-0.1109,-0.1109,-0.1109,-0.1109,-0.1109,-0.1109,-0.1109,-0.1109,-0.1109,-0.1109,-0.1109,-0.1109,-0.1109,-0.1109,0.7095,0.7095,0.7095,0.7095,0.7095,0.7095,0.7095,0.7095,0.7095,0.7095,0.7095,0.7095,0.7095,0.7095,0.7095,0.7095,0.7095,0.7095,0.7095,0.701,0.6746,0.6169,0.6156,0.6048,0.5833,0.5821,0.5717,0.5598,0.5521,0.5479,0.5479,0.5404,0.5207,0.4929,0.4929,0.4732,0.4421,0.4421,0.4421,0.4421,0.4421,0.4068,0.3482,0.3482,0.3073,0.2498,0.2362,0.2133,0.1888,0.1773,0.1243,0.0673,0.0673,0.0371,0.0,0.0,0.0,0.0,0.0,0.0,0.0,0.0,0.0,0.0,0.0,0.0,0.0,0.0,0.0,0.0,0.0,0.0,0.0,0.0,0.0,0.0,0.0,0.0,0.0,0.0,0.0,0.0,0.0,0.0,0.0,0.0,-0.0197,-0.0324,-0.0378,-0.0157,0.0094,0.0407,0.0225,0.0066,-0.0101,-0.0101,-0.0101,-0.0101,-0.0101,-0.0101,-0.0101,-0.0101,-0.0302,-0.0605,-0.0605,-0.0806,-0.1109,-0.1109,-0.1109,-0.1109,-0.1109,-0.1109,-0.1109,-0.1109,-0.1109,-0.1109,0.7095,0.7095,0.7095,0.7095,0.7095,0.7095,0.7095,0.7095,0.7095,0.7095,0.7095,0.7095,0.7095,0.7095,0.7095,0.7095,0.7095,0.7095,0.7095,0.7095,0.6919,0.652,0.6476,0.6343,0.61,0.6093,0.6004,0.5831,0.5754,0.5712,0.5673,0.5637,0.5598,0.5598,0.5598,0.5598,0.5598,0.5598,0.5598,0.5598,0.5598,0.5204,0.4577,0.4577,0.4068,0.3343,0.322,0.2945,0.2669,0.2495,0.198,0.1411,0.1411,0.1076,0.0605,0.0404,0.0337,0.0303,0.0067,0.0,0.0,0.0,0.0,0.0,0.0,0.0,0.0,0.0,0.0,0.0,0.0,0.0,0.0,0.0,0.0,0.0,0.0,0.0,0.0,0.0,0.0,0.0,0.0,0.0,0.0,0.0,0.0032,0.0126,0.0274,0.0546,0.0849,0.1183,0.1261,0.1299,0.1292,0.0769,0.0504,0.0504,0.0504,0.0504,0.0504,0.0504,0.0302,-0.0034,-0.0034,-0.0269,-0.0605,-0.0605,-0.0706,-0.084,-0.084,-0.0941,-0.1109,-0.1109,-0.1109,-0.1109,0.7095,0.7095,0.7095,0.7095,0.7095,0.7095,0.7095,0.7095,0.7095,0.7095,0.7095,0.7095,0.7095,0.7095,0.7095,0.7095,0.7095,0.7095,0.7095,0.7095,0.7095,0.7095,0.6964,0.6858,0.6705,0.6552,0.6446,0.6303,0.6022,0.5902,0.5902,0.5712,0.5598,0.5598,0.5598,0.5598,0.5598,0.5598,0.5598,0.5598,0.5598,0.5598,0.5598,0.5598,0.5479,0.5286,0.5074,0.4401,0.357,0.3313,0.2714,0.2114,0.2114,0.2114,0.198,0.131,0.1109,0.0941,0.0202,0.0,0.0,0.0,0.0,0.0,0.0,0.0,0.0,0.0,0.0,0.0,0.0,0.0,0.0,0.0,0.0,0.0,0.0,0.0,0.0,0.0,0.0,0.0,0.0,0.0,0.0,0.0,0.0554,0.1122,0.1589,0.141,0.1556,0.2087,0.2181,0.2474,0.2993,0.1357,0.0504,0.0504,0.0504,0.0504,0.0504,0.0504,0.0504,0.0504,0.0504,0.0504,0.0504,0.0504,0.0202,-0.0302,-0.0302,-0.0605,-0.1076,-0.1076,-0.1076,-0.1109,0.7095,0.7095,0.7095,0.7095,0.7095,0.7095,0.7095,0.7095,0.7095,0.7095,0.7095,0.7095,0.7095,0.7095,0.7095,0.7095,0.7095,0.7095,0.7095,0.7095,0.7095,0.7095,0.7055,0.6916,0.6705,0.6759,0.6668,0.645,0.6367,0.6274,0.618,0.6103,0.6106,0.6106,0.6106,0.6106,0.6106,0.6106,0.6106,0.6106,0.6106,0.5986,0.5825,0.5825,0.5673,0.5485,0.5111,0.4837,0.4511,0.4104,0.3487,0.2781,0.2248,0.2114,0.2045,0.1846,0.1812,0.1745,0.1544,0.1478,0.1243,0.0236,0.0,0.0,0.0,0.0,0.0,0.0,0.0,0.0,0.0,0.0,0.0,0.0,0.0438,0.0774,0.0774,0.1176,0.1462,0.142,0.1415,0.1368,0.1267,0.1264,0.1252,0.1254,0.1431,0.1778,0.2354,0.2324,0.2439,0.2782,0.2961,0.3026,0.2995,0.236,0.2048,0.2048,0.1816,0.1681,0.1681,0.1681,0.1446,0.1076,0.1076,0.084,0.0504,0.0504,0.0403,0.0269,0.0269,0.0168,0.0034,0.0034,-0.0202,-0.047,0.7095,0.7095,0.7095,0.7095,0.7095,0.7095,0.7095,0.7095,0.7095,0.7095,0.7095,0.7095,0.7095,0.7095,0.7095,0.7095,0.7095,0.7095,0.7095,0.7095,0.7095,0.7095,0.7095,0.696,0.6709,0.6793,0.6688,0.6429,0.6429,0.6385,0.63,0.63,0.63,0.63,0.63,0.63,0.63,0.63,0.63,0.63,0.63,0.6219,0.606,0.606,0.5906,0.5678,0.5332,0.5162,0.5012,0.4583,0.4061,0.3556,0.3119,0.2986,0.2919,0.2616,0.2547,0.248,0.2179,0.2114,0.1913,0.1042,0.0841,0.0673,0.0135,0.0236,0.0337,0.0067,0.0,0.0,0.0,0.0236,0.0438,0.0438,0.1042,0.1511,0.1511,0.1846,0.2083,0.2001,0.1992,0.1959,0.1818,0.181,0.1914,0.2136,0.2149,0.2432,0.3019,0.3047,0.313,0.3299,0.3488,0.3508,0.3352,0.3197,0.3054,0.2889,0.269,0.2591,0.2589,0.2455,0.2185,0.1848,0.1715,0.148,0.1176,0.1176,0.1042,0.084,0.1007,0.084,0.0504,0.0672,0.0437,0.0067,0.7095,0.7095,0.7095,0.7095,0.7095,0.7095,0.7095,0.7095,0.7095,0.7095,0.7095,0.7095,0.7095,0.7095,0.7095,0.7095,0.7095,0.7095,0.7095,0.7095,0.7095,0.7095,0.7095,0.696,0.6709,0.6715,0.6576,0.632,0.632,0.6313,0.63,0.63,0.63,0.63,0.63,0.63,0.63,0.63,0.63,0.63,0.63,0.63,0.63,0.63,0.6141,0.5906,0.5635,0.5384,0.5149,0.4747,0.4495,0.4334,0.4334,0.43,0.4164,0.3487,0.3284,0.3151,0.248,0.2281,0.2281,0.2213,0.2248,0.1913,0.0505,0.0706,0.1008,0.0337,0.0202,0.0202,0.0202,0.074,0.1176,0.1176,0.1745,0.2213,0.2213,0.2248,0.2269,0.2211,0.2191,0.2107,0.1979,0.1961,0.2181,0.2736,0.2792,0.3021,0.3599,0.3627,0.3632,0.3615,0.3803,0.3922,0.3922,0.3853,0.3658,0.3259,0.3226,0.3192,0.3192,0.2889,0.2753,0.272,0.2421,0.2288,0.2288,0.2288,0.1951,0.1512,0.1879,0.151,0.0773,0.1143,0.1041,0.0672,0.7095,0.7095,0.7095,0.7095,0.7095,0.7095,0.7095,0.7095,0.7095,0.7095,0.7095,0.7095,0.7095,0.7095,0.7095,0.7095,0.7095,0.7095,0.7095,0.7095,0.7095,0.7095,0.7095,0.696,0.6709,0.6817,0.6729,0.6467,0.6467,0.6409,0.63,0.63,0.63,0.63,0.63,0.63,0.63,0.63,0.63,0.63,0.63,0.63,0.63,0.63,0.6261,0.6157,0.586,0.5612,0.537,0.4922,0.4661,0.4528,0.4528,0.4431,0.4267,0.4097,0.4061,0.4028,0.3861,0.3828,0.3692,0.3117,0.3387,0.3458,0.198,0.1779,0.1846,0.1678,0.1644,0.1644,0.1644,0.1779,0.1879,0.1879,0.248,0.2948,0.2948,0.3456,0.3779,0.3648,0.3556,0.3455,0.3379,0.3265,0.3274,0.3385,0.3413,0.3508,0.3742,0.3745,0.3788,0.3827,0.397,0.4046,0.4046,0.4159,0.403,0.3658,0.336,0.3192,0.3192,0.3125,0.3092,0.3092,0.3025,0.2991,0.2991,0.2991,0.2891,0.2788,0.2889,0.2788,0.2621,0.2721,0.2418,0.198,0.7095,0.7095,0.7095,0.7095,0.7095,0.7095,0.7095,0.7095,0.7095,0.7095,0.7095,0.7095,0.7095,0.7095,0.7095,0.7095,0.7095,0.7095,0.7095,0.7095,0.7095,0.7095,0.7031,0.6889,0.6705,0.6709,0.66,0.6412,0.6412,0.6371,0.63,0.63,0.63,0.63,0.63,0.63,0.63,0.63,0.63,0.63,0.63,0.63,0.63,0.63,0.63,0.6279,0.6006,0.5669,0.5348,0.5033,0.4791,0.4625,0.4661,0.4595,0.4431,0.4431,0.4431,0.4431,0.4334,0.43,0.4197,0.3825,0.4028,0.393,0.2449,0.2382,0.2514,0.2179,0.2114,0.2114,0.2114,0.238,0.2614,0.2614,0.3253,0.3723,0.3723,0.4061,0.4257,0.4132,0.4029,0.395,0.3799,0.3754,0.3727,0.3698,0.3719,0.3778,0.3838,0.3841,0.3868,0.3903,0.4021,0.4086,0.4086,0.4238,0.4197,0.4028,0.383,0.373,0.373,0.356,0.3491,0.3491,0.3293,0.3192,0.3192,0.3192,0.3192,0.3226,0.3424,0.336,0.3226,0.3424,0.319,0.282,0.7095,0.7095,0.7095,0.7095,0.7095,0.7095,0.7095,0.7095,0.7095,0.7095,0.7095,0.7095,0.7095,0.7095,0.7095,0.7095,0.7095,0.7095,0.7095,0.7095,0.7095,0.7095,0.6984,0.6852,0.6742,0.659,0.647,0.63,0.63,0.63,0.63,0.63,0.63,0.63,0.63,0.63,0.63,0.63,0.63,0.63,0.63,0.63,0.63,0.63,0.63,0.6282,0.6115,0.5765,0.5354,0.5241,0.4976,0.4691,0.4827,0.4761,0.4628,0.4628,0.4625,0.4558,0.4398,0.4334,0.43,0.43,0.43,0.3995,0.2783,0.3015,0.3251,0.2648,0.2515,0.2515,0.2482,0.2984,0.3384,0.3384,0.3892,0.43,0.43,0.43,0.4262,0.4162,0.4097,0.4028,0.3835,0.3876,0.3862,0.3821,0.3876,0.3914,0.3932,0.3935,0.3943,0.3965,0.4065,0.4148,0.4148,0.4249,0.43,0.43,0.43,0.43,0.43,0.4028,0.3892,0.3859,0.3527,0.3393,0.3393,0.3393,0.3393,0.3429,0.3758,0.3694,0.3429,0.3761,0.3661,0.3426,0.7095,0.7095,0.7095,0.7095,0.7095,0.7095,0.7095,0.7095,0.7095,0.7095,0.7095,0.7095,0.7095,0.7095,0.7095,0.7095,0.7095,0.7095,0.7095,0.7095,0.7095,0.7095,0.7078,0.7001,0.6859,0.6749,0.6536,0.63,0.63,0.63,0.63,0.63,0.63,0.63,0.63,0.63,0.63,0.63,0.63,0.63,0.63,0.63,0.63,0.63,0.63,0.6296,0.6276,0.6034,0.5713,0.5572,0.5298,0.502,0.5054,0.4924,0.4764,0.4764,0.4694,0.4592,0.4561,0.4431,0.43,0.43,0.43,0.43,0.4259,0.4323,0.4392,0.4289,0.4256,0.4223,0.4028,0.4097,0.4164,0.4164,0.4233,0.43,0.43,0.43,0.4295,0.4278,0.4183,0.4032,0.3892,0.3895,0.3897,0.3881,0.3895,0.3951,0.4054,0.4059,0.4143,0.4246,0.4268,0.4276,0.4276,0.4292,0.43,0.43,0.43,0.43,0.43,0.4267,0.4233,0.4233,0.4167,0.4167,0.4167,0.4167,0.4167,0.4167,0.4197,0.42,0.4167,0.4197,0.42,0.4167,0.7095,0.7095,0.7095,0.7095,0.7095,0.7272,0.7797,0.7885,0.8057,0.8575,0.8663,0.8448,0.7929,0.7404,0.7316,0.7841,0.7404,0.7095,0.7095,0.7095,0.7095,0.7095,0.7021,0.695,0.6886,0.6695,0.6549,0.6419,0.6337,0.63,0.63,0.63,0.63,0.63,0.63,0.63,0.63,0.63,0.63,0.63,0.63,0.63,0.63,0.63,0.63,0.6289,0.6162,0.5989,0.5779,0.5637,0.5382,0.512,0.5223,0.5123,0.4957,0.4957,0.4924,0.4824,0.4658,0.4528,0.4461,0.4461,0.4461,0.4528,0.4824,0.4888,0.4821,0.4625,0.4592,0.4561,0.4495,0.4364,0.4334,0.4464,0.4367,0.43,0.43,0.43,0.43,0.43,0.4254,0.417,0.4016,0.4067,0.4078,0.4011,0.407,0.4162,0.4219,0.4221,0.4243,0.43,0.43,0.43,0.43,0.43,0.43,0.43,0.43,0.43,0.43,0.43,0.43,0.43,0.43,0.43,0.43,0.43,0.43,0.43,0.43,0.43,0.43,0.43,0.43,0.43]}]]